GEFSNE_prec_meanprecacc_036.txt.gz
Total_Precipitation_Accumulation
0.14 0.16 0.19 0.16 0.17 0.19 0.23 0.29 0.37 0.25 0.07 0.02 0.02 0.03 0.08 0.13 0.13 0.12 0.10 0.12 0.16 0.17 0.19 0.22 0.27 0.43 0.71 1.16 1.68 2.51 3.04 2.66 1.85 1.25 0.94 0.86 0.84 0.80
0.18 0.20 0.20 0.21 0.23 0.25 0.26 0.25 0.29 0.32 0.18 0.03 0.02 0.04 0.09 0.16 0.17 0.13 0.12 0.13 0.14 0.14 0.14 0.15 0.18 0.27 0.46 0.75 1.11 1.62 2.43 2.85 2.56 1.96 1.38 1.12 0.93 0.81
0.17 0.22 0.23 0.25 0.31 0.33 0.36 0.33 0.28 0.28 0.24 0.06 0.02 0.04 0.12 0.20 0.19 0.14 0.14 0.13 0.11 0.13 0.14 0.15 0.15 0.20 0.31 0.50 0.71 1.02 1.57 2.27 2.65 2.58 2.07 1.56 1.13 0.81
0.20 0.23 0.26 0.28 0.32 0.38 0.45 0.45 0.37 0.31 0.28 0.15 0.04 0.04 0.12 0.22 0.26 0.20 0.17 0.15 0.11 0.12 0.14 0.15 0.17 0.19 0.25 0.35 0.50 0.70 1.01 1.52 2.05 2.39 2.38 1.91 1.45 1.10
0.21 0.27 0.32 0.34 0.33 0.38 0.48 0.52 0.45 0.36 0.31 0.23 0.11 0.06 0.10 0.22 0.31 0.29 0.25 0.23 0.17 0.14 0.15 0.15 0.18 0.21 0.24 0.27 0.37 0.50 0.66 0.84 1.24 1.79 2.30 2.27 1.86 1.50
0.14 0.19 0.31 0.45 0.50 0.54 0.52 0.50 0.49 0.44 0.38 0.32 0.21 0.13 0.12 0.21 0.34 0.38 0.34 0.30 0.26 0.21 0.18 0.17 0.19 0.22 0.23 0.22 0.23 0.32 0.48 0.73 0.98 1.37 1.79 2.15 2.10 1.84
0.11 0.16 0.28 0.48 0.61 0.75 0.76 0.63 0.56 0.54 0.50 0.45 0.37 0.28 0.22 0.26 0.34 0.41 0.45 0.41 0.38 0.32 0.23 0.19 0.19 0.18 0.19 0.23 0.26 0.29 0.36 0.50 0.69 0.96 1.32 1.64 1.89 1.91
0.16 0.17 0.25 0.44 0.56 0.62 0.69 0.66 0.64 0.68 0.68 0.61 0.54 0.46 0.37 0.32 0.34 0.41 0.51 0.55 0.50 0.45 0.33 0.25 0.24 0.22 0.19 0.18 0.23 0.25 0.29 0.37 0.50 0.70 0.94 1.23 1.51 1.72
0.16 0.15 0.19 0.32 0.42 0.49 0.47 0.41 0.43 0.56 0.72 0.74 0.69 0.61 0.52 0.42 0.42 0.43 0.48 0.56 0.56 0.62 0.53 0.43 0.34 0.29 0.24 0.26 0.28 0.25 0.27 0.31 0.38 0.50 0.71 0.93 1.18 1.43
0.16 0.13 0.10 0.18 0.31 0.41 0.31 0.32 0.40 0.51 0.69 0.77 0.82 0.75 0.62 0.55 0.53 0.56 0.57 0.53 0.57 0.75 0.71 0.67 0.61 0.44 0.36 0.33 0.32 0.27 0.26 0.28 0.33 0.39 0.53 0.70 0.88 1.14
0.14 0.13 0.08 0.09 0.20 0.20 0.14 0.22 0.28 0.39 0.51 0.62 0.62 0.56 0.50 0.55 0.64 0.70 0.74 0.67 0.69 0.92 0.90 0.78 0.88 0.79 0.69 0.57 0.48 0.38 0.30 0.28 0.30 0.35 0.42 0.54 0.69 0.97
0.10 0.09 0.11 0.11 0.12 0.10 0.08 0.13 0.24 0.30 0.31 0.34 0.36 0.34 0.34 0.40 0.56 0.77 0.96 0.91 0.84 1.01 1.11 0.91 0.99 0.94 1.04 0.99 0.71 0.49 0.38 0.36 0.35 0.37 0.39 0.42 0.53 0.70
0.08 0.10 0.08 0.08 0.05 0.04 0.04 0.09 0.23 0.20 0.17 0.22 0.24 0.26 0.29 0.36 0.51 0.70 0.92 1.07 1.04 1.05 1.15 1.04 1.12 0.92 0.86 1.04 0.94 0.70 0.47 0.39 0.38 0.44 0.45 0.45 0.46 0.46
0.08 0.08 0.04 0.03 0.01 0.01 0.01 0.04 0.06 0.05 0.07 0.10 0.13 0.18 0.25 0.35 0.47 0.62 0.79 0.99 1.13 1.11 1.05 0.99 1.10 0.95 0.64 0.64 0.81 0.83 0.62 0.48 0.39 0.39 0.41 0.55 0.59 0.53
0.15 0.13 0.02 0.01 0.00 0.00 0.00 0.01 0.01 0.02 0.04 0.07 0.10 0.16 0.23 0.33 0.37 0.43 0.53 0.71 0.88 0.95 0.96 0.98 1.05 1.03 0.74 0.54 0.55 0.64 0.66 0.66 0.52 0.42 0.41 0.44 0.46 0.46
0.09 0.05 0.00 0.00 0.00 0.00 0.00 0.00 0.00 0.01 0.04 0.06 0.09 0.11 0.13 0.17 0.24 0.34 0.41 0.51 0.67 0.86 0.97 1.07 1.20 1.21 1.03 0.71 0.53 0.50 0.48 0.62 0.65 0.49 0.42 0.43 0.42 0.34
0.06 0.01 0.00 0.00 0.00 0.00 0.00 0.00 0.00 0.00 0.01 0.03 0.05 0.07 0.09 0.12 0.18 0.27 0.37 0.44 0.57 0.75 0.92 1.15 1.32 1.34 1.33 1.11 0.79 0.62 0.47 0.45 0.53 0.48 0.39 0.43 0.52 0.43
0.01 0.01 0.00 0.00 0.00 0.00 0.00 0.00 0.00 0.00 0.00 0.01 0.03 0.05 0.09 0.13 0.16 0.21 0.29 0.39 0.52 0.66 0.75 0.93 1.15 1.24 1.41 1.53 1.21 0.78 0.54 0.47 0.52 0.50 0.39 0.36 0.53 0.55
0.00 0.01 0.01 0.01 0.01 0.01 0.00 0.00 0.00 0.00 0.00 0.00 0.02 0.03 0.06 0.09 0.13 0.16 0.22 0.31 0.43 0.57 0.69 0.75 0.87 1.01 1.19 1.51 1.64 1.13 0.66 0.50 0.54 0.64 0.57 0.40 0.41 0.54
0.01 0.02 0.02 0.01 0.01 0.01 0.01 0.00 0.00 0.00 0.00 0.00 0.00 0.01 0.03 0.06 0.09 0.13 0.17 0.26 0.36 0.48 0.59 0.66 0.78 0.92 0.98 1.04 1.21 1.34 1.09 0.66 0.49 0.61 0.72 0.61 0.53 0.61
0.02 0.02 0.03 0.03 0.02 0.01 0.01 0.01 0.00 0.00 0.00 0.00 0.00 0.00 0.01 0.03 0.06 0.09 0.13 0.19 0.26 0.37 0.48 0.59 0.74 0.82 0.91 0.88 0.87 1.04 1.19 1.07 0.66 0.50 0.56 0.58 0.56 0.56
0.02 0.03 0.03 0.03 0.03 0.02 0.01 0.01 0.01 0.00 0.00 0.00 0.00 0.00 0.00 0.01 0.03 0.06 0.09 0.13 0.19 0.30 0.42 0.53 0.62 0.71 0.86 0.94 0.98 0.96 1.04 1.16 1.09 0.82 0.57 0.42 0.33 0.34
0.05 0.05 0.04 0.04 0.04 0.03 0.02 0.01 0.01 0.00 0.00 0.00 0.00 0.00 0.00 0.00 0.01 0.03 0.05 0.09 0.13 0.19 0.29 0.42 0.53 0.62 0.81 0.95 0.99 0.93 0.86 0.91 0.93 0.87 0.88 0.72 0.45 0.29

GEFSNE_prec_meanprecacc_042.txt.gz
Total_Precipitation_Accumulation
0.14 0.16 0.19 0.16 0.17 0.20 0.23 0.32 0.43 0.31 0.08 0.02 0.02 0.03 0.08 0.13 0.13 0.12 0.10 0.13 0.17 0.19 0.20 0.23 0.28 0.44 0.72 1.17 1.69 2.53 3.05 2.67 1.88 1.32 1.13 1.25 1.46 1.53
0.18 0.20 0.20 0.21 0.23 0.25 0.26 0.25 0.31 0.37 0.22 0.03 0.02 0.04 0.09 0.16 0.17 0.13 0.12 0.13 0.14 0.15 0.15 0.16 0.19 0.28 0.46 0.75 1.12 1.63 2.44 2.86 2.58 2.01 1.49 1.42 1.45 1.55
0.17 0.22 0.23 0.25 0.31 0.33 0.36 0.34 0.29 0.30 0.28 0.07 0.02 0.04 0.12 0.20 0.19 0.14 0.14 0.13 0.11 0.13 0.14 0.15 0.15 0.20 0.32 0.50 0.72 1.02 1.58 2.28 2.66 2.61 2.15 1.76 1.57 1.46
0.20 0.24 0.27 0.29 0.34 0.38 0.45 0.45 0.38 0.32 0.32 0.18 0.05 0.04 0.12 0.22 0.26 0.20 0.17 0.15 0.11 0.12 0.14 0.15 0.17 0.20 0.25 0.35 0.50 0.70 1.02 1.53 2.06 2.41 2.43 2.04 1.77 1.64
0.24 0.29 0.34 0.37 0.35 0.39 0.48 0.52 0.46 0.38 0.35 0.28 0.12 0.06 0.10 0.22 0.31 0.29 0.25 0.23 0.17 0.14 0.15 0.16 0.18 0.22 0.25 0.28 0.38 0.51 0.67 0.85 1.25 1.81 2.33 2.36 2.07 1.92
0.18 0.22 0.33 0.47 0.51 0.54 0.54 0.52 0.53 0.50 0.44 0.36 0.23 0.14 0.12 0.21 0.34 0.38 0.34 0.30 0.26 0.21 0.18 0.17 0.19 0.22 0.23 0.23 0.23 0.32 0.49 0.74 0.99 1.38 1.81 2.21 2.25 2.13
0.15 0.17 0.29 0.49 0.64 0.79 0.80 0.69 0.64 0.64 0.56 0.48 0.39 0.29 0.23 0.26 0.34 0.41 0.45 0.41 0.38 0.32 0.23 0.19 0.19 0.19 0.19 0.24 0.27 0.29 0.37 0.51 0.70 0.97 1.34 1.68 1.99 2.13
0.18 0.18 0.26 0.45 0.57 0.63 0.71 0.71 0.72 0.75 0.74 0.66 0.58 0.48 0.37 0.32 0.34 0.41 0.51 0.56 0.51 0.45 0.33 0.25 0.25 0.22 0.19 0.18 0.23 0.26 0.30 0.38 0.52 0.71 0.96 1.26 1.58 1.88
0.17 0.16 0.20 0.32 0.43 0.50 0.51 0.47 0.46 0.58 0.75 0.81 0.74 0.62 0.53 0.43 0.43 0.44 0.49 0.57 0.56 0.62 0.54 0.43 0.34 0.29 0.25 0.26 0.29 0.25 0.28 0.33 0.39 0.52 0.73 0.95 1.23 1.53
0.16 0.14 0.10 0.19 0.32 0.44 0.43 0.37 0.41 0.52 0.71 0.82 0.88 0.80 0.66 0.58 0.57 0.60 0.59 0.54 0.57 0.76 0.72 0.68 0.61 0.44 0.37 0.34 0.33 0.27 0.27 0.30 0.34 0.41 0.55 0.72 0.92 1.21
0.14 0.13 0.08 0.09 0.22 0.28 0.20 0.23 0.28 0.41 0.53 0.65 0.66 0.61 0.54 0.59 0.70 0.77 0.77 0.68 0.70 0.92 0.92 0.80 0.89 0.80 0.71 0.59 0.49 0.39 0.31 0.30 0.33 0.38 0.45 0.56 0.73 1.04
0.10 0.09 0.11 0.12 0.16 0.15 0.09 0.14 0.28 0.35 0.33 0.35 0.37 0.35 0.35 0.41 0.57 0.80 0.98 0.93 0.86 1.03 1.14 0.94 1.01 0.98 1.09 1.03 0.73 0.51 0.39 0.39 0.38 0.40 0.42 0.45 0.57 0.77
0.08 0.10 0.08 0.11 0.09 0.06 0.05 0.11 0.29 0.24 0.18 0.23 0.26 0.27 0.29 0.37 0.52 0.71 0.94 1.10 1.06 1.07 1.20 1.09 1.17 0.97 0.93 1.10 0.98 0.73 0.49 0.42 0.42 0.48 0.50 0.49 0.50 0.51
0.08 0.09 0.06 0.06 0.03 0.02 0.02 0.06 0.08 0.07 0.08 0.12 0.15 0.20 0.27 0.36 0.49 0.63 0.81 1.02 1.15 1.14 1.10 1.06 1.18 1.04 0.74 0.74 0.87 0.88 0.66 0.53 0.44 0.44 0.46 0.60 0.65 0.60
0.16 0.13 0.03 0.01 0.01 0.00 0.01 0.01 0.02 0.03 0.06 0.09 0.14 0.19 0.26 0.36 0.40 0.46 0.56 0.74 0.92 1.00 1.01 1.04 1.14 1.15 0.87 0.66 0.64 0.70 0.72 0.74 0.59 0.50 0.48 0.49 0.52 0.53
0.10 0.05 0.00 0.00 0.00 0.00 0.00 0.00 0.00 0.02 0.07 0.10 0.14 0.16 0.16 0.20 0.28 0.39 0.46 0.56 0.72 0.92 1.03 1.14 1.30 1.35 1.16 0.83 0.63 0.59 0.56 0.72 0.75 0.60 0.52 0.50 0.48 0.41
0.07 0.01 0.00 0.00 0.00 0.00 0.00 0.00 0.00 0.00 0.02 0.05 0.09 0.12 0.13 0.16 0.22 0.31 0.43 0.51 0.64 0.83 1.00 1.24 1.46 1.50 1.48 1.24 0.92 0.73 0.57 0.57 0.66 0.60 0.52 0.54 0.61 0.52
0.02 0.01 0.00 0.01 0.01 0.01 0.01 0.01 0.00 0.00 0.01 0.03 0.06 0.10 0.14 0.18 0.21 0.24 0.34 0.46 0.61 0.76 0.85 1.05 1.32 1.44 1.59 1.69 1.37 0.93 0.67 0.61 0.70 0.67 0.54 0.49 0.65 0.67
0.00 0.01 0.01 0.02 0.02 0.02 0.02 0.02 0.01 0.00 0.00 0.01 0.04 0.07 0.10 0.14 0.18 0.21 0.27 0.37 0.51 0.67 0.80 0.90 1.07 1.26 1.42 1.73 1.83 1.32 0.84 0.69 0.77 0.89 0.77 0.54 0.52 0.66
0.01 0.02 0.02 0.02 0.03 0.03 0.02 0.02 0.01 0.01 0.00 0.01 0.02 0.04 0.06 0.10 0.14 0.17 0.22 0.32 0.42 0.56 0.69 0.80 0.97 1.15 1.23 1.29 1.42 1.53 1.34 0.92 0.75 0.89 0.96 0.79 0.68 0.80
0.02 0.02 0.03 0.04 0.04 0.03 0.03 0.02 0.02 0.01 0.01 0.01 0.01 0.01 0.03 0.05 0.09 0.13 0.17 0.24 0.31 0.44 0.56 0.71 0.90 1.02 1.14 1.10 1.07 1.24 1.45 1.43 1.00 0.78 0.81 0.78 0.76 0.83
0.03 0.03 0.04 0.04 0.05 0.04 0.03 0.03 0.02 0.01 0.01 0.01 0.00 0.01 0.01 0.02 0.05 0.09 0.12 0.17 0.24 0.36 0.49 0.63 0.74 0.87 1.05 1.15 1.19 1.17 1.29 1.52 1.49 1.20 0.91 0.65 0.48 0.50
0.05 0.05 0.05 0.05 0.05 0.05 0.04 0.03 0.02 0.01 0.01 0.01 0.00 0.00 0.00 0.01 0.02 0.04 0.08 0.12 0.17 0.25 0.36 0.51 0.64 0.77 1.01 1.19 1.22 1.14 1.13 1.26 1.30 1.23 1.28 1.04 0.63 0.39

GEFSNE_prec_meanprecacc_048.txt.gz
Total_Precipitation_Accumulation
0.14 0.16 0.19 0.16 0.17 0.20 0.24 0.34 0.49 0.35 0.09 0.02 0.02 0.03 0.08 0.13 0.13 0.12 0.11 0.13 0.18 0.21 0.25 0.28 0.33 0.49 0.77 1.21 1.74 2.58 3.11 2.72 1.92 1.35 1.16 1.31 1.59 1.93
0.18 0.20 0.20 0.21 0.23 0.26 0.27 0.28 0.35 0.43 0.25 0.03 0.02 0.04 0.09 0.16 0.17 0.13 0.13 0.14 0.15 0.16 0.17 0.18 0.22 0.32 0.51 0.80 1.16 1.66 2.47 2.89 2.60 2.03 1.52 1.45 1.53 1.79
0.17 0.22 0.23 0.25 0.33 0.35 0.37 0.36 0.31 0.34 0.32 0.08 0.02 0.04 0.12 0.20 0.19 0.14 0.14 0.13 0.11 0.13 0.15 0.16 0.17 0.23 0.35 0.53 0.75 1.05 1.60 2.29 2.67 2.62 2.17 1.79 1.62 1.58
0.20 0.24 0.27 0.30 0.35 0.39 0.47 0.47 0.39 0.33 0.35 0.21 0.05 0.04 0.12 0.22 0.26 0.20 0.17 0.15 0.11 0.12 0.14 0.16 0.18 0.21 0.27 0.37 0.52 0.72 1.03 1.54 2.06 2.42 2.44 2.05 1.79 1.72
0.24 0.30 0.34 0.38 0.36 0.40 0.49 0.53 0.47 0.40 0.37 0.31 0.14 0.06 0.10 0.22 0.32 0.29 0.25 0.23 0.17 0.14 0.15 0.16 0.19 0.22 0.26 0.29 0.39 0.52 0.68 0.86 1.25 1.81 2.33 2.36 2.09 1.96
0.19 0.23 0.35 0.48 0.52 0.56 0.56 0.54 0.55 0.53 0.47 0.39 0.26 0.15 0.13 0.21 0.35 0.39 0.34 0.30 0.26 0.21 0.18 0.17 0.19 0.23 0.24 0.24 0.24 0.33 0.50 0.75 1.00 1.38 1.82 2.21 2.26 2.15
0.16 0.19 0.30 0.50 0.65 0.81 0.84 0.73 0.69 0.70 0.63 0.55 0.45 0.33 0.25 0.28 0.36 0.42 0.46 0.41 0.39 0.32 0.24 0.19 0.19 0.19 0.19 0.24 0.27 0.30 0.37 0.51 0.70 0.98 1.34 1.68 1.99 2.14
0.19 0.18 0.26 0.45 0.58 0.64 0.72 0.72 0.75 0.85 0.87 0.77 0.65 0.52 0.40 0.34 0.36 0.43 0.53 0.57 0.52 0.45 0.34 0.26 0.25 0.23 0.19 0.18 0.23 0.26 0.30 0.39 0.52 0.71 0.96 1.26 1.59 1.88
0.17 0.16 0.20 0.32 0.43 0.50 0.52 0.49 0.50 0.61 0.80 0.86 0.80 0.65 0.55 0.44 0.45 0.47 0.50 0.59 0.57 0.63 0.55 0.44 0.34 0.29 0.25 0.26 0.29 0.26 0.28 0.33 0.39 0.52 0.73 0.96 1.23 1.54
0.16 0.14 0.10 0.19 0.32 0.46 0.53 0.47 0.44 0.53 0.72 0.85 0.94 0.85 0.71 0.65 0.67 0.68 0.65 0.57 0.59 0.76 0.74 0.70 0.61 0.44 0.37 0.34 0.33 0.27 0.27 0.30 0.35 0.42 0.55 0.73 0.93 1.22
0.14 0.13 0.08 0.09 0.23 0.33 0.30 0.27 0.29 0.41 0.54 0.67 0.69 0.65 0.60 0.66 0.79 0.88 0.84 0.72 0.72 0.93 0.93 0.82 0.90 0.81 0.72 0.59 0.49 0.39 0.31 0.30 0.33 0.38 0.45 0.57 0.74 1.05
0.10 0.09 0.11 0.13 0.19 0.19 0.13 0.16 0.29 0.37 0.36 0.36 0.37 0.36 0.36 0.42 0.60 0.85 1.03 0.96 0.87 1.03 1.15 0.96 1.03 1.00 1.10 1.03 0.73 0.51 0.39 0.39 0.39 0.40 0.43 0.46 0.59 0.78
0.09 0.10 0.08 0.12 0.12 0.09 0.07 0.12 0.32 0.28 0.20 0.24 0.26 0.28 0.30 0.38 0.54 0.73 0.96 1.14 1.09 1.08 1.20 1.11 1.18 1.00 0.96 1.11 0.99 0.73 0.49 0.42 0.42 0.48 0.51 0.50 0.52 0.53
0.09 0.09 0.06 0.07 0.05 0.03 0.02 0.07 0.10 0.08 0.09 0.13 0.16 0.21 0.29 0.38 0.50 0.65 0.83 1.04 1.18 1.15 1.10 1.07 1.19 1.05 0.76 0.75 0.88 0.89 0.66 0.53 0.44 0.44 0.47 0.61 0.67 0.62
0.16 0.14 0.04 0.02 0.01 0.00 0.01 0.02 0.02 0.03 0.07 0.10 0.15 0.20 0.28 0.38 0.42 0.48 0.57 0.76 0.93 1.01 1.02 1.05 1.16 1.17 0.89 0.67 0.64 0.71 0.73 0.75 0.60 0.51 0.49 0.51 0.53 0.55
0.10 0.06 0.00 0.00 0.00 0.00 0.00 0.00 0.00 0.03 0.07 0.11 0.16 0.17 0.18 0.22 0.31 0.42 0.49 0.58 0.74 0.93 1.04 1.15 1.32 1.37 1.18 0.84 0.64 0.59 0.57 0.74 0.77 0.61 0.54 0.53 0.50 0.43
0.07 0.02 0.00 0.00 0.00 0.00 0.00 0.00 0.00 0.01 0.02 0.06 0.10 0.13 0.15 0.18 0.25 0.34 0.47 0.55 0.67 0.85 1.01 1.26 1.47 1.52 1.49 1.25 0.93 0.74 0.58 0.58 0.67 0.62 0.56 0.58 0.65 0.55
0.02 0.01 0.00 0.01 0.01 0.01 0.01 0.01 0.00 0.01 0.01 0.04 0.07 0.11 0.17 0.21 0.24 0.27 0.38 0.51 0.65 0.79 0.88 1.08 1.35 1.48 1.62 1.71 1.38 0.94 0.69 0.63 0.73 0.70 0.58 0.55 0.70 0.72
0.00 0.01 0.01 0.02 0.02 0.02 0.02 0.02 0.02 0.01 0.01 0.02 0.05 0.09 0.13 0.17 0.21 0.24 0.31 0.43 0.56 0.72 0.85 0.95 1.12 1.31 1.46 1.75 1.84 1.34 0.86 0.72 0.81 0.93 0.83 0.60 0.57 0.70
0.01 0.02 0.03 0.03 0.03 0.03 0.03 0.03 0.02 0.01 0.01 0.01 0.02 0.05 0.09 0.13 0.17 0.21 0.28 0.39 0.49 0.62 0.75 0.87 1.05 1.22 1.28 1.33 1.45 1.56 1.37 0.96 0.80 0.95 1.02 0.86 0.76 0.87
0.02 0.02 0.03 0.04 0.04 0.04 0.03 0.03 0.02 0.02 0.01 0.01 0.01 0.02 0.05 0.08 0.13 0.17 0.23 0.30 0.38 0.50 0.63 0.77 0.98 1.11 1.21 1.17 1.13 1.29 1.50 1.49 1.06 0.85 0.89 0.90 0.90 0.98
0.03 0.03 0.04 0.04 0.05 0.05 0.04 0.03 0.03 0.02 0.01 0.01 0.01 0.01 0.02 0.05 0.09 0.13 0.18 0.24 0.31 0.43 0.56 0.71 0.85 0.98 1.14 1.23 1.26 1.23 1.37 1.59 1.57 1.30 1.05 0.82 0.64 0.64
0.05 0.05 0.05 0.06 0.06 0.06 0.05 0.04 0.03 0.02 0.01 0.01 0.01 0.01 0.01 0.02 0.05 0.09 0.14 0.19 0.25 0.33 0.45 0.62 0.78 0.90 1.11 1.27 1.30 1.23 1.23 1.37 1.41 1.36 1.44 1.25 0.81 0.50

GEFSNE_prec_meanprecacc_054.txt.gz
Total_Precipitation_Accumulation
0.14 0.16 0.19 0.16 0.17 0.20 0.24 0.35 0.51 0.37 0.09 0.02 0.02 0.03 0.08 0.13 0.13 0.12 0.11 0.13 0.19 0.23 0.27 0.30 0.37 0.52 0.82 1.28 1.83 2.71 3.27 2.91 2.12 1.54 1.33 1.45 1.72 2.08
0.18 0.20 0.20 0.21 0.23 0.26 0.28 0.28 0.37 0.46 0.27 0.03 0.02 0.04 0.09 0.16 0.17 0.13 0.13 0.14 0.16 0.17 0.19 0.20 0.24 0.34 0.53 0.83 1.21 1.75 2.60 3.05 2.79 2.23 1.70 1.61 1.67 1.93
0.17 0.22 0.23 0.25 0.33 0.35 0.38 0.37 0.33 0.36 0.36 0.08 0.02 0.04 0.12 0.20 0.19 0.14 0.14 0.13 0.11 0.13 0.15 0.17 0.19 0.25 0.37 0.56 0.78 1.10 1.69 2.42 2.83 2.80 2.35 1.95 1.76 1.72
0.20 0.24 0.27 0.30 0.35 0.40 0.47 0.48 0.40 0.35 0.39 0.23 0.06 0.04 0.12 0.22 0.26 0.20 0.17 0.15 0.11 0.12 0.15 0.17 0.20 0.24 0.29 0.40 0.54 0.75 1.08 1.61 2.17 2.54 2.58 2.19 1.92 1.84
0.24 0.30 0.34 0.38 0.36 0.40 0.50 0.54 0.48 0.40 0.39 0.34 0.15 0.07 0.10 0.22 0.32 0.29 0.25 0.23 0.17 0.14 0.15 0.17 0.20 0.24 0.27 0.31 0.41 0.54 0.71 0.90 1.31 1.89 2.43 2.47 2.19 2.06
0.19 0.23 0.35 0.48 0.53 0.56 0.57 0.55 0.57 0.56 0.49 0.43 0.28 0.16 0.14 0.22 0.37 0.41 0.35 0.31 0.27 0.22 0.19 0.17 0.20 0.24 0.25 0.25 0.26 0.35 0.52 0.77 1.03 1.43 1.88 2.28 2.33 2.22
0.17 0.19 0.30 0.50 0.66 0.83 0.88 0.77 0.74 0.77 0.69 0.61 0.50 0.37 0.28 0.31 0.40 0.45 0.49 0.43 0.39 0.33 0.24 0.19 0.19 0.19 0.20 0.24 0.28 0.31 0.39 0.53 0.72 1.01 1.38 1.73 2.04 2.18
0.19 0.18 0.26 0.46 0.58 0.65 0.74 0.75 0.79 0.90 0.94 0.85 0.72 0.57 0.43 0.36 0.39 0.47 0.57 0.60 0.53 0.46 0.34 0.26 0.25 0.23 0.20 0.19 0.23 0.26 0.31 0.39 0.53 0.73 0.99 1.29 1.61 1.91
0.17 0.16 0.20 0.33 0.43 0.50 0.52 0.50 0.51 0.63 0.83 0.92 0.86 0.68 0.57 0.46 0.49 0.51 0.54 0.62 0.60 0.64 0.57 0.46 0.35 0.30 0.25 0.26 0.29 0.26 0.29 0.33 0.40 0.53 0.74 0.97 1.24 1.55
0.16 0.14 0.10 0.19 0.32 0.46 0.54 0.49 0.46 0.54 0.73 0.86 0.96 0.88 0.75 0.71 0.77 0.79 0.73 0.62 0.61 0.77 0.76 0.74 0.62 0.45 0.37 0.34 0.33 0.28 0.27 0.30 0.35 0.42 0.56 0.73 0.93 1.22
0.15 0.13 0.08 0.09 0.23 0.34 0.32 0.31 0.31 0.42 0.54 0.68 0.71 0.68 0.63 0.70 0.85 0.98 0.91 0.77 0.74 0.93 0.95 0.86 0.92 0.82 0.72 0.59 0.49 0.40 0.32 0.30 0.33 0.38 0.45 0.57 0.74 1.05
0.10 0.09 0.11 0.13 0.20 0.21 0.16 0.19 0.31 0.38 0.37 0.37 0.38 0.36 0.37 0.43 0.62 0.91 1.09 1.02 0.90 1.05 1.16 0.99 1.05 1.04 1.13 1.05 0.76 0.53 0.40 0.40 0.39 0.40 0.43 0.47 0.59 0.78
0.09 0.10 0.08 0.13 0.13 0.10 0.09 0.14 0.33 0.30 0.23 0.25 0.27 0.28 0.30 0.39 0.55 0.76 1.01 1.20 1.14 1.11 1.21 1.14 1.21 1.03 1.00 1.15 1.02 0.76 0.51 0.43 0.43 0.48 0.51 0.51 0.52 0.54
0.09 0.09 0.06 0.08 0.05 0.04 0.04 0.08 0.11 0.09 0.09 0.13 0.16 0.21 0.29 0.38 0.51 0.67 0.86 1.09 1.23 1.18 1.12 1.10 1.22 1.08 0.79 0.78 0.92 0.92 0.69 0.55 0.46 0.45 0.47 0.62 0.67 0.63
0.16 0.14 0.04 0.03 0.02 0.01 0.01 0.02 0.02 0.03 0.07 0.10 0.15 0.20 0.29 0.39 0.44 0.50 0.60 0.79 0.96 1.03 1.05 1.08 1.19 1.19 0.92 0.70 0.68 0.75 0.76 0.77 0.62 0.52 0.50 0.51 0.54 0.56
0.11 0.06 0.01 0.00 0.00 0.00 0.00 0.00 0.00 0.03 0.07 0.11 0.16 0.18 0.18 0.23 0.32 0.44 0.52 0.61 0.77 0.95 1.06 1.18 1.34 1.40 1.20 0.86 0.67 0.62 0.60 0.76 0.79 0.64 0.55 0.54 0.51 0.44
0.08 0.02 0.00 0.00 0.00 0.00 0.00 0.00 0.00 0.01 0.02 0.06 0.10 0.13 0.16 0.19 0.26 0.36 0.50 0.58 0.70 0.87 1.03 1.28 1.50 1.55 1.52 1.27 0.95 0.75 0.59 0.59 0.69 0.64 0.58 0.60 0.66 0.56
0.03 0.01 0.01 0.01 0.01 0.01 0.01 0.01 0.00 0.01 0.01 0.04 0.07 0.12 0.17 0.22 0.25 0.29 0.41 0.55 0.68 0.82 0.91 1.11 1.39 1.52 1.66 1.73 1.39 0.95 0.69 0.64 0.74 0.72 0.60 0.57 0.72 0.72
0.01 0.01 0.01 0.02 0.02 0.02 0.02 0.02 0.02 0.01 0.01 0.02 0.05 0.09 0.14 0.19 0.23 0.27 0.34 0.46 0.60 0.75 0.88 0.98 1.16 1.35 1.49 1.76 1.84 1.34 0.86 0.72 0.82 0.95 0.84 0.62 0.58 0.71
0.01 0.02 0.03 0.03 0.03 0.04 0.03 0.03 0.02 0.01 0.01 0.01 0.03 0.05 0.09 0.15 0.20 0.24 0.31 0.43 0.52 0.65 0.79 0.91 1.08 1.25 1.31 1.35 1.47 1.57 1.38 0.97 0.80 0.95 1.03 0.88 0.78 0.89
0.02 0.03 0.03 0.04 0.04 0.04 0.04 0.03 0.03 0.02 0.01 0.01 0.02 0.03 0.05 0.10 0.15 0.20 0.27 0.34 0.42 0.53 0.65 0.80 1.00 1.14 1.25 1.20 1.15 1.29 1.50 1.49 1.06 0.85 0.91 0.92 0.93 1.01
0.03 0.04 0.04 0.04 0.05 0.05 0.04 0.04 0.03 0.02 0.02 0.01 0.01 0.02 0.03 0.06 0.11 0.16 0.23 0.28 0.35 0.46 0.59 0.74 0.88 1.02 1.18 1.26 1.28 1.24 1.37 1.59 1.57 1.30 1.06 0.84 0.66 0.67
0.06 0.05 0.05 0.06 0.06 0.06 0.05 0.04 0.03 0.02 0.02 0.02 0.01 0.01 0.02 0.03 0.06 0.12 0.19 0.25 0.30 0.37 0.49 0.66 0.83 0.95 1.14 1.30 1.32 1.25 1.24 1.37 1.42 1.37 1.45 1.25 0.82 0.51

GEFSNE_prec_meanprecacc_060.txt.gz
Total_Precipitation_Accumulation
0.14 0.16 0.19 0.17 0.17 0.20 0.24 0.35 0.51 0.37 0.09 0.02 0.02 0.03 0.08 0.13 0.13 0.12 0.11 0.13 0.19 0.23 0.27 0.31 0.38 0.54 0.84 1.31 1.86 2.74 3.31 2.95 2.16 1.59 1.39 1.53 1.82 2.20
0.18 0.20 0.21 0.21 0.24 0.26 0.28 0.28 0.37 0.46 0.27 0.03 0.02 0.04 0.09 0.16 0.17 0.13 0.13 0.14 0.16 0.17 0.19 0.20 0.25 0.35 0.55 0.86 1.24 1.78 2.64 3.09 2.84 2.28 1.77 1.71 1.78 2.06
0.18 0.22 0.24 0.26 0.33 0.35 0.38 0.37 0.33 0.37 0.36 0.09 0.02 0.04 0.12 0.20 0.19 0.14 0.14 0.13 0.11 0.13 0.15 0.17 0.20 0.26 0.39 0.59 0.82 1.14 1.73 2.46 2.88 2.86 2.43 2.06 1.90 1.87
0.21 0.25 0.28 0.30 0.36 0.40 0.47 0.48 0.40 0.35 0.39 0.23 0.06 0.04 0.12 0.22 0.26 0.20 0.17 0.15 0.11 0.12 0.15 0.18 0.22 0.26 0.32 0.43 0.59 0.80 1.13 1.66 2.21 2.60 2.65 2.29 2.05 1.99
0.25 0.31 0.35 0.39 0.38 0.40 0.50 0.54 0.48 0.40 0.39 0.35 0.15 0.07 0.10 0.22 0.32 0.29 0.25 0.23 0.17 0.14 0.15 0.17 0.21 0.25 0.29 0.34 0.45 0.59 0.75 0.94 1.36 1.94 2.48 2.53 2.28 2.17
0.19 0.24 0.36 0.49 0.54 0.57 0.58 0.56 0.57 0.56 0.50 0.44 0.29 0.17 0.14 0.22 0.37 0.42 0.36 0.32 0.27 0.22 0.19 0.17 0.20 0.24 0.27 0.27 0.28 0.38 0.55 0.81 1.07 1.48 1.93 2.33 2.40 2.31
0.17 0.19 0.31 0.51 0.67 0.84 0.89 0.78 0.75 0.78 0.71 0.63 0.52 0.38 0.29 0.32 0.41 0.46 0.50 0.43 0.40 0.33 0.24 0.19 0.19 0.19 0.20 0.24 0.28 0.31 0.40 0.55 0.74 1.03 1.42 1.77 2.10 2.27
0.20 0.19 0.27 0.47 0.60 0.67 0.76 0.76 0.81 0.93 0.98 0.89 0.75 0.59 0.44 0.37 0.40 0.48 0.58 0.62 0.54 0.46 0.35 0.27 0.25 0.23 0.20 0.19 0.23 0.26 0.32 0.41 0.55 0.75 1.01 1.32 1.65 1.97
0.19 0.18 0.21 0.33 0.44 0.52 0.54 0.52 0.54 0.66 0.86 0.95 0.89 0.70 0.58 0.47 0.50 0.53 0.55 0.64 0.61 0.64 0.58 0.47 0.35 0.30 0.25 0.27 0.29 0.27 0.30 0.36 0.42 0.55 0.77 1.00 1.27 1.59
0.17 0.15 0.12 0.20 0.33 0.48 0.55 0.51 0.48 0.55 0.74 0.88 0.98 0.89 0.76 0.72 0.79 0.83 0.78 0.67 0.63 0.78 0.77 0.76 0.63 0.45 0.37 0.34 0.34 0.29 0.29 0.32 0.38 0.45 0.59 0.76 0.96 1.26
0.16 0.14 0.10 0.11 0.24 0.36 0.36 0.34 0.32 0.43 0.55 0.69 0.73 0.69 0.65 0.73 0.89 1.03 0.97 0.81 0.76 0.94 0.95 0.87 0.92 0.82 0.73 0.60 0.50 0.41 0.33 0.33 0.36 0.41 0.49 0.60 0.77 1.08
0.12 0.12 0.12 0.15 0.21 0.23 0.20 0.23 0.33 0.39 0.38 0.38 0.38 0.37 0.37 0.43 0.63 0.92 1.11 1.05 0.92 1.06 1.16 1.00 1.07 1.06 1.16 1.06 0.77 0.55 0.43 0.42 0.41 0.43 0.46 0.50 0.62 0.81
0.13 0.13 0.10 0.14 0.15 0.14 0.13 0.18 0.35 0.31 0.24 0.26 0.28 0.28 0.31 0.39 0.55 0.76 1.02 1.23 1.18 1.13 1.22 1.17 1.26 1.06 1.04 1.17 1.03 0.77 0.53 0.45 0.44 0.50 0.52 0.53 0.55 0.57
0.12 0.11 0.07 0.09 0.08 0.07 0.07 0.11 0.14 0.11 0.11 0.15 0.17 0.22 0.29 0.38 0.51 0.67 0.87 1.10 1.25 1.21 1.13 1.13 1.29 1.12 0.84 0.82 0.94 0.94 0.70 0.57 0.48 0.47 0.48 0.63 0.69 0.65
0.20 0.16 0.06 0.04 0.04 0.03 0.04 0.05 0.05 0.06 0.09 0.11 0.16 0.21 0.29 0.39 0.44 0.50 0.60 0.79 0.97 1.04 1.06 1.11 1.25 1.24 0.98 0.75 0.70 0.77 0.79 0.80 0.65 0.56 0.53 0.54 0.55 0.57
0.18 0.10 0.04 0.04 0.03 0.02 0.01 0.02 0.02 0.04 0.08 0.12 0.16 0.18 0.18 0.23 0.32 0.44 0.53 0.62 0.79 0.95 1.07 1.20 1.39 1.47 1.27 0.90 0.70 0.65 0.63 0.80 0.82 0.68 0.59 0.56 0.53 0.45
0.16 0.12 0.08 0.06 0.05 0.03 0.01 0.01 0.01 0.01 0.03 0.06 0.10 0.13 0.16 0.19 0.26 0.36 0.51 0.59 0.72 0.89 1.04 1.29 1.52 1.59 1.56 1.32 1.00 0.78 0.61 0.62 0.72 0.69 0.63 0.64 0.68 0.57
0.11 0.11 0.07 0.05 0.04 0.03 0.02 0.02 0.01 0.01 0.01 0.04 0.08 0.12 0.18 0.23 0.26 0.30 0.42 0.57 0.71 0.84 0.93 1.13 1.41 1.56 1.69 1.75 1.42 0.98 0.72 0.67 0.78 0.78 0.66 0.61 0.74 0.73
0.10 0.07 0.04 0.04 0.04 0.03 0.03 0.03 0.02 0.01 0.01 0.02 0.05 0.10 0.14 0.19 0.24 0.28 0.36 0.49 0.62 0.77 0.90 1.01 1.19 1.40 1.54 1.79 1.86 1.36 0.92 0.77 0.87 1.01 0.90 0.66 0.61 0.72
0.08 0.06 0.05 0.05 0.04 0.04 0.04 0.04 0.02 0.01 0.01 0.01 0.03 0.06 0.10 0.15 0.20 0.25 0.33 0.45 0.56 0.68 0.81 0.93 1.12 1.30 1.37 1.39 1.50 1.59 1.41 1.02 0.86 1.02 1.09 0.93 0.81 0.91
0.06 0.05 0.05 0.06 0.05 0.05 0.04 0.04 0.03 0.02 0.01 0.02 0.02 0.03 0.06 0.11 0.16 0.21 0.28 0.37 0.45 0.56 0.68 0.82 1.02 1.18 1.30 1.24 1.18 1.30 1.52 1.52 1.10 0.91 0.96 0.98 0.98 1.05
0.06 0.06 0.05 0.06 0.06 0.06 0.05 0.04 0.03 0.02 0.02 0.02 0.02 0.02 0.04 0.07 0.12 0.18 0.25 0.32 0.39 0.50 0.63 0.76 0.90 1.05 1.22 1.30 1.30 1.25 1.39 1.61 1.60 1.33 1.09 0.88 0.73 0.73
0.08 0.07 0.06 0.07 0.07 0.06 0.05 0.04 0.04 0.03 0.02 0.02 0.02 0.02 0.03 0.05 0.08 0.14 0.21 0.28 0.34 0.41 0.53 0.69 0.85 0.98 1.18 1.33 1.35 1.27 1.26 1.39 1.44 1.39 1.46 1.27 0.85 0.54

GEFSNE_prec_meanprecacc_066.txt.gz
Total_Precipitation_Accumulation
0.14 0.16 0.19 0.17 0.17 0.20 0.24 0.35 0.51 0.37 0.09 0.02 0.02 0.03 0.08 0.13 0.13 0.12 0.11 0.13 0.19 0.23 0.27 0.31 0.38 0.55 0.85 1.32 1.87 2.75 3.33 2.97 2.18 1.61 1.41 1.56 1.86 2.23
0.18 0.20 0.21 0.21 0.24 0.26 0.28 0.29 0.37 0.46 0.27 0.03 0.02 0.04 0.09 0.16 0.17 0.13 0.13 0.14 0.16 0.17 0.19 0.20 0.25 0.35 0.56 0.87 1.25 1.80 2.66 3.11 2.86 2.31 1.81 1.75 1.83 2.11
0.18 0.22 0.24 0.26 0.33 0.35 0.38 0.37 0.33 0.37 0.37 0.09 0.02 0.04 0.12 0.20 0.19 0.14 0.14 0.13 0.11 0.13 0.15 0.17 0.20 0.26 0.40 0.60 0.83 1.16 1.75 2.49 2.91 2.90 2.47 2.11 1.94 1.92
0.21 0.25 0.28 0.30 0.36 0.40 0.48 0.49 0.41 0.35 0.39 0.24 0.06 0.04 0.12 0.23 0.26 0.20 0.17 0.15 0.11 0.12 0.15 0.18 0.22 0.26 0.33 0.45 0.60 0.82 1.15 1.69 2.24 2.63 2.68 2.32 2.09 2.03
0.25 0.31 0.35 0.39 0.38 0.41 0.51 0.55 0.49 0.41 0.40 0.35 0.16 0.07 0.10 0.22 0.32 0.30 0.25 0.23 0.17 0.14 0.15 0.17 0.21 0.26 0.30 0.35 0.46 0.60 0.77 0.96 1.38 1.96 2.51 2.56 2.32 2.21
0.19 0.24 0.36 0.49 0.54 0.58 0.59 0.57 0.58 0.57 0.51 0.45 0.30 0.17 0.15 0.22 0.38 0.43 0.36 0.32 0.27 0.22 0.19 0.17 0.20 0.24 0.27 0.28 0.29 0.38 0.56 0.81 1.08 1.49 1.95 2.35 2.42 2.34
0.17 0.19 0.31 0.51 0.67 0.85 0.90 0.79 0.77 0.81 0.73 0.65 0.54 0.39 0.29 0.32 0.42 0.47 0.51 0.43 0.40 0.33 0.24 0.19 0.19 0.19 0.20 0.24 0.28 0.31 0.40 0.55 0.75 1.04 1.43 1.79 2.12 2.29
0.20 0.20 0.27 0.47 0.60 0.68 0.78 0.79 0.83 0.96 1.00 0.91 0.76 0.61 0.44 0.37 0.40 0.49 0.60 0.63 0.55 0.46 0.35 0.27 0.25 0.23 0.20 0.19 0.23 0.27 0.32 0.42 0.56 0.77 1.03 1.34 1.68 2.00
0.19 0.18 0.22 0.34 0.45 0.53 0.56 0.56 0.60 0.73 0.92 1.00 0.93 0.71 0.58 0.47 0.51 0.56 0.58 0.66 0.62 0.64 0.58 0.48 0.35 0.30 0.25 0.27 0.29 0.27 0.31 0.36 0.44 0.57 0.79 1.03 1.30 1.63
0.17 0.15 0.12 0.20 0.33 0.49 0.58 0.54 0.51 0.59 0.81 0.98 1.10 0.95 0.78 0.73 0.81 0.86 0.82 0.71 0.66 0.78 0.78 0.77 0.63 0.45 0.37 0.34 0.34 0.29 0.29 0.33 0.39 0.46 0.61 0.79 0.99 1.29
0.16 0.14 0.10 0.12 0.24 0.38 0.41 0.38 0.34 0.44 0.56 0.73 0.81 0.78 0.71 0.77 0.93 1.11 1.07 0.89 0.81 0.94 0.95 0.88 0.93 0.82 0.73 0.60 0.50 0.41 0.33 0.33 0.37 0.43 0.51 0.63 0.81 1.12
0.13 0.12 0.13 0.16 0.22 0.26 0.26 0.29 0.36 0.40 0.38 0.40 0.41 0.41 0.43 0.49 0.69 0.99 1.19 1.11 0.96 1.08 1.16 1.00 1.07 1.06 1.17 1.06 0.77 0.55 0.43 0.42 0.42 0.44 0.47 0.51 0.65 0.84
0.13 0.14 0.10 0.15 0.18 0.17 0.18 0.23 0.38 0.32 0.25 0.28 0.30 0.30 0.32 0.41 0.57 0.79 1.05 1.27 1.21 1.15 1.22 1.17 1.26 1.07 1.06 1.18 1.03 0.77 0.53 0.45 0.44 0.50 0.53 0.53 0.56 0.59
0.13 0.12 0.08 0.10 0.10 0.11 0.14 0.19 0.20 0.18 0.19 0.21 0.20 0.23 0.30 0.39 0.52 0.68 0.88 1.11 1.26 1.21 1.13 1.14 1.31 1.14 0.87 0.84 0.94 0.94 0.70 0.57 0.48 0.47 0.48 0.63 0.69 0.66
0.21 0.17 0.07 0.06 0.07 0.06 0.09 0.12 0.14 0.16 0.20 0.20 0.19 0.21 0.29 0.39 0.44 0.51 0.60 0.80 0.98 1.05 1.06 1.11 1.27 1.27 1.02 0.79 0.72 0.77 0.79 0.80 0.65 0.56 0.53 0.55 0.56 0.58
0.20 0.13 0.08 0.08 0.07 0.05 0.04 0.05 0.08 0.11 0.15 0.18 0.19 0.19 0.19 0.24 0.33 0.45 0.53 0.62 0.79 0.96 1.07 1.20 1.39 1.49 1.31 0.93 0.73 0.66 0.63 0.81 0.83 0.69 0.61 0.59 0.55 0.47
0.18 0.16 0.12 0.11 0.11 0.09 0.06 0.04 0.03 0.05 0.08 0.11 0.14 0.16 0.17 0.20 0.26 0.36 0.51 0.60 0.73 0.89 1.05 1.29 1.53 1.60 1.58 1.35 1.04 0.80 0.62 0.63 0.73 0.71 0.67 0.69 0.70 0.59
0.17 0.17 0.12 0.09 0.09 0.08 0.07 0.05 0.03 0.03 0.03 0.06 0.10 0.14 0.19 0.23 0.26 0.30 0.43 0.57 0.72 0.85 0.93 1.13 1.42 1.57 1.71 1.77 1.43 1.00 0.74 0.69 0.81 0.81 0.71 0.67 0.78 0.75
0.17 0.12 0.08 0.07 0.07 0.07 0.06 0.05 0.04 0.02 0.02 0.04 0.07 0.11 0.15 0.20 0.24 0.28 0.36 0.49 0.63 0.78 0.91 1.01 1.21 1.45 1.59 1.81 1.86 1.37 0.94 0.80 0.90 1.05 0.94 0.71 0.65 0.74
0.12 0.10 0.08 0.07 0.07 0.07 0.06 0.06 0.04 0.03 0.03 0.03 0.04 0.06 0.10 0.16 0.21 0.26 0.33 0.46 0.57 0.69 0.82 0.94 1.14 1.34 1.43 1.43 1.53 1.60 1.42 1.06 0.91 1.07 1.12 0.96 0.84 0.92
0.08 0.08 0.08 0.08 0.07 0.07 0.06 0.05 0.05 0.03 0.03 0.02 0.03 0.04 0.06 0.11 0.17 0.22 0.29 0.38 0.47 0.58 0.70 0.83 1.03 1.20 1.35 1.31 1.22 1.31 1.52 1.53 1.14 0.98 1.04 1.04 1.03 1.08
0.07 0.08 0.07 0.08 0.08 0.07 0.06 0.06 0.05 0.03 0.03 0.02 0.02 0.02 0.04 0.08 0.14 0.19 0.26 0.33 0.40 0.51 0.64 0.77 0.91 1.07 1.27 1.37 1.34 1.26 1.39 1.61 1.60 1.36 1.15 0.96 0.81 0.79
0.10 0.09 0.08 0.08 0.08 0.08 0.07 0.06 0.05 0.03 0.03 0.03 0.03 0.02 0.03 0.05 0.09 0.15 0.22 0.29 0.36 0.43 0.54 0.71 0.86 1.00 1.22 1.38 1.39 1.29 1.27 1.40 1.45 1.40 1.49 1.29 0.88 0.59

GEFSNE_prec_meanprecacc_072.txt.gz
Total_Precipitation_Accumulation
0.14 0.16 0.19 0.17 0.17 0.20 0.24 0.35 0.51 0.37 0.09 0.02 0.02 0.03 0.08 0.13 0.13 0.12 0.11 0.13 0.19 0.23 0.27 0.31 0.38 0.55 0.85 1.32 1.88 2.76 3.33 2.97 2.19 1.62 1.42 1.58 1.88 2.25
0.18 0.20 0.21 0.21 0.24 0.26 0.28 0.29 0.37 0.46 0.27 0.03 0.02 0.04 0.09 0.16 0.17 0.13 0.13 0.14 0.16 0.18 0.19 0.21 0.25 0.36 0.56 0.87 1.26 1.80 2.66 3.12 2.87 2.32 1.83 1.77 1.85 2.13
0.18 0.22 0.24 0.26 0.33 0.35 0.38 0.37 0.33 0.37 0.37 0.09 0.02 0.04 0.12 0.20 0.19 0.14 0.14 0.13 0.11 0.13 0.16 0.18 0.20 0.27 0.40 0.60 0.84 1.16 1.76 2.50 2.92 2.91 2.49 2.13 1.97 1.95
0.21 0.25 0.28 0.30 0.36 0.40 0.48 0.49 0.41 0.35 0.40 0.24 0.06 0.04 0.12 0.23 0.26 0.20 0.17 0.15 0.11 0.12 0.15 0.18 0.22 0.27 0.34 0.45 0.61 0.82 1.15 1.70 2.25 2.64 2.69 2.34 2.10 2.05
0.25 0.31 0.35 0.39 0.38 0.41 0.51 0.55 0.49 0.41 0.40 0.36 0.16 0.07 0.10 0.22 0.32 0.30 0.25 0.23 0.18 0.14 0.15 0.17 0.21 0.26 0.30 0.35 0.47 0.61 0.78 0.97 1.39 1.97 2.52 2.58 2.33 2.22
0.19 0.24 0.36 0.49 0.54 0.58 0.59 0.57 0.58 0.58 0.52 0.46 0.30 0.17 0.15 0.22 0.38 0.43 0.37 0.32 0.27 0.22 0.19 0.17 0.20 0.25 0.27 0.28 0.29 0.39 0.57 0.82 1.09 1.50 1.96 2.36 2.43 2.35
0.17 0.19 0.31 0.51 0.67 0.85 0.91 0.79 0.77 0.81 0.74 0.66 0.54 0.39 0.30 0.33 0.42 0.47 0.52 0.44 0.40 0.33 0.24 0.19 0.19 0.19 0.20 0.24 0.28 0.32 0.40 0.55 0.76 1.05 1.44 1.80 2.13 2.30
0.20 0.20 0.27 0.47 0.60 0.68 0.79 0.80 0.84 0.97 1.02 0.92 0.77 0.61 0.44 0.38 0.40 0.50 0.62 0.65 0.56 0.46 0.35 0.27 0.25 0.23 0.20 0.19 0.23 0.27 0.32 0.42 0.57 0.77 1.04 1.35 1.69 2.01
0.19 0.18 0.22 0.34 0.45 0.54 0.57 0.57 0.62 0.75 0.95 1.03 0.96 0.72 0.58 0.47 0.52 0.58 0.60 0.67 0.62 0.64 0.59 0.48 0.35 0.30 0.25 0.27 0.29 0.27 0.31 0.37 0.44 0.58 0.80 1.03 1.31 1.64
0.17 0.15 0.12 0.20 0.33 0.49 0.58 0.54 0.51 0.60 0.82 1.01 1.16 0.99 0.80 0.74 0.82 0.88 0.84 0.74 0.68 0.79 0.79 0.79 0.63 0.45 0.37 0.34 0.34 0.29 0.30 0.33 0.39 0.47 0.62 0.80 1.00 1.30
0.16 0.15 0.10 0.12 0.25 0.39 0.42 0.39 0.35 0.44 0.56 0.75 0.84 0.84 0.77 0.81 0.96 1.17 1.14 0.98 0.85 0.95 0.95 0.89 0.93 0.82 0.73 0.60 0.50 0.41 0.34 0.33 0.37 0.43 0.51 0.64 0.81 1.13
0.13 0.12 0.13 0.16 0.22 0.27 0.28 0.31 0.39 0.41 0.39 0.41 0.43 0.45 0.49 0.58 0.81 1.14 1.31 1.19 1.01 1.10 1.16 1.00 1.07 1.06 1.18 1.06 0.77 0.55 0.43 0.42 0.42 0.44 0.47 0.52 0.65 0.84
0.14 0.14 0.11 0.16 0.19 0.19 0.20 0.25 0.40 0.34 0.27 0.30 0.31 0.31 0.34 0.45 0.63 0.89 1.20 1.38 1.27 1.17 1.22 1.17 1.27 1.08 1.07 1.18 1.03 0.77 0.53 0.45 0.44 0.50 0.53 0.53 0.56 0.59
0.14 0.12 0.09 0.10 0.11 0.13 0.16 0.22 0.24 0.22 0.25 0.25 0.23 0.25 0.31 0.40 0.53 0.70 0.91 1.17 1.30 1.23 1.14 1.15 1.33 1.15 0.88 0.85 0.95 0.94 0.70 0.57 0.48 0.47 0.48 0.63 0.69 0.66
0.23 0.19 0.09 0.08 0.09 0.08 0.11 0.15 0.18 0.21 0.28 0.28 0.24 0.23 0.29 0.40 0.45 0.53 0.62 0.83 1.02 1.08 1.08 1.14 1.29 1.28 1.04 0.81 0.72 0.77 0.79 0.80 0.65 0.56 0.53 0.55 0.56 0.58
0.22 0.15 0.09 0.09 0.08 0.07 0.05 0.07 0.10 0.15 0.21 0.24 0.23 0.21 0.21 0.26 0.35 0.47 0.56 0.65 0.83 0.98 1.08 1.21 1.41 1.51 1.33 0.94 0.74 0.67 0.63 0.81 0.83 0.69 0.61 0.59 0.55 0.47
0.22 0.20 0.15 0.12 0.12 0.10 0.07 0.05 0.05 0.08 0.12 0.16 0.19 0.21 0.21 0.23 0.29 0.39 0.54 0.63 0.76 0.90 1.05 1.30 1.54 1.62 1.60 1.36 1.05 0.80 0.62 0.63 0.73 0.71 0.68 0.69 0.70 0.59
0.22 0.22 0.15 0.11 0.11 0.10 0.08 0.07 0.05 0.05 0.06 0.09 0.14 0.18 0.22 0.26 0.29 0.32 0.45 0.60 0.74 0.85 0.94 1.14 1.43 1.60 1.73 1.78 1.44 1.00 0.74 0.69 0.81 0.81 0.72 0.69 0.79 0.75
0.21 0.16 0.11 0.09 0.09 0.08 0.08 0.07 0.05 0.04 0.05 0.07 0.10 0.13 0.17 0.23 0.27 0.30 0.38 0.51 0.64 0.79 0.91 1.02 1.23 1.47 1.62 1.82 1.86 1.37 0.94 0.81 0.91 1.05 0.94 0.73 0.67 0.74
0.14 0.12 0.11 0.09 0.09 0.08 0.08 0.07 0.06 0.05 0.05 0.05 0.06 0.09 0.13 0.18 0.23 0.28 0.35 0.47 0.58 0.70 0.83 0.95 1.15 1.36 1.45 1.45 1.54 1.60 1.42 1.06 0.93 1.09 1.13 0.97 0.85 0.93
0.10 0.10 0.10 0.10 0.09 0.08 0.07 0.07 0.06 0.05 0.04 0.04 0.05 0.06 0.08 0.13 0.19 0.24 0.31 0.39 0.49 0.60 0.71 0.83 1.03 1.20 1.37 1.35 1.26 1.32 1.52 1.54 1.15 1.01 1.08 1.09 1.06 1.09
0.10 0.10 0.09 0.09 0.10 0.09 0.08 0.07 0.06 0.05 0.04 0.04 0.03 0.04 0.05 0.09 0.15 0.20 0.27 0.34 0.42 0.52 0.65 0.77 0.91 1.08 1.29 1.40 1.37 1.27 1.39 1.61 1.60 1.36 1.17 1.01 0.88 0.84
0.12 0.11 0.10 0.10 0.10 0.09 0.09 0.07 0.06 0.04 0.03 0.03 0.03 0.03 0.04 0.07 0.10 0.16 0.23 0.30 0.37 0.44 0.55 0.72 0.87 1.01 1.23 1.40 1.41 1.30 1.27 1.40 1.45 1.41 1.49 1.30 0.90 0.62

GEFSNE_prec_meanprecacc_078.txt.gz
Total_Precipitation_Accumulation
0.14 0.16 0.19 0.17 0.17 0.20 0.24 0.35 0.51 0.37 0.09 0.02 0.02 0.03 0.08 0.13 0.13 0.12 0.11 0.13 0.19 0.23 0.27 0.31 0.38 0.55 0.85 1.32 1.88 2.76 3.34 2.98 2.20 1.63 1.44 1.59 1.89 2.27
0.18 0.20 0.21 0.21 0.24 0.26 0.28 0.29 0.37 0.46 0.27 0.03 0.02 0.04 0.09 0.16 0.17 0.13 0.13 0.14 0.16 0.18 0.19 0.21 0.25 0.36 0.56 0.87 1.26 1.81 2.67 3.13 2.88 2.33 1.84 1.78 1.87 2.15
0.18 0.22 0.24 0.26 0.33 0.35 0.38 0.37 0.33 0.37 0.37 0.09 0.02 0.04 0.12 0.20 0.19 0.14 0.14 0.13 0.11 0.13 0.16 0.18 0.20 0.27 0.41 0.61 0.84 1.17 1.77 2.51 2.93 2.92 2.50 2.14 1.99 1.97
0.21 0.25 0.28 0.30 0.36 0.41 0.48 0.49 0.41 0.35 0.40 0.24 0.06 0.04 0.12 0.23 0.26 0.20 0.17 0.15 0.11 0.12 0.15 0.18 0.22 0.27 0.34 0.46 0.61 0.83 1.16 1.71 2.26 2.65 2.71 2.36 2.13 2.08
0.25 0.31 0.35 0.39 0.38 0.41 0.51 0.56 0.49 0.41 0.40 0.36 0.16 0.07 0.10 0.22 0.32 0.30 0.25 0.24 0.18 0.15 0.16 0.18 0.22 0.27 0.31 0.36 0.48 0.62 0.79 0.99 1.40 1.99 2.53 2.59 2.35 2.25
0.19 0.24 0.36 0.49 0.54 0.58 0.60 0.58 0.59 0.59 0.53 0.47 0.31 0.17 0.15 0.23 0.38 0.44 0.37 0.32 0.28 0.22 0.19 0.18 0.20 0.25 0.28 0.29 0.31 0.41 0.59 0.84 1.11 1.52 1.98 2.38 2.45 2.37
0.17 0.20 0.31 0.51 0.68 0.86 0.92 0.80 0.79 0.83 0.77 0.69 0.56 0.40 0.30 0.34 0.43 0.47 0.52 0.44 0.41 0.34 0.25 0.20 0.20 0.19 0.20 0.25 0.29 0.33 0.42 0.58 0.78 1.08 1.46 1.82 2.15 2.32
0.21 0.20 0.28 0.48 0.61 0.70 0.81 0.83 0.88 1.01 1.06 0.96 0.80 0.63 0.45 0.38 0.41 0.51 0.63 0.67 0.58 0.46 0.35 0.27 0.26 0.24 0.20 0.19 0.23 0.27 0.33 0.44 0.59 0.80 1.07 1.38 1.72 2.04
0.20 0.19 0.23 0.35 0.46 0.54 0.58 0.59 0.65 0.79 0.99 1.09 1.02 0.75 0.60 0.48 0.54 0.62 0.62 0.69 0.63 0.64 0.59 0.49 0.36 0.31 0.25 0.27 0.29 0.27 0.31 0.38 0.46 0.60 0.83 1.07 1.35 1.67
0.18 0.16 0.13 0.21 0.34 0.50 0.59 0.55 0.52 0.60 0.84 1.05 1.21 1.04 0.84 0.78 0.87 0.93 0.88 0.79 0.71 0.80 0.80 0.80 0.63 0.45 0.37 0.34 0.34 0.29 0.30 0.34 0.40 0.48 0.64 0.82 1.03 1.33
0.16 0.15 0.11 0.12 0.26 0.41 0.45 0.42 0.37 0.45 0.57 0.77 0.88 0.88 0.82 0.88 1.03 1.26 1.25 1.09 0.93 0.97 0.96 0.91 0.93 0.83 0.73 0.60 0.50 0.41 0.34 0.34 0.39 0.45 0.53 0.66 0.83 1.15
0.13 0.13 0.14 0.18 0.25 0.30 0.31 0.34 0.41 0.42 0.40 0.42 0.45 0.47 0.52 0.63 0.90 1.27 1.42 1.29 1.07 1.12 1.17 1.02 1.08 1.08 1.20 1.06 0.78 0.55 0.43 0.42 0.43 0.46 0.49 0.54 0.67 0.87
0.16 0.17 0.12 0.18 0.22 0.23 0.25 0.30 0.44 0.38 0.30 0.33 0.33 0.33 0.36 0.47 0.66 0.96 1.32 1.48 1.34 1.21 1.23 1.18 1.28 1.09 1.09 1.19 1.03 0.77 0.53 0.45 0.45 0.50 0.54 0.55 0.58 0.61
0.18 0.15 0.11 0.13 0.15 0.18 0.21 0.27 0.30 0.29 0.31 0.31 0.28 0.28 0.33 0.42 0.54 0.72 0.97 1.24 1.36 1.27 1.15 1.16 1.34 1.16 0.90 0.87 0.95 0.94 0.70 0.57 0.48 0.47 0.49 0.64 0.70 0.68
0.25 0.22 0.13 0.13 0.13 0.12 0.14 0.19 0.22 0.25 0.32 0.33 0.28 0.26 0.31 0.41 0.47 0.55 0.66 0.87 1.07 1.13 1.13 1.17 1.31 1.30 1.06 0.83 0.73 0.77 0.79 0.80 0.65 0.56 0.54 0.55 0.56 0.59
0.25 0.18 0.13 0.12 0.11 0.08 0.07 0.09 0.12 0.17 0.24 0.27 0.26 0.23 0.23 0.28 0.38 0.50 0.59 0.70 0.88 1.02 1.11 1.25 1.44 1.54 1.37 0.96 0.75 0.67 0.63 0.81 0.83 0.69 0.61 0.59 0.55 0.47
0.27 0.24 0.17 0.15 0.14 0.12 0.09 0.07 0.06 0.09 0.14 0.18 0.21 0.23 0.24 0.27 0.32 0.41 0.58 0.67 0.80 0.93 1.07 1.33 1.58 1.66 1.64 1.39 1.08 0.82 0.62 0.63 0.73 0.71 0.68 0.70 0.70 0.59
0.27 0.25 0.17 0.13 0.12 0.12 0.10 0.08 0.06 0.06 0.07 0.11 0.16 0.20 0.25 0.29 0.32 0.35 0.48 0.64 0.76 0.87 0.96 1.16 1.48 1.66 1.79 1.81 1.45 1.01 0.75 0.69 0.81 0.82 0.72 0.70 0.79 0.75
0.23 0.17 0.12 0.11 0.10 0.10 0.10 0.09 0.06 0.05 0.06 0.09 0.12 0.16 0.20 0.25 0.30 0.33 0.41 0.54 0.67 0.81 0.94 1.05 1.26 1.51 1.66 1.84 1.86 1.37 0.95 0.81 0.91 1.06 0.95 0.73 0.67 0.74
0.15 0.14 0.12 0.10 0.10 0.10 0.10 0.09 0.07 0.06 0.07 0.07 0.08 0.11 0.15 0.20 0.25 0.30 0.36 0.49 0.60 0.72 0.85 0.97 1.16 1.37 1.47 1.46 1.55 1.61 1.42 1.07 0.93 1.09 1.13 0.97 0.85 0.93
0.11 0.11 0.11 0.12 0.11 0.11 0.09 0.09 0.08 0.07 0.05 0.06 0.06 0.07 0.10 0.15 0.21 0.25 0.32 0.40 0.50 0.62 0.73 0.84 1.04 1.21 1.38 1.39 1.30 1.33 1.53 1.54 1.15 1.01 1.09 1.10 1.07 1.10
0.11 0.11 0.11 0.11 0.12 0.11 0.10 0.09 0.08 0.06 0.05 0.05 0.05 0.05 0.07 0.11 0.16 0.21 0.28 0.35 0.43 0.53 0.65 0.78 0.92 1.10 1.32 1.44 1.39 1.28 1.39 1.61 1.61 1.37 1.18 1.02 0.91 0.86
0.14 0.13 0.12 0.12 0.12 0.11 0.11 0.09 0.08 0.06 0.05 0.05 0.04 0.04 0.05 0.08 0.11 0.17 0.24 0.31 0.38 0.45 0.57 0.73 0.88 1.02 1.25 1.41 1.43 1.31 1.28 1.41 1.45 1.41 1.49 1.30 0.90 0.63

GEFSNE_prec_meanprecacc_084.txt.gz
Total_Precipitation_Accumulation
0.14 0.16 0.19 0.17 0.17 0.20 0.24 0.35 0.52 0.38 0.10 0.02 0.02 0.03 0.08 0.13 0.14 0.12 0.11 0.13 0.19 0.23 0.27 0.31 0.38 0.55 0.85 1.32 1.88 2.77 3.34 2.99 2.22 1.66 1.49 1.67 1.98 2.36
0.18 0.20 0.21 0.21 0.24 0.26 0.28 0.29 0.37 0.47 0.28 0.03 0.02 0.04 0.09 0.16 0.17 0.13 0.13 0.14 0.16 0.18 0.19 0.21 0.25 0.36 0.57 0.87 1.26 1.81 2.67 3.13 2.89 2.35 1.87 1.84 1.94 2.23
0.18 0.22 0.24 0.26 0.33 0.35 0.39 0.38 0.34 0.37 0.38 0.09 0.02 0.04 0.12 0.20 0.19 0.14 0.14 0.13 0.11 0.13 0.16 0.18 0.20 0.27 0.41 0.61 0.85 1.18 1.78 2.52 2.94 2.94 2.52 2.18 2.04 2.04
0.21 0.25 0.28 0.31 0.36 0.41 0.48 0.49 0.41 0.36 0.40 0.25 0.06 0.04 0.12 0.23 0.26 0.21 0.17 0.15 0.11 0.12 0.15 0.18 0.23 0.27 0.35 0.46 0.62 0.84 1.18 1.72 2.28 2.67 2.73 2.38 2.17 2.14
0.25 0.31 0.35 0.39 0.38 0.41 0.51 0.56 0.50 0.42 0.41 0.37 0.17 0.07 0.11 0.22 0.33 0.30 0.26 0.24 0.18 0.15 0.16 0.18 0.22 0.27 0.32 0.37 0.49 0.64 0.81 1.00 1.42 2.01 2.56 2.62 2.39 2.30
0.19 0.24 0.36 0.50 0.55 0.59 0.60 0.58 0.60 0.59 0.54 0.48 0.32 0.18 0.16 0.23 0.39 0.45 0.38 0.33 0.28 0.23 0.20 0.18 0.21 0.25 0.29 0.30 0.32 0.43 0.61 0.87 1.14 1.55 2.01 2.41 2.48 2.41
0.17 0.20 0.31 0.52 0.69 0.87 0.93 0.82 0.80 0.86 0.80 0.72 0.59 0.43 0.32 0.35 0.45 0.49 0.54 0.46 0.41 0.34 0.25 0.20 0.20 0.20 0.20 0.25 0.30 0.34 0.44 0.61 0.82 1.12 1.51 1.87 2.20 2.36
0.21 0.20 0.28 0.48 0.63 0.72 0.84 0.87 0.92 1.07 1.12 1.03 0.88 0.69 0.49 0.40 0.44 0.55 0.67 0.70 0.60 0.47 0.36 0.28 0.26 0.24 0.20 0.19 0.24 0.28 0.34 0.46 0.63 0.85 1.12 1.44 1.78 2.10
0.20 0.19 0.23 0.35 0.47 0.55 0.59 0.62 0.67 0.82 1.04 1.15 1.09 0.81 0.64 0.52 0.60 0.69 0.68 0.74 0.66 0.66 0.61 0.51 0.36 0.31 0.25 0.27 0.30 0.28 0.32 0.39 0.48 0.64 0.89 1.13 1.41 1.74
0.18 0.16 0.14 0.21 0.35 0.52 0.60 0.56 0.53 0.61 0.85 1.07 1.24 1.07 0.87 0.81 0.92 1.00 0.95 0.86 0.76 0.82 0.83 0.84 0.64 0.46 0.38 0.34 0.34 0.29 0.31 0.35 0.42 0.51 0.68 0.88 1.09 1.40
0.17 0.15 0.11 0.13 0.27 0.44 0.48 0.44 0.39 0.46 0.58 0.79 0.91 0.91 0.86 0.94 1.11 1.37 1.38 1.22 1.03 1.00 0.97 0.94 0.95 0.83 0.74 0.60 0.50 0.41 0.35 0.35 0.40 0.47 0.56 0.70 0.88 1.22
0.14 0.14 0.16 0.20 0.28 0.35 0.35 0.38 0.45 0.44 0.41 0.44 0.47 0.49 0.55 0.66 0.95 1.35 1.54 1.43 1.20 1.20 1.19 1.03 1.09 1.10 1.23 1.07 0.78 0.55 0.43 0.43 0.44 0.47 0.52 0.57 0.71 0.92
0.18 0.18 0.14 0.20 0.25 0.26 0.29 0.34 0.48 0.42 0.34 0.37 0.38 0.37 0.39 0.49 0.68 0.98 1.36 1.56 1.44 1.29 1.25 1.20 1.30 1.12 1.12 1.20 1.03 0.77 0.53 0.45 0.45 0.51 0.56 0.58 0.62 0.66
0.19 0.16 0.12 0.15 0.18 0.22 0.25 0.31 0.34 0.35 0.36 0.35 0.32 0.32 0.36 0.44 0.56 0.73 0.98 1.26 1.39 1.31 1.20 1.22 1.40 1.20 0.93 0.89 0.96 0.94 0.71 0.57 0.48 0.47 0.49 0.64 0.73 0.72
0.26 0.24 0.15 0.16 0.16 0.15 0.16 0.22 0.25 0.27 0.34 0.36 0.31 0.28 0.33 0.43 0.49 0.57 0.67 0.89 1.10 1.16 1.18 1.24 1.38 1.35 1.11 0.87 0.74 0.78 0.79 0.80 0.65 0.56 0.54 0.55 0.57 0.60
0.27 0.20 0.15 0.14 0.12 0.09 0.08 0.10 0.13 0.18 0.26 0.30 0.28 0.25 0.25 0.30 0.40 0.52 0.61 0.72 0.92 1.04 1.14 1.29 1.49 1.61 1.44 1.00 0.77 0.69 0.64 0.81 0.83 0.69 0.61 0.59 0.55 0.47
0.30 0.27 0.20 0.16 0.15 0.12 0.09 0.07 0.07 0.10 0.16 0.20 0.23 0.25 0.26 0.29 0.34 0.43 0.60 0.70 0.83 0.95 1.09 1.35 1.61 1.70 1.69 1.44 1.12 0.84 0.63 0.64 0.73 0.71 0.68 0.70 0.71 0.59
0.30 0.29 0.19 0.14 0.14 0.13 0.11 0.09 0.07 0.08 0.09 0.13 0.18 0.23 0.28 0.32 0.34 0.37 0.51 0.66 0.79 0.89 0.98 1.18 1.51 1.73 1.87 1.87 1.48 1.02 0.76 0.70 0.81 0.82 0.73 0.70 0.80 0.75
0.25 0.19 0.14 0.12 0.11 0.11 0.11 0.10 0.08 0.06 0.08 0.11 0.14 0.18 0.22 0.28 0.32 0.35 0.43 0.56 0.69 0.83 0.95 1.06 1.29 1.55 1.70 1.86 1.87 1.38 0.95 0.82 0.92 1.07 0.95 0.73 0.67 0.74
0.16 0.15 0.13 0.11 0.11 0.11 0.11 0.10 0.09 0.08 0.08 0.09 0.10 0.12 0.16 0.22 0.28 0.32 0.39 0.51 0.62 0.74 0.88 0.99 1.18 1.39 1.48 1.47 1.55 1.61 1.43 1.07 0.94 1.10 1.14 0.97 0.85 0.93
0.12 0.12 0.12 0.13 0.13 0.12 0.11 0.10 0.10 0.09 0.07 0.07 0.08 0.09 0.11 0.17 0.23 0.26 0.34 0.42 0.52 0.64 0.75 0.86 1.04 1.21 1.40 1.42 1.33 1.34 1.53 1.54 1.15 1.02 1.09 1.11 1.08 1.11
0.12 0.13 0.12 0.13 0.14 0.13 0.12 0.11 0.10 0.08 0.06 0.07 0.06 0.06 0.08 0.12 0.18 0.23 0.29 0.37 0.44 0.54 0.66 0.79 0.92 1.11 1.34 1.46 1.40 1.28 1.39 1.61 1.61 1.37 1.19 1.03 0.92 0.87
0.16 0.15 0.14 0.13 0.13 0.13 0.13 0.11 0.10 0.07 0.06 0.06 0.06 0.06 0.06 0.09 0.12 0.18 0.25 0.32 0.39 0.46 0.58 0.75 0.89 1.04 1.26 1.42 1.44 1.32 1.29 1.41 1.46 1.42 1.50 1.31 0.91 0.63

GEFSNE_prec_meanprecacc_090.txt.gz
Total_Precipitation_Accumulation
0.14 0.16 0.19 0.17 0.17 0.20 0.24 0.35 0.52 0.38 0.10 0.02 0.02 0.03 0.08 0.13 0.14 0.12 0.11 0.14 0.19 0.23 0.27 0.31 0.39 0.56 0.86 1.33 1.89 2.78 3.35 3.00 2.23 1.67 1.51 1.70 2.05 2.47
0.18 0.20 0.21 0.21 0.24 0.26 0.28 0.29 0.38 0.47 0.28 0.03 0.02 0.04 0.09 0.16 0.17 0.14 0.13 0.14 0.16 0.18 0.19 0.21 0.26 0.37 0.58 0.89 1.28 1.83 2.69 3.15 2.90 2.36 1.89 1.86 1.98 2.29
0.18 0.22 0.24 0.26 0.33 0.35 0.39 0.38 0.34 0.38 0.38 0.09 0.02 0.04 0.12 0.20 0.19 0.14 0.14 0.13 0.11 0.13 0.16 0.18 0.21 0.28 0.42 0.62 0.86 1.20 1.80 2.54 2.97 2.96 2.55 2.21 2.07 2.08
0.21 0.25 0.28 0.31 0.36 0.41 0.48 0.49 0.41 0.36 0.41 0.25 0.06 0.05 0.12 0.23 0.27 0.21 0.18 0.15 0.11 0.12 0.15 0.19 0.24 0.29 0.36 0.48 0.64 0.87 1.20 1.75 2.31 2.70 2.76 2.42 2.20 2.18
0.25 0.31 0.35 0.39 0.38 0.41 0.51 0.56 0.50 0.42 0.42 0.38 0.17 0.07 0.11 0.22 0.33 0.30 0.26 0.24 0.18 0.15 0.16 0.18 0.23 0.28 0.33 0.39 0.51 0.66 0.83 1.03 1.45 2.04 2.59 2.65 2.42 2.34
0.19 0.24 0.36 0.50 0.55 0.59 0.60 0.58 0.60 0.60 0.55 0.50 0.34 0.19 0.16 0.24 0.40 0.45 0.38 0.33 0.28 0.23 0.20 0.18 0.21 0.26 0.30 0.32 0.34 0.45 0.63 0.89 1.17 1.58 2.04 2.44 2.51 2.44
0.18 0.20 0.31 0.52 0.69 0.88 0.94 0.83 0.82 0.88 0.82 0.75 0.62 0.45 0.34 0.37 0.46 0.50 0.56 0.47 0.42 0.34 0.25 0.20 0.20 0.20 0.20 0.26 0.31 0.35 0.45 0.62 0.83 1.14 1.54 1.91 2.23 2.40
0.21 0.20 0.28 0.49 0.63 0.72 0.86 0.89 0.94 1.09 1.15 1.06 0.91 0.72 0.51 0.42 0.46 0.57 0.69 0.73 0.62 0.48 0.36 0.28 0.27 0.25 0.20 0.20 0.24 0.28 0.35 0.47 0.64 0.87 1.15 1.47 1.82 2.15
0.20 0.19 0.23 0.35 0.47 0.56 0.59 0.62 0.68 0.84 1.07 1.18 1.12 0.83 0.65 0.53 0.61 0.71 0.71 0.77 0.68 0.67 0.62 0.53 0.37 0.31 0.26 0.27 0.30 0.29 0.33 0.40 0.50 0.66 0.91 1.16 1.45 1.79
0.19 0.16 0.14 0.22 0.35 0.52 0.61 0.57 0.53 0.62 0.86 1.09 1.26 1.08 0.88 0.83 0.94 1.03 0.99 0.91 0.80 0.84 0.84 0.87 0.65 0.46 0.38 0.34 0.34 0.30 0.31 0.36 0.43 0.52 0.70 0.91 1.13 1.44
0.17 0.15 0.12 0.13 0.28 0.46 0.50 0.45 0.40 0.47 0.59 0.81 0.94 0.94 0.90 0.99 1.18 1.46 1.49 1.35 1.14 1.04 0.98 0.96 0.95 0.84 0.74 0.60 0.50 0.41 0.35 0.36 0.41 0.48 0.58 0.72 0.92 1.26
0.14 0.14 0.16 0.21 0.30 0.37 0.37 0.40 0.47 0.45 0.42 0.45 0.48 0.50 0.56 0.68 0.98 1.39 1.59 1.52 1.30 1.27 1.20 1.04 1.10 1.11 1.24 1.07 0.78 0.55 0.43 0.43 0.45 0.49 0.53 0.59 0.75 0.95
0.19 0.19 0.14 0.22 0.27 0.29 0.32 0.37 0.51 0.46 0.37 0.40 0.41 0.39 0.40 0.50 0.68 0.99 1.37 1.59 1.51 1.35 1.28 1.23 1.34 1.15 1.14 1.21 1.03 0.77 0.53 0.45 0.45 0.52 0.56 0.59 0.64 0.70
0.20 0.16 0.12 0.17 0.21 0.26 0.28 0.34 0.38 0.38 0.38 0.37 0.34 0.33 0.37 0.44 0.57 0.74 1.00 1.29 1.43 1.35 1.23 1.27 1.47 1.25 0.98 0.93 0.97 0.94 0.71 0.57 0.48 0.47 0.49 0.65 0.74 0.75
0.27 0.25 0.17 0.18 0.19 0.17 0.17 0.23 0.27 0.29 0.36 0.38 0.33 0.29 0.33 0.44 0.50 0.58 0.69 0.91 1.12 1.17 1.19 1.26 1.42 1.40 1.17 0.93 0.77 0.78 0.79 0.80 0.65 0.56 0.54 0.55 0.57 0.61
0.28 0.21 0.17 0.16 0.13 0.10 0.09 0.11 0.13 0.19 0.27 0.32 0.30 0.26 0.26 0.32 0.42 0.54 0.64 0.74 0.94 1.06 1.15 1.29 1.51 1.65 1.49 1.04 0.81 0.71 0.64 0.81 0.83 0.69 0.61 0.59 0.55 0.48
0.33 0.30 0.22 0.17 0.16 0.13 0.09 0.07 0.07 0.11 0.17 0.21 0.25 0.27 0.28 0.30 0.35 0.44 0.62 0.73 0.87 0.97 1.10 1.36 1.62 1.72 1.72 1.47 1.16 0.86 0.64 0.64 0.74 0.71 0.68 0.70 0.71 0.59
0.33 0.32 0.21 0.15 0.14 0.13 0.12 0.10 0.08 0.08 0.10 0.14 0.20 0.25 0.30 0.34 0.36 0.39 0.53 0.70 0.82 0.91 0.99 1.19 1.53 1.76 1.90 1.89 1.50 1.04 0.77 0.71 0.82 0.82 0.73 0.71 0.80 0.75
0.27 0.20 0.14 0.12 0.12 0.12 0.12 0.11 0.09 0.06 0.09 0.13 0.16 0.19 0.24 0.30 0.34 0.38 0.45 0.58 0.71 0.83 0.96 1.07 1.30 1.58 1.73 1.88 1.87 1.38 0.96 0.83 0.93 1.08 0.96 0.74 0.67 0.74
0.16 0.16 0.15 0.13 0.12 0.13 0.12 0.12 0.10 0.09 0.09 0.10 0.11 0.14 0.18 0.25 0.30 0.33 0.40 0.53 0.63 0.75 0.88 1.00 1.19 1.40 1.50 1.47 1.56 1.61 1.43 1.08 0.95 1.11 1.14 0.98 0.85 0.93
0.13 0.13 0.13 0.14 0.15 0.14 0.13 0.12 0.11 0.10 0.08 0.09 0.09 0.10 0.13 0.19 0.24 0.28 0.35 0.43 0.54 0.65 0.75 0.86 1.05 1.22 1.41 1.44 1.35 1.35 1.53 1.54 1.16 1.02 1.10 1.12 1.09 1.11
0.13 0.14 0.13 0.14 0.15 0.15 0.14 0.12 0.11 0.09 0.08 0.08 0.07 0.07 0.09 0.14 0.20 0.24 0.31 0.38 0.45 0.55 0.67 0.79 0.93 1.12 1.36 1.49 1.41 1.28 1.40 1.62 1.61 1.37 1.19 1.04 0.93 0.88
0.17 0.17 0.15 0.15 0.15 0.15 0.15 0.13 0.11 0.09 0.07 0.07 0.07 0.07 0.08 0.11 0.13 0.19 0.26 0.33 0.40 0.47 0.58 0.75 0.90 1.05 1.28 1.43 1.45 1.33 1.29 1.41 1.46 1.42 1.51 1.31 0.92 0.64

GEFSNE_prec_meanprecacc_096.txt.gz
Total_Precipitation_Accumulation
0.14 0.16 0.19 0.17 0.17 0.20 0.24 0.35 0.52 0.38 0.10 0.02 0.02 0.03 0.08 0.13 0.14 0.12 0.11 0.14 0.19 0.23 0.28 0.32 0.39 0.56 0.87 1.34 1.90 2.79 3.37 3.02 2.24 1.68 1.52 1.72 2.07 2.49
0.18 0.20 0.21 0.21 0.24 0.26 0.28 0.29 0.38 0.47 0.28 0.03 0.02 0.04 0.09 0.16 0.17 0.14 0.13 0.14 0.16 0.18 0.20 0.22 0.27 0.38 0.59 0.90 1.29 1.85 2.71 3.17 2.93 2.39 1.91 1.89 2.01 2.33
0.18 0.22 0.24 0.26 0.33 0.35 0.39 0.38 0.34 0.38 0.38 0.09 0.02 0.04 0.12 0.20 0.19 0.14 0.14 0.13 0.11 0.13 0.16 0.19 0.22 0.30 0.44 0.64 0.88 1.22 1.82 2.57 3.00 3.00 2.59 2.25 2.12 2.13
0.21 0.25 0.28 0.31 0.36 0.41 0.48 0.49 0.41 0.36 0.41 0.25 0.06 0.05 0.12 0.23 0.27 0.21 0.18 0.15 0.11 0.12 0.16 0.20 0.25 0.30 0.38 0.50 0.67 0.89 1.23 1.78 2.34 2.73 2.80 2.46 2.25 2.23
0.25 0.31 0.35 0.39 0.38 0.41 0.51 0.56 0.50 0.42 0.42 0.38 0.17 0.08 0.11 0.23 0.33 0.31 0.26 0.24 0.18 0.15 0.16 0.19 0.23 0.29 0.34 0.41 0.54 0.69 0.86 1.06 1.48 2.07 2.62 2.68 2.45 2.37
0.19 0.24 0.36 0.50 0.55 0.59 0.60 0.59 0.60 0.60 0.55 0.50 0.35 0.20 0.17 0.24 0.40 0.45 0.39 0.33 0.28 0.23 0.20 0.19 0.21 0.27 0.31 0.33 0.36 0.47 0.65 0.91 1.19 1.60 2.06 2.47 2.53 2.46
0.18 0.20 0.31 0.52 0.69 0.88 0.95 0.83 0.82 0.89 0.83 0.77 0.64 0.47 0.35 0.38 0.47 0.51 0.57 0.47 0.42 0.34 0.26 0.20 0.20 0.20 0.20 0.26 0.31 0.35 0.46 0.63 0.84 1.15 1.56 1.93 2.25 2.42
0.21 0.20 0.28 0.49 0.63 0.73 0.86 0.89 0.95 1.11 1.16 1.08 0.94 0.75 0.53 0.43 0.47 0.58 0.70 0.75 0.64 0.48 0.37 0.28 0.27 0.25 0.20 0.20 0.24 0.29 0.36 0.48 0.66 0.89 1.17 1.49 1.84 2.17
0.20 0.19 0.23 0.35 0.47 0.56 0.60 0.62 0.69 0.84 1.08 1.20 1.15 0.85 0.67 0.54 0.63 0.73 0.73 0.80 0.71 0.68 0.64 0.54 0.37 0.32 0.26 0.27 0.31 0.29 0.34 0.42 0.52 0.68 0.94 1.19 1.48 1.81
0.19 0.16 0.14 0.22 0.35 0.52 0.61 0.57 0.54 0.62 0.87 1.10 1.27 1.09 0.89 0.85 0.97 1.08 1.05 0.99 0.87 0.87 0.86 0.89 0.66 0.46 0.38 0.34 0.34 0.30 0.32 0.37 0.45 0.54 0.72 0.93 1.15 1.47
0.17 0.15 0.12 0.13 0.28 0.47 0.51 0.46 0.40 0.47 0.60 0.82 0.96 0.98 0.94 1.04 1.23 1.52 1.57 1.44 1.22 1.06 0.99 0.98 0.96 0.84 0.74 0.60 0.50 0.41 0.35 0.37 0.42 0.50 0.60 0.75 0.94 1.29
0.14 0.14 0.16 0.21 0.30 0.39 0.39 0.41 0.49 0.46 0.43 0.46 0.49 0.52 0.58 0.69 1.00 1.41 1.62 1.58 1.36 1.31 1.21 1.05 1.11 1.13 1.27 1.08 0.78 0.56 0.43 0.43 0.45 0.49 0.54 0.60 0.76 0.97
0.19 0.19 0.14 0.22 0.28 0.31 0.35 0.39 0.54 0.49 0.41 0.44 0.44 0.41 0.41 0.51 0.69 0.99 1.38 1.63 1.57 1.41 1.31 1.27 1.39 1.18 1.19 1.23 1.04 0.77 0.53 0.45 0.45 0.52 0.57 0.59 0.65 0.71
0.20 0.16 0.12 0.18 0.23 0.29 0.31 0.37 0.41 0.42 0.40 0.39 0.35 0.34 0.37 0.45 0.57 0.75 1.00 1.30 1.45 1.39 1.26 1.32 1.56 1.31 1.03 0.97 0.99 0.94 0.71 0.57 0.48 0.47 0.49 0.65 0.74 0.75
0.28 0.26 0.18 0.20 0.21 0.18 0.19 0.25 0.29 0.30 0.37 0.39 0.34 0.29 0.34 0.44 0.51 0.59 0.69 0.92 1.13 1.19 1.21 1.29 1.47 1.46 1.22 0.98 0.79 0.79 0.80 0.80 0.65 0.56 0.54 0.55 0.57 0.61
0.29 0.22 0.19 0.18 0.15 0.11 0.09 0.11 0.14 0.19 0.29 0.34 0.32 0.27 0.26 0.32 0.43 0.55 0.65 0.76 0.96 1.07 1.15 1.31 1.53 1.68 1.54 1.08 0.83 0.73 0.66 0.82 0.83 0.69 0.62 0.59 0.55 0.48
0.35 0.33 0.24 0.19 0.17 0.13 0.10 0.07 0.08 0.11 0.17 0.22 0.27 0.29 0.29 0.31 0.35 0.45 0.63 0.75 0.89 0.98 1.11 1.37 1.64 1.75 1.76 1.50 1.19 0.87 0.65 0.65 0.74 0.71 0.68 0.70 0.71 0.60
0.37 0.36 0.23 0.16 0.15 0.14 0.13 0.10 0.08 0.09 0.10 0.16 0.22 0.26 0.31 0.35 0.37 0.39 0.54 0.72 0.84 0.93 1.01 1.21 1.55 1.79 1.92 1.90 1.51 1.05 0.78 0.71 0.82 0.83 0.73 0.71 0.80 0.76
0.29 0.22 0.15 0.13 0.13 0.12 0.13 0.12 0.10 0.07 0.10 0.14 0.18 0.21 0.25 0.31 0.36 0.39 0.46 0.60 0.72 0.85 0.97 1.09 1.32 1.60 1.75 1.88 1.88 1.38 0.97 0.83 0.94 1.08 0.96 0.74 0.68 0.75
0.17 0.16 0.15 0.13 0.13 0.14 0.13 0.13 0.11 0.09 0.10 0.11 0.13 0.15 0.20 0.27 0.32 0.35 0.41 0.54 0.65 0.77 0.90 1.01 1.21 1.42 1.51 1.48 1.57 1.62 1.43 1.08 0.96 1.11 1.15 0.99 0.86 0.94
0.13 0.13 0.14 0.15 0.15 0.15 0.14 0.13 0.13 0.11 0.09 0.10 0.10 0.11 0.15 0.22 0.27 0.29 0.36 0.45 0.56 0.67 0.77 0.87 1.05 1.23 1.42 1.46 1.36 1.35 1.53 1.54 1.16 1.03 1.10 1.13 1.10 1.12
0.14 0.15 0.14 0.15 0.16 0.16 0.15 0.14 0.13 0.10 0.09 0.09 0.09 0.09 0.11 0.17 0.22 0.26 0.33 0.40 0.47 0.56 0.68 0.80 0.93 1.13 1.38 1.50 1.42 1.29 1.40 1.62 1.62 1.38 1.20 1.05 0.94 0.88
0.18 0.17 0.16 0.15 0.15 0.16 0.16 0.14 0.13 0.10 0.08 0.09 0.09 0.09 0.10 0.13 0.15 0.21 0.28 0.35 0.42 0.48 0.59 0.76 0.91 1.06 1.28 1.44 1.45 1.33 1.29 1.42 1.47 1.43 1.52 1.32 0.92 0.64

GEFSNE_prec_meanprecacc_102.txt.gz
Total_Precipitation_Accumulation
0.14 0.16 0.19 0.17 0.17 0.20 0.24 0.35 0.52 0.38 0.10 0.02 0.02 0.03 0.08 0.13 0.14 0.12 0.11 0.14 0.19 0.24 0.28 0.33 0.40 0.57 0.88 1.36 1.92 2.81 3.39 3.03 2.26 1.70 1.54 1.74 2.09 2.51
0.18 0.20 0.21 0.21 0.24 0.26 0.28 0.29 0.38 0.47 0.28 0.03 0.02 0.04 0.09 0.16 0.17 0.14 0.13 0.14 0.16 0.18 0.20 0.22 0.28 0.39 0.61 0.92 1.31 1.87 2.73 3.20 2.95 2.42 1.95 1.92 2.05 2.36
0.18 0.22 0.24 0.26 0.33 0.35 0.39 0.38 0.34 0.38 0.38 0.09 0.02 0.04 0.12 0.20 0.19 0.14 0.14 0.13 0.11 0.13 0.16 0.20 0.23 0.31 0.46 0.66 0.91 1.25 1.85 2.60 3.03 3.03 2.63 2.30 2.17 2.18
0.21 0.25 0.28 0.31 0.36 0.41 0.48 0.49 0.41 0.36 0.41 0.25 0.06 0.05 0.12 0.23 0.27 0.21 0.18 0.16 0.11 0.12 0.16 0.20 0.26 0.32 0.40 0.52 0.69 0.92 1.26 1.81 2.37 2.76 2.83 2.50 2.29 2.28
0.25 0.31 0.35 0.39 0.38 0.41 0.51 0.56 0.50 0.42 0.42 0.38 0.18 0.08 0.11 0.23 0.33 0.31 0.26 0.24 0.18 0.15 0.16 0.19 0.24 0.30 0.35 0.43 0.56 0.71 0.89 1.09 1.51 2.10 2.65 2.71 2.48 2.41
0.19 0.24 0.36 0.50 0.55 0.59 0.60 0.59 0.60 0.61 0.56 0.51 0.35 0.20 0.18 0.25 0.41 0.46 0.39 0.34 0.29 0.23 0.20 0.19 0.21 0.27 0.31 0.34 0.37 0.48 0.66 0.92 1.20 1.62 2.09 2.49 2.56 2.48
0.18 0.20 0.31 0.52 0.69 0.88 0.95 0.84 0.83 0.89 0.84 0.78 0.65 0.48 0.36 0.39 0.48 0.52 0.58 0.48 0.43 0.35 0.26 0.20 0.20 0.20 0.20 0.26 0.31 0.36 0.46 0.63 0.85 1.17 1.58 1.95 2.28 2.44
0.21 0.20 0.28 0.49 0.63 0.73 0.86 0.89 0.96 1.11 1.17 1.10 0.95 0.77 0.54 0.45 0.48 0.60 0.72 0.77 0.65 0.49 0.37 0.29 0.27 0.25 0.21 0.20 0.25 0.29 0.36 0.49 0.67 0.91 1.20 1.52 1.87 2.20
0.20 0.19 0.23 0.35 0.47 0.56 0.60 0.62 0.69 0.85 1.09 1.22 1.17 0.87 0.68 0.55 0.64 0.75 0.76 0.83 0.74 0.70 0.66 0.57 0.38 0.32 0.26 0.28 0.31 0.30 0.35 0.43 0.54 0.71 0.96 1.22 1.51 1.84
0.19 0.16 0.14 0.22 0.35 0.52 0.61 0.58 0.54 0.62 0.87 1.11 1.28 1.10 0.90 0.86 1.00 1.13 1.12 1.07 0.92 0.90 0.89 0.93 0.67 0.47 0.38 0.35 0.35 0.31 0.33 0.39 0.46 0.57 0.75 0.96 1.18 1.49
0.17 0.15 0.12 0.13 0.28 0.48 0.52 0.47 0.41 0.48 0.60 0.83 0.98 1.00 0.98 1.08 1.29 1.58 1.64 1.52 1.27 1.08 1.01 1.00 0.98 0.85 0.75 0.61 0.50 0.42 0.36 0.38 0.44 0.52 0.62 0.77 0.97 1.31
0.14 0.14 0.16 0.21 0.31 0.40 0.40 0.43 0.52 0.48 0.45 0.48 0.51 0.54 0.60 0.71 1.02 1.44 1.66 1.63 1.41 1.34 1.22 1.07 1.13 1.16 1.30 1.09 0.78 0.56 0.44 0.44 0.45 0.50 0.55 0.62 0.78 0.99
0.19 0.19 0.15 0.22 0.29 0.32 0.37 0.42 0.57 0.52 0.44 0.48 0.48 0.43 0.43 0.52 0.69 1.00 1.39 1.66 1.62 1.45 1.32 1.30 1.42 1.21 1.23 1.26 1.04 0.77 0.53 0.46 0.45 0.52 0.57 0.60 0.66 0.73
0.21 0.17 0.12 0.18 0.24 0.31 0.34 0.39 0.44 0.45 0.43 0.41 0.37 0.35 0.38 0.45 0.58 0.75 1.01 1.31 1.48 1.41 1.27 1.35 1.61 1.35 1.07 1.00 1.00 0.95 0.71 0.58 0.49 0.48 0.49 0.65 0.74 0.76
0.28 0.26 0.19 0.21 0.23 0.20 0.20 0.26 0.30 0.32 0.38 0.40 0.34 0.30 0.34 0.45 0.51 0.60 0.70 0.92 1.13 1.19 1.22 1.30 1.51 1.49 1.27 1.03 0.82 0.81 0.81 0.81 0.66 0.56 0.54 0.55 0.58 0.62
0.29 0.23 0.20 0.19 0.16 0.12 0.10 0.12 0.14 0.20 0.30 0.36 0.33 0.28 0.27 0.33 0.43 0.56 0.66 0.77 0.98 1.08 1.16 1.32 1.55 1.72 1.59 1.11 0.87 0.75 0.67 0.83 0.83 0.69 0.62 0.59 0.56 0.49
0.37 0.35 0.27 0.21 0.18 0.14 0.10 0.08 0.08 0.12 0.18 0.23 0.28 0.30 0.30 0.32 0.36 0.46 0.65 0.76 0.91 0.99 1.11 1.37 1.65 1.77 1.78 1.53 1.22 0.89 0.67 0.66 0.75 0.72 0.69 0.71 0.71 0.60
0.39 0.39 0.25 0.18 0.17 0.15 0.14 0.11 0.09 0.09 0.11 0.17 0.23 0.28 0.32 0.36 0.38 0.40 0.55 0.74 0.86 0.94 1.02 1.22 1.57 1.81 1.94 1.92 1.53 1.07 0.80 0.73 0.83 0.84 0.74 0.72 0.80 0.76
0.31 0.24 0.16 0.14 0.14 0.13 0.13 0.13 0.10 0.08 0.10 0.15 0.19 0.22 0.27 0.33 0.37 0.40 0.47 0.62 0.74 0.86 0.98 1.10 1.35 1.63 1.77 1.90 1.89 1.39 0.98 0.85 0.95 1.09 0.97 0.75 0.68 0.75
0.17 0.17 0.16 0.14 0.14 0.15 0.15 0.14 0.12 0.11 0.11 0.13 0.14 0.16 0.21 0.29 0.34 0.36 0.43 0.56 0.67 0.78 0.91 1.02 1.23 1.44 1.53 1.50 1.58 1.62 1.44 1.09 0.96 1.12 1.15 0.99 0.87 0.94
0.14 0.14 0.14 0.16 0.17 0.16 0.15 0.14 0.14 0.12 0.10 0.11 0.11 0.12 0.16 0.23 0.29 0.31 0.38 0.46 0.58 0.69 0.78 0.88 1.07 1.24 1.44 1.48 1.37 1.36 1.54 1.55 1.16 1.03 1.11 1.14 1.11 1.12
0.15 0.16 0.15 0.16 0.17 0.17 0.16 0.15 0.14 0.11 0.10 0.10 0.10 0.10 0.12 0.19 0.24 0.27 0.34 0.42 0.49 0.58 0.69 0.81 0.95 1.15 1.39 1.51 1.43 1.29 1.41 1.63 1.62 1.38 1.20 1.05 0.94 0.89
0.19 0.18 0.17 0.16 0.16 0.17 0.17 0.16 0.15 0.12 0.10 0.10 0.10 0.10 0.11 0.14 0.17 0.23 0.30 0.36 0.43 0.50 0.61 0.78 0.93 1.07 1.30 1.45 1.46 1.34 1.30 1.42 1.48 1.44 1.53 1.32 0.92 0.64

GEFSNE_prec_meanprecacc_108.txt.gz
Total_Precipitation_Accumulation
0.14 0.16 0.19 0.17 0.17 0.20 0.24 0.35 0.52 0.38 0.10 0.02 0.02 0.03 0.08 0.13 0.14 0.12 0.11 0.14 0.19 0.24 0.29 0.33 0.40 0.58 0.89 1.37 1.93 2.82 3.40 3.05 2.28 1.72 1.56 1.76 2.11 2.54
0.18 0.20 0.21 0.21 0.24 0.26 0.28 0.29 0.38 0.47 0.28 0.03 0.02 0.04 0.09 0.16 0.17 0.14 0.13 0.14 0.16 0.18 0.20 0.23 0.28 0.40 0.61 0.93 1.33 1.88 2.75 3.22 2.98 2.45 1.98 1.96 2.08 2.40
0.18 0.22 0.24 0.26 0.33 0.35 0.39 0.38 0.34 0.38 0.38 0.09 0.02 0.04 0.12 0.20 0.19 0.14 0.14 0.13 0.11 0.13 0.16 0.20 0.24 0.32 0.47 0.68 0.92 1.27 1.87 2.63 3.06 3.06 2.67 2.34 2.21 2.23
0.21 0.25 0.28 0.31 0.36 0.41 0.48 0.49 0.41 0.36 0.41 0.25 0.06 0.05 0.12 0.23 0.27 0.21 0.18 0.16 0.11 0.12 0.16 0.21 0.26 0.32 0.41 0.54 0.71 0.94 1.28 1.83 2.40 2.79 2.86 2.53 2.33 2.32
0.25 0.31 0.35 0.39 0.38 0.41 0.51 0.56 0.50 0.42 0.42 0.38 0.18 0.08 0.11 0.23 0.33 0.31 0.26 0.24 0.18 0.15 0.16 0.19 0.24 0.30 0.36 0.44 0.58 0.74 0.91 1.11 1.53 2.12 2.68 2.74 2.51 2.44
0.19 0.24 0.36 0.50 0.55 0.59 0.60 0.59 0.60 0.61 0.56 0.51 0.36 0.21 0.18 0.25 0.41 0.46 0.39 0.34 0.29 0.23 0.20 0.19 0.22 0.28 0.32 0.35 0.38 0.49 0.68 0.94 1.22 1.65 2.12 2.52 2.58 2.51
0.18 0.20 0.31 0.52 0.69 0.88 0.95 0.84 0.83 0.89 0.84 0.78 0.66 0.48 0.36 0.39 0.49 0.53 0.59 0.49 0.43 0.35 0.26 0.20 0.20 0.20 0.21 0.26 0.31 0.36 0.47 0.65 0.88 1.20 1.61 1.98 2.31 2.47
0.21 0.20 0.28 0.49 0.63 0.73 0.86 0.89 0.96 1.12 1.18 1.11 0.96 0.78 0.54 0.45 0.49 0.61 0.73 0.78 0.66 0.49 0.38 0.30 0.27 0.25 0.21 0.20 0.25 0.30 0.38 0.52 0.70 0.94 1.23 1.55 1.90 2.23
0.20 0.19 0.23 0.35 0.47 0.56 0.60 0.62 0.69 0.85 1.10 1.23 1.18 0.88 0.69 0.56 0.66 0.77 0.78 0.86 0.77 0.71 0.68 0.58 0.39 0.33 0.26 0.28 0.31 0.31 0.37 0.46 0.57 0.74 1.00 1.25 1.54 1.87
0.19 0.16 0.14 0.22 0.35 0.52 0.61 0.58 0.54 0.63 0.87 1.11 1.29 1.11 0.91 0.87 1.02 1.16 1.16 1.11 0.96 0.92 0.90 0.96 0.68 0.48 0.39 0.35 0.35 0.32 0.35 0.41 0.49 0.60 0.78 0.99 1.21 1.53
0.17 0.15 0.12 0.13 0.28 0.48 0.52 0.48 0.42 0.48 0.61 0.84 1.00 1.02 1.00 1.11 1.32 1.62 1.69 1.57 1.31 1.10 1.02 1.03 0.99 0.86 0.75 0.61 0.51 0.43 0.38 0.39 0.46 0.54 0.65 0.81 1.01 1.35
0.14 0.14 0.16 0.21 0.31 0.40 0.41 0.44 0.52 0.48 0.45 0.48 0.52 0.55 0.61 0.72 1.04 1.46 1.68 1.67 1.44 1.36 1.23 1.09 1.15 1.18 1.33 1.09 0.79 0.56 0.44 0.44 0.46 0.51 0.58 0.65 0.81 1.02
0.19 0.19 0.15 0.22 0.29 0.32 0.38 0.43 0.58 0.54 0.46 0.50 0.50 0.45 0.44 0.53 0.70 1.01 1.40 1.68 1.66 1.48 1.34 1.33 1.45 1.23 1.26 1.28 1.04 0.77 0.54 0.46 0.46 0.53 0.58 0.61 0.68 0.75
0.21 0.17 0.13 0.19 0.24 0.32 0.35 0.41 0.46 0.47 0.45 0.43 0.38 0.36 0.39 0.46 0.58 0.76 1.02 1.32 1.49 1.43 1.28 1.37 1.65 1.38 1.11 1.03 1.01 0.95 0.72 0.59 0.50 0.49 0.50 0.67 0.76 0.78
0.28 0.27 0.19 0.22 0.24 0.21 0.21 0.28 0.32 0.33 0.40 0.41 0.36 0.31 0.35 0.46 0.52 0.60 0.71 0.93 1.14 1.20 1.22 1.31 1.53 1.52 1.32 1.07 0.84 0.82 0.82 0.81 0.66 0.57 0.55 0.56 0.59 0.63
0.30 0.24 0.20 0.20 0.17 0.12 0.11 0.13 0.15 0.21 0.31 0.37 0.33 0.29 0.28 0.34 0.44 0.56 0.67 0.78 0.99 1.08 1.16 1.32 1.56 1.75 1.63 1.14 0.89 0.77 0.69 0.85 0.84 0.70 0.63 0.60 0.56 0.49
0.38 0.36 0.28 0.22 0.19 0.15 0.11 0.09 0.09 0.12 0.19 0.24 0.29 0.31 0.31 0.33 0.37 0.46 0.66 0.78 0.92 1.00 1.12 1.38 1.66 1.78 1.80 1.56 1.25 0.91 0.69 0.68 0.77 0.74 0.71 0.72 0.72 0.60
0.41 0.41 0.26 0.19 0.18 0.16 0.15 0.12 0.10 0.10 0.12 0.17 0.24 0.29 0.33 0.37 0.39 0.41 0.56 0.75 0.88 0.95 1.03 1.23 1.58 1.83 1.96 1.93 1.54 1.09 0.82 0.75 0.85 0.85 0.76 0.73 0.82 0.76
0.32 0.25 0.17 0.15 0.14 0.14 0.14 0.14 0.12 0.09 0.11 0.16 0.20 0.23 0.28 0.34 0.38 0.41 0.48 0.63 0.75 0.87 1.00 1.11 1.37 1.66 1.80 1.93 1.90 1.40 1.00 0.87 0.97 1.11 0.99 0.76 0.70 0.76
0.18 0.18 0.17 0.15 0.15 0.16 0.16 0.16 0.14 0.12 0.13 0.14 0.15 0.18 0.23 0.30 0.35 0.38 0.44 0.57 0.68 0.79 0.92 1.04 1.25 1.47 1.57 1.53 1.61 1.64 1.45 1.11 0.98 1.14 1.17 1.00 0.87 0.95
0.14 0.15 0.15 0.17 0.18 0.18 0.16 0.16 0.15 0.13 0.11 0.12 0.12 0.13 0.17 0.25 0.30 0.32 0.39 0.48 0.59 0.71 0.80 0.90 1.08 1.26 1.46 1.50 1.39 1.37 1.55 1.56 1.18 1.05 1.12 1.15 1.11 1.13
0.15 0.16 0.15 0.17 0.18 0.18 0.17 0.16 0.15 0.13 0.11 0.11 0.11 0.11 0.13 0.20 0.25 0.29 0.36 0.43 0.50 0.59 0.70 0.82 0.96 1.16 1.41 1.53 1.45 1.30 1.42 1.64 1.63 1.39 1.21 1.06 0.95 0.90
0.20 0.19 0.18 0.17 0.17 0.18 0.18 0.17 0.16 0.13 0.11 0.11 0.11 0.11 0.12 0.16 0.18 0.24 0.31 0.38 0.45 0.51 0.62 0.79 0.94 1.08 1.31 1.47 1.48 1.35 1.31 1.43 1.48 1.45 1.53 1.32 0.92 0.64

GEFSNE_prec_meanprecacc_114.txt.gz
Total_Precipitation_Accumulation
0.14 0.16 0.19 0.17 0.18 0.20 0.24 0.35 0.52 0.38 0.10 0.02 0.02 0.03 0.08 0.13 0.14 0.12 0.11 0.14 0.19 0.24 0.29 0.33 0.41 0.58 0.89 1.37 1.94 2.83 3.41 3.06 2.29 1.74 1.58 1.78 2.14 2.57
0.18 0.20 0.21 0.21 0.24 0.26 0.28 0.29 0.38 0.48 0.28 0.03 0.02 0.04 0.09 0.16 0.17 0.14 0.13 0.14 0.16 0.18 0.20 0.23 0.28 0.40 0.62 0.94 1.34 1.90 2.77 3.24 3.00 2.47 2.01 1.99 2.12 2.44
0.18 0.22 0.24 0.26 0.33 0.35 0.39 0.38 0.34 0.38 0.38 0.09 0.02 0.04 0.12 0.20 0.19 0.14 0.14 0.13 0.11 0.13 0.16 0.20 0.24 0.32 0.47 0.68 0.93 1.28 1.89 2.65 3.09 3.09 2.70 2.37 2.25 2.27
0.21 0.25 0.28 0.31 0.36 0.41 0.48 0.49 0.41 0.36 0.41 0.25 0.06 0.05 0.12 0.23 0.27 0.21 0.18 0.16 0.11 0.12 0.16 0.21 0.27 0.33 0.41 0.54 0.72 0.95 1.30 1.85 2.42 2.82 2.89 2.56 2.37 2.36
0.25 0.31 0.35 0.39 0.38 0.41 0.51 0.56 0.50 0.42 0.42 0.38 0.18 0.08 0.11 0.23 0.33 0.31 0.26 0.24 0.18 0.15 0.16 0.19 0.24 0.30 0.37 0.45 0.59 0.75 0.92 1.12 1.55 2.14 2.70 2.77 2.55 2.48
0.19 0.24 0.36 0.50 0.55 0.59 0.60 0.59 0.60 0.61 0.56 0.51 0.36 0.21 0.18 0.25 0.41 0.46 0.39 0.34 0.29 0.23 0.20 0.19 0.22 0.28 0.32 0.35 0.38 0.50 0.68 0.94 1.23 1.67 2.15 2.56 2.62 2.55
0.18 0.20 0.31 0.52 0.69 0.88 0.95 0.84 0.83 0.89 0.84 0.78 0.66 0.49 0.36 0.39 0.49 0.53 0.59 0.49 0.43 0.35 0.26 0.20 0.20 0.20 0.21 0.26 0.31 0.36 0.48 0.66 0.90 1.23 1.65 2.02 2.35 2.51
0.21 0.20 0.28 0.49 0.63 0.73 0.87 0.90 0.96 1.12 1.18 1.11 0.96 0.78 0.55 0.45 0.49 0.61 0.74 0.79 0.67 0.49 0.38 0.30 0.27 0.25 0.21 0.20 0.25 0.30 0.39 0.53 0.72 0.97 1.26 1.59 1.94 2.27
0.20 0.19 0.23 0.35 0.47 0.56 0.60 0.62 0.69 0.85 1.10 1.23 1.18 0.88 0.69 0.56 0.66 0.78 0.79 0.88 0.78 0.72 0.69 0.60 0.39 0.33 0.26 0.28 0.32 0.32 0.38 0.47 0.59 0.77 1.03 1.28 1.57 1.91
0.19 0.16 0.14 0.22 0.35 0.52 0.61 0.58 0.54 0.63 0.87 1.12 1.29 1.11 0.92 0.88 1.03 1.18 1.18 1.14 0.97 0.93 0.92 0.97 0.69 0.48 0.39 0.35 0.35 0.32 0.36 0.43 0.51 0.62 0.80 1.02 1.24 1.56
0.17 0.15 0.12 0.13 0.28 0.48 0.52 0.48 0.42 0.48 0.61 0.84 1.00 1.03 1.01 1.12 1.34 1.64 1.71 1.60 1.34 1.11 1.03 1.03 1.00 0.86 0.76 0.61 0.51 0.43 0.38 0.40 0.46 0.55 0.67 0.83 1.04 1.38
0.14 0.14 0.16 0.21 0.31 0.40 0.41 0.44 0.53 0.48 0.45 0.49 0.53 0.55 0.61 0.73 1.05 1.47 1.70 1.69 1.46 1.38 1.24 1.10 1.16 1.19 1.34 1.09 0.79 0.56 0.44 0.44 0.46 0.52 0.58 0.66 0.84 1.04
0.19 0.19 0.15 0.22 0.29 0.33 0.39 0.44 0.59 0.55 0.46 0.51 0.51 0.46 0.44 0.53 0.70 1.01 1.41 1.69 1.68 1.50 1.35 1.35 1.47 1.25 1.28 1.29 1.04 0.77 0.54 0.47 0.46 0.53 0.58 0.62 0.70 0.77
0.21 0.17 0.13 0.19 0.25 0.32 0.36 0.41 0.47 0.49 0.46 0.44 0.39 0.36 0.39 0.47 0.59 0.76 1.02 1.32 1.50 1.44 1.29 1.39 1.68 1.41 1.14 1.05 1.02 0.95 0.72 0.59 0.50 0.49 0.51 0.67 0.77 0.80
0.28 0.27 0.20 0.23 0.25 0.21 0.21 0.28 0.33 0.33 0.40 0.42 0.36 0.31 0.36 0.46 0.53 0.61 0.71 0.93 1.14 1.20 1.23 1.32 1.54 1.54 1.34 1.09 0.85 0.82 0.82 0.81 0.66 0.58 0.56 0.57 0.59 0.63
0.30 0.24 0.21 0.21 0.17 0.12 0.11 0.13 0.15 0.21 0.32 0.38 0.34 0.29 0.28 0.34 0.45 0.57 0.68 0.79 1.00 1.09 1.17 1.33 1.57 1.76 1.65 1.15 0.91 0.78 0.69 0.86 0.85 0.71 0.64 0.61 0.56 0.50
0.38 0.37 0.28 0.22 0.20 0.15 0.12 0.09 0.09 0.13 0.19 0.24 0.29 0.32 0.32 0.34 0.38 0.47 0.67 0.78 0.93 1.01 1.13 1.39 1.66 1.78 1.81 1.57 1.26 0.92 0.69 0.69 0.78 0.75 0.71 0.73 0.72 0.61
0.41 0.41 0.27 0.20 0.19 0.17 0.15 0.12 0.10 0.11 0.13 0.19 0.26 0.30 0.35 0.38 0.40 0.42 0.57 0.76 0.89 0.96 1.03 1.23 1.59 1.83 1.96 1.94 1.54 1.10 0.83 0.76 0.86 0.86 0.77 0.75 0.82 0.77
0.32 0.25 0.17 0.15 0.15 0.14 0.15 0.15 0.12 0.10 0.13 0.18 0.22 0.24 0.29 0.35 0.39 0.42 0.49 0.64 0.76 0.88 1.00 1.12 1.37 1.68 1.82 1.93 1.90 1.41 1.02 0.88 0.98 1.12 1.00 0.78 0.71 0.77
0.18 0.18 0.17 0.15 0.15 0.17 0.17 0.17 0.15 0.13 0.14 0.15 0.16 0.18 0.24 0.31 0.36 0.38 0.45 0.58 0.69 0.80 0.93 1.04 1.25 1.48 1.60 1.56 1.62 1.64 1.45 1.13 1.00 1.16 1.18 1.01 0.88 0.95
0.14 0.15 0.15 0.17 0.18 0.18 0.17 0.16 0.16 0.14 0.12 0.13 0.13 0.14 0.18 0.26 0.31 0.32 0.40 0.48 0.60 0.72 0.81 0.90 1.08 1.27 1.48 1.51 1.41 1.38 1.56 1.57 1.19 1.07 1.14 1.16 1.12 1.13
0.15 0.17 0.15 0.17 0.19 0.19 0.18 0.17 0.16 0.13 0.11 0.12 0.11 0.12 0.14 0.20 0.26 0.29 0.36 0.44 0.51 0.60 0.71 0.82 0.96 1.16 1.42 1.55 1.46 1.31 1.43 1.64 1.63 1.39 1.22 1.07 0.96 0.91
0.20 0.20 0.18 0.18 0.18 0.19 0.19 0.18 0.17 0.14 0.11 0.12 0.12 0.11 0.13 0.17 0.19 0.25 0.32 0.39 0.46 0.52 0.62 0.79 0.94 1.09 1.31 1.47 1.48 1.36 1.32 1.44 1.49 1.45 1.54 1.33 0.93 0.65

GEFSNE_prec_meanprecacc_120.txt.gz
Total_Precipitation_Accumulation
0.14 0.16 0.19 0.17 0.18 0.20 0.24 0.35 0.52 0.39 0.10 0.02 0.02 0.03 0.08 0.13 0.14 0.12 0.11 0.14 0.19 0.24 0.29 0.33 0.41 0.58 0.90 1.37 1.94 2.84 3.42 3.07 2.30 1.75 1.60 1.81 2.17 2.60
0.19 0.21 0.21 0.21 0.24 0.26 0.28 0.29 0.38 0.48 0.29 0.03 0.02 0.04 0.09 0.16 0.17 0.14 0.13 0.14 0.16 0.18 0.20 0.23 0.28 0.40 0.62 0.94 1.34 1.90 2.78 3.25 3.01 2.49 2.03 2.02 2.15 2.47
0.19 0.23 0.24 0.26 0.34 0.36 0.39 0.38 0.34 0.38 0.38 0.09 0.02 0.04 0.12 0.20 0.20 0.14 0.14 0.13 0.11 0.13 0.16 0.20 0.24 0.32 0.48 0.69 0.94 1.29 1.90 2.66 3.10 3.11 2.72 2.39 2.27 2.29
0.22 0.25 0.28 0.31 0.36 0.41 0.48 0.49 0.42 0.36 0.41 0.25 0.06 0.05 0.12 0.23 0.27 0.21 0.18 0.16 0.11 0.12 0.16 0.21 0.27 0.33 0.41 0.55 0.72 0.96 1.31 1.87 2.43 2.83 2.91 2.58 2.39 2.39
0.25 0.31 0.36 0.40 0.39 0.42 0.52 0.56 0.50 0.42 0.42 0.38 0.18 0.08 0.11 0.23 0.33 0.31 0.26 0.24 0.18 0.15 0.16 0.19 0.24 0.30 0.37 0.45 0.59 0.76 0.93 1.13 1.56 2.15 2.71 2.79 2.57 2.50
0.20 0.25 0.36 0.50 0.55 0.59 0.60 0.59 0.60 0.61 0.56 0.51 0.36 0.21 0.18 0.25 0.41 0.46 0.40 0.34 0.29 0.23 0.20 0.19 0.22 0.28 0.32 0.35 0.39 0.50 0.69 0.95 1.25 1.68 2.17 2.58 2.64 2.58
0.18 0.20 0.31 0.52 0.69 0.88 0.95 0.84 0.83 0.90 0.85 0.79 0.66 0.49 0.37 0.39 0.49 0.53 0.59 0.49 0.43 0.35 0.26 0.20 0.21 0.20 0.21 0.26 0.31 0.36 0.48 0.67 0.91 1.24 1.66 2.04 2.37 2.54
0.21 0.20 0.28 0.49 0.63 0.73 0.87 0.90 0.96 1.12 1.18 1.11 0.97 0.78 0.55 0.46 0.49 0.61 0.74 0.80 0.67 0.49 0.39 0.30 0.28 0.25 0.21 0.20 0.25 0.30 0.40 0.54 0.73 0.98 1.28 1.61 1.96 2.30
0.20 0.19 0.23 0.35 0.47 0.56 0.60 0.63 0.69 0.85 1.10 1.23 1.19 0.88 0.69 0.56 0.67 0.79 0.80 0.89 0.79 0.72 0.70 0.60 0.40 0.33 0.27 0.28 0.32 0.32 0.38 0.48 0.60 0.78 1.04 1.30 1.60 1.94
0.19 0.16 0.14 0.22 0.35 0.53 0.62 0.58 0.54 0.63 0.87 1.12 1.29 1.11 0.92 0.88 1.04 1.19 1.20 1.15 0.98 0.93 0.92 0.98 0.69 0.48 0.39 0.35 0.35 0.32 0.36 0.43 0.52 0.63 0.82 1.04 1.26 1.58
0.17 0.16 0.12 0.14 0.28 0.48 0.52 0.48 0.42 0.48 0.61 0.85 1.01 1.03 1.01 1.13 1.35 1.65 1.72 1.61 1.35 1.11 1.03 1.04 1.00 0.86 0.76 0.61 0.51 0.43 0.38 0.40 0.47 0.56 0.68 0.84 1.05 1.40
0.14 0.14 0.16 0.22 0.31 0.40 0.41 0.44 0.53 0.48 0.46 0.49 0.53 0.55 0.61 0.73 1.05 1.47 1.70 1.71 1.48 1.39 1.24 1.10 1.16 1.19 1.35 1.10 0.79 0.56 0.44 0.44 0.47 0.52 0.59 0.67 0.85 1.05
0.19 0.19 0.15 0.23 0.30 0.33 0.39 0.44 0.59 0.55 0.47 0.51 0.51 0.46 0.45 0.53 0.70 1.01 1.41 1.70 1.69 1.52 1.36 1.36 1.49 1.26 1.30 1.29 1.05 0.77 0.54 0.47 0.46 0.53 0.58 0.62 0.70 0.79
0.21 0.17 0.13 0.19 0.25 0.33 0.36 0.41 0.47 0.49 0.46 0.44 0.39 0.36 0.39 0.47 0.59 0.77 1.03 1.33 1.50 1.45 1.30 1.41 1.71 1.42 1.16 1.06 1.02 0.95 0.72 0.59 0.50 0.49 0.51 0.67 0.77 0.80
0.29 0.27 0.20 0.23 0.25 0.21 0.21 0.28 0.33 0.34 0.40 0.42 0.36 0.31 0.36 0.46 0.53 0.61 0.71 0.94 1.15 1.20 1.23 1.32 1.56 1.56 1.36 1.12 0.86 0.82 0.82 0.81 0.67 0.58 0.56 0.57 0.59 0.64
0.30 0.24 0.21 0.21 0.17 0.12 0.11 0.13 0.15 0.21 0.32 0.38 0.35 0.29 0.28 0.35 0.45 0.58 0.69 0.79 1.00 1.09 1.17 1.33 1.58 1.78 1.66 1.16 0.91 0.78 0.70 0.87 0.85 0.71 0.64 0.61 0.57 0.50
0.39 0.37 0.28 0.22 0.20 0.16 0.12 0.09 0.09 0.13 0.20 0.24 0.30 0.32 0.33 0.35 0.38 0.48 0.67 0.79 0.94 1.01 1.13 1.39 1.67 1.79 1.81 1.57 1.27 0.92 0.70 0.70 0.78 0.75 0.72 0.73 0.72 0.61
0.41 0.41 0.27 0.20 0.19 0.17 0.15 0.12 0.10 0.11 0.13 0.19 0.26 0.31 0.35 0.39 0.40 0.43 0.58 0.76 0.89 0.96 1.04 1.23 1.59 1.83 1.96 1.94 1.55 1.10 0.83 0.77 0.87 0.87 0.78 0.75 0.83 0.77
0.32 0.25 0.17 0.15 0.15 0.14 0.15 0.15 0.13 0.10 0.13 0.18 0.22 0.24 0.29 0.36 0.40 0.43 0.50 0.64 0.77 0.89 1.00 1.12 1.38 1.68 1.83 1.93 1.90 1.42 1.03 0.89 0.98 1.13 1.00 0.78 0.72 0.78
0.18 0.18 0.17 0.15 0.16 0.17 0.17 0.17 0.15 0.13 0.14 0.15 0.16 0.19 0.24 0.32 0.37 0.39 0.45 0.59 0.70 0.81 0.93 1.04 1.26 1.49 1.61 1.57 1.63 1.64 1.46 1.13 1.01 1.16 1.18 1.01 0.88 0.95
0.14 0.15 0.15 0.17 0.18 0.18 0.17 0.16 0.16 0.15 0.12 0.13 0.13 0.14 0.18 0.27 0.32 0.33 0.40 0.49 0.61 0.72 0.81 0.90 1.09 1.28 1.49 1.52 1.41 1.38 1.56 1.57 1.20 1.08 1.15 1.16 1.12 1.13
0.16 0.17 0.16 0.17 0.19 0.19 0.18 0.17 0.16 0.14 0.12 0.12 0.12 0.12 0.15 0.21 0.27 0.30 0.37 0.44 0.51 0.60 0.71 0.83 0.96 1.17 1.42 1.55 1.46 1.31 1.43 1.65 1.64 1.40 1.23 1.09 0.98 0.92
0.20 0.20 0.18 0.18 0.18 0.19 0.19 0.18 0.17 0.14 0.12 0.12 0.12 0.12 0.14 0.17 0.20 0.26 0.33 0.39 0.46 0.52 0.63 0.79 0.94 1.09 1.32 1.48 1.49 1.36 1.32 1.44 1.49 1.45 1.54 1.33 0.93 0.65

GEFSNE_prec_meanprecacc_126.txt.gz
Total_Precipitation_Accumulation
0.16 0.17 0.21 0.19 0.19 0.21 0.25 0.36 0.53 0.39 0.10 0.02 0.02 0.03 0.08 0.13 0.14 0.12 0.11 0.14 0.19 0.24 0.29 0.33 0.41 0.58 0.90 1.38 1.95 2.84 3.43 3.08 2.31 1.76 1.61 1.83 2.19 2.62
0.21 0.23 0.23 0.22 0.24 0.27 0.29 0.30 0.39 0.49 0.29 0.04 0.02 0.04 0.09 0.16 0.17 0.14 0.13 0.14 0.16 0.18 0.20 0.23 0.28 0.40 0.63 0.95 1.35 1.91 2.79 3.26 3.03 2.51 2.05 2.04 2.17 2.50
0.20 0.24 0.25 0.27 0.35 0.37 0.40 0.39 0.35 0.38 0.39 0.09 0.02 0.04 0.12 0.20 0.20 0.14 0.14 0.13 0.11 0.13 0.16 0.20 0.24 0.33 0.48 0.69 0.94 1.30 1.92 2.68 3.12 3.13 2.74 2.42 2.30 2.32
0.23 0.26 0.29 0.31 0.37 0.42 0.49 0.50 0.42 0.36 0.41 0.26 0.06 0.05 0.12 0.23 0.27 0.21 0.18 0.16 0.11 0.12 0.16 0.21 0.27 0.33 0.42 0.55 0.73 0.97 1.32 1.88 2.45 2.85 2.92 2.60 2.41 2.42
0.26 0.32 0.37 0.40 0.39 0.42 0.52 0.56 0.50 0.42 0.42 0.38 0.18 0.08 0.12 0.23 0.33 0.31 0.26 0.24 0.18 0.15 0.16 0.19 0.24 0.31 0.37 0.46 0.60 0.76 0.94 1.14 1.57 2.16 2.73 2.81 2.59 2.53
0.21 0.25 0.37 0.51 0.55 0.59 0.61 0.59 0.60 0.61 0.56 0.52 0.36 0.21 0.18 0.25 0.41 0.47 0.40 0.34 0.29 0.23 0.20 0.19 0.22 0.28 0.32 0.35 0.39 0.51 0.69 0.96 1.25 1.70 2.18 2.60 2.66 2.60
0.18 0.20 0.32 0.53 0.70 0.89 0.95 0.84 0.83 0.90 0.85 0.79 0.66 0.49 0.37 0.40 0.49 0.53 0.59 0.49 0.44 0.35 0.26 0.21 0.21 0.20 0.21 0.26 0.31 0.37 0.48 0.67 0.92 1.26 1.68 2.06 2.39 2.56
0.22 0.21 0.29 0.49 0.63 0.73 0.87 0.90 0.96 1.12 1.19 1.11 0.97 0.78 0.55 0.46 0.50 0.61 0.75 0.80 0.68 0.50 0.39 0.30 0.28 0.26 0.21 0.20 0.25 0.31 0.40 0.55 0.75 0.99 1.29 1.63 1.98 2.32
0.21 0.20 0.24 0.36 0.48 0.56 0.60 0.63 0.69 0.85 1.10 1.23 1.19 0.88 0.69 0.57 0.67 0.79 0.81 0.90 0.80 0.73 0.70 0.61 0.40 0.34 0.27 0.28 0.32 0.32 0.39 0.49 0.61 0.79 1.05 1.31 1.61 1.96
0.19 0.17 0.14 0.22 0.35 0.53 0.62 0.58 0.54 0.63 0.88 1.12 1.30 1.11 0.92 0.89 1.04 1.20 1.21 1.16 0.99 0.93 0.93 0.99 0.69 0.48 0.39 0.35 0.35 0.33 0.36 0.44 0.52 0.64 0.83 1.05 1.27 1.60
0.17 0.16 0.12 0.14 0.29 0.48 0.52 0.48 0.42 0.48 0.61 0.85 1.01 1.04 1.02 1.13 1.35 1.65 1.73 1.63 1.36 1.12 1.03 1.05 1.00 0.87 0.76 0.62 0.51 0.43 0.38 0.40 0.47 0.57 0.69 0.85 1.06 1.42
0.15 0.15 0.17 0.22 0.32 0.41 0.42 0.45 0.53 0.49 0.46 0.49 0.53 0.56 0.62 0.73 1.05 1.48 1.71 1.73 1.50 1.40 1.24 1.11 1.17 1.20 1.36 1.10 0.79 0.56 0.44 0.44 0.47 0.52 0.59 0.67 0.86 1.06
0.20 0.20 0.15 0.23 0.30 0.34 0.40 0.44 0.60 0.55 0.47 0.51 0.51 0.46 0.45 0.53 0.71 1.01 1.42 1.71 1.71 1.53 1.37 1.38 1.51 1.27 1.31 1.30 1.05 0.77 0.54 0.47 0.46 0.53 0.58 0.63 0.71 0.80
0.21 0.17 0.13 0.19 0.26 0.33 0.36 0.42 0.48 0.49 0.47 0.44 0.39 0.37 0.40 0.47 0.59 0.77 1.03 1.33 1.51 1.46 1.30 1.42 1.73 1.44 1.18 1.07 1.02 0.95 0.72 0.59 0.50 0.49 0.51 0.67 0.77 0.80
0.29 0.27 0.20 0.23 0.25 0.21 0.22 0.29 0.33 0.34 0.41 0.43 0.37 0.32 0.36 0.47 0.53 0.61 0.72 0.94 1.15 1.20 1.23 1.33 1.57 1.57 1.38 1.13 0.87 0.82 0.82 0.81 0.67 0.58 0.56 0.57 0.60 0.64
0.30 0.24 0.21 0.21 0.17 0.13 0.11 0.14 0.16 0.22 0.33 0.39 0.35 0.30 0.29 0.35 0.46 0.58 0.69 0.80 1.01 1.09 1.17 1.34 1.58 1.79 1.67 1.17 0.92 0.79 0.70 0.87 0.85 0.71 0.64 0.61 0.57 0.50
0.39 0.37 0.28 0.22 0.20 0.16 0.12 0.09 0.09 0.13 0.20 0.25 0.30 0.33 0.33 0.35 0.39 0.48 0.68 0.80 0.95 1.02 1.13 1.39 1.67 1.79 1.82 1.58 1.27 0.93 0.70 0.70 0.78 0.76 0.72 0.73 0.72 0.61
0.42 0.42 0.27 0.20 0.19 0.17 0.15 0.13 0.10 0.11 0.13 0.19 0.27 0.31 0.36 0.40 0.41 0.43 0.58 0.77 0.90 0.97 1.04 1.24 1.59 1.84 1.96 1.94 1.55 1.11 0.84 0.77 0.87 0.87 0.78 0.76 0.83 0.78
0.32 0.25 0.18 0.15 0.15 0.15 0.15 0.15 0.13 0.10 0.13 0.19 0.22 0.25 0.30 0.36 0.41 0.44 0.51 0.65 0.78 0.89 1.01 1.13 1.38 1.69 1.83 1.94 1.91 1.42 1.03 0.89 0.99 1.13 1.01 0.79 0.72 0.78
0.18 0.18 0.17 0.15 0.16 0.17 0.17 0.17 0.15 0.13 0.14 0.15 0.17 0.19 0.24 0.33 0.38 0.40 0.46 0.60 0.70 0.81 0.93 1.04 1.26 1.50 1.63 1.58 1.64 1.64 1.46 1.14 1.01 1.17 1.18 1.01 0.88 0.95
0.14 0.15 0.15 0.17 0.18 0.18 0.17 0.16 0.16 0.15 0.13 0.13 0.14 0.15 0.19 0.27 0.32 0.34 0.41 0.49 0.61 0.73 0.81 0.90 1.09 1.28 1.49 1.53 1.42 1.38 1.56 1.57 1.21 1.09 1.16 1.17 1.13 1.14
0.16 0.17 0.16 0.17 0.19 0.19 0.18 0.17 0.17 0.14 0.12 0.13 0.12 0.12 0.15 0.22 0.27 0.30 0.37 0.45 0.52 0.61 0.72 0.83 0.96 1.17 1.43 1.56 1.46 1.31 1.43 1.65 1.64 1.40 1.24 1.10 1.00 0.94
0.20 0.20 0.18 0.18 0.18 0.19 0.19 0.18 0.17 0.14 0.12 0.12 0.13 0.12 0.14 0.18 0.20 0.26 0.33 0.40 0.47 0.52 0.63 0.80 0.94 1.09 1.32 1.48 1.49 1.37 1.32 1.44 1.49 1.45 1.54 1.33 0.94 0.67

GEFSNE_prec_meanprecacc_132.txt.gz
Total_Precipitation_Accumulation
0.16 0.18 0.22 0.19 0.20 0.22 0.25 0.36 0.53 0.39 0.10 0.02 0.02 0.04 0.08 0.13 0.14 0.12 0.11 0.14 0.19 0.24 0.29 0.33 0.41 0.58 0.90 1.38 1.95 2.85 3.44 3.09 2.33 1.78 1.63 1.86 2.23 2.66
0.22 0.23 0.23 0.23 0.25 0.27 0.29 0.30 0.39 0.49 0.29 0.04 0.02 0.04 0.09 0.16 0.17 0.14 0.13 0.14 0.16 0.18 0.20 0.23 0.29 0.41 0.63 0.95 1.36 1.92 2.80 3.28 3.05 2.53 2.08 2.08 2.21 2.54
0.20 0.24 0.25 0.27 0.35 0.37 0.40 0.39 0.35 0.39 0.39 0.09 0.02 0.05 0.12 0.20 0.20 0.14 0.14 0.13 0.11 0.14 0.16 0.20 0.24 0.33 0.48 0.70 0.95 1.31 1.93 2.69 3.14 3.15 2.76 2.45 2.33 2.36
0.24 0.27 0.30 0.32 0.38 0.42 0.50 0.51 0.43 0.37 0.42 0.26 0.07 0.05 0.12 0.23 0.27 0.21 0.18 0.16 0.11 0.12 0.16 0.21 0.27 0.33 0.42 0.56 0.74 0.98 1.33 1.89 2.46 2.86 2.94 2.62 2.43 2.44
0.27 0.34 0.38 0.41 0.40 0.43 0.53 0.57 0.51 0.43 0.43 0.39 0.18 0.08 0.12 0.23 0.33 0.31 0.26 0.24 0.18 0.15 0.16 0.19 0.24 0.31 0.38 0.46 0.61 0.77 0.95 1.15 1.58 2.17 2.74 2.82 2.61 2.55
0.21 0.26 0.38 0.52 0.56 0.60 0.62 0.60 0.62 0.62 0.57 0.52 0.36 0.21 0.18 0.25 0.41 0.47 0.40 0.34 0.29 0.23 0.20 0.19 0.22 0.28 0.33 0.36 0.40 0.51 0.70 0.96 1.26 1.71 2.20 2.62 2.68 2.62
0.19 0.21 0.33 0.54 0.71 0.90 0.96 0.85 0.85 0.91 0.86 0.80 0.67 0.49 0.37 0.40 0.49 0.54 0.60 0.49 0.44 0.35 0.26 0.21 0.21 0.21 0.21 0.27 0.32 0.37 0.49 0.68 0.93 1.27 1.70 2.08 2.41 2.58
0.23 0.22 0.29 0.50 0.65 0.75 0.88 0.91 0.98 1.13 1.19 1.12 0.97 0.78 0.55 0.46 0.50 0.62 0.75 0.81 0.68 0.50 0.39 0.31 0.28 0.26 0.21 0.20 0.25 0.31 0.41 0.56 0.76 1.01 1.31 1.64 2.00 2.34
0.21 0.20 0.24 0.36 0.48 0.57 0.61 0.64 0.70 0.86 1.11 1.24 1.19 0.89 0.70 0.57 0.68 0.80 0.81 0.91 0.81 0.73 0.71 0.61 0.40 0.34 0.27 0.28 0.32 0.33 0.40 0.50 0.62 0.80 1.07 1.33 1.63 1.98
0.19 0.17 0.15 0.22 0.36 0.54 0.63 0.59 0.55 0.63 0.88 1.13 1.30 1.12 0.93 0.89 1.05 1.21 1.22 1.17 1.00 0.94 0.93 1.00 0.70 0.49 0.39 0.35 0.36 0.33 0.37 0.44 0.53 0.65 0.84 1.06 1.29 1.61
0.18 0.16 0.13 0.14 0.29 0.49 0.53 0.48 0.42 0.49 0.61 0.85 1.01 1.04 1.02 1.14 1.36 1.67 1.74 1.64 1.37 1.12 1.04 1.06 1.01 0.87 0.76 0.62 0.51 0.43 0.38 0.41 0.48 0.57 0.70 0.86 1.08 1.44
0.16 0.15 0.18 0.23 0.32 0.41 0.42 0.45 0.54 0.49 0.46 0.50 0.53 0.56 0.62 0.73 1.06 1.49 1.72 1.74 1.52 1.42 1.25 1.12 1.18 1.21 1.37 1.10 0.79 0.56 0.44 0.45 0.47 0.52 0.60 0.68 0.87 1.07
0.20 0.20 0.15 0.24 0.31 0.34 0.40 0.45 0.60 0.56 0.48 0.52 0.51 0.47 0.45 0.54 0.71 1.02 1.43 1.73 1.73 1.56 1.38 1.40 1.52 1.28 1.33 1.31 1.05 0.77 0.54 0.47 0.46 0.53 0.59 0.63 0.71 0.81
0.21 0.17 0.13 0.20 0.26 0.33 0.37 0.42 0.48 0.50 0.47 0.45 0.40 0.37 0.40 0.48 0.60 0.78 1.04 1.34 1.52 1.47 1.31 1.44 1.75 1.45 1.20 1.09 1.03 0.95 0.72 0.59 0.50 0.49 0.51 0.68 0.77 0.81
0.29 0.28 0.21 0.24 0.25 0.22 0.22 0.29 0.34 0.34 0.41 0.43 0.37 0.32 0.37 0.47 0.54 0.62 0.72 0.94 1.15 1.21 1.24 1.34 1.58 1.58 1.40 1.15 0.88 0.83 0.82 0.82 0.67 0.58 0.56 0.57 0.60 0.64
0.31 0.25 0.22 0.21 0.17 0.13 0.12 0.14 0.16 0.22 0.33 0.39 0.36 0.30 0.29 0.36 0.46 0.59 0.70 0.81 1.01 1.10 1.18 1.34 1.59 1.79 1.68 1.18 0.93 0.80 0.71 0.88 0.86 0.71 0.64 0.61 0.57 0.51
0.39 0.37 0.28 0.22 0.20 0.16 0.12 0.10 0.09 0.13 0.20 0.25 0.30 0.33 0.34 0.36 0.39 0.49 0.68 0.81 0.96 1.03 1.15 1.40 1.68 1.80 1.82 1.58 1.27 0.93 0.70 0.70 0.79 0.76 0.73 0.73 0.72 0.61
0.42 0.42 0.27 0.20 0.19 0.17 0.16 0.13 0.11 0.11 0.13 0.20 0.27 0.32 0.36 0.40 0.41 0.44 0.59 0.78 0.91 0.98 1.05 1.25 1.60 1.84 1.97 1.94 1.55 1.11 0.84 0.77 0.87 0.87 0.78 0.76 0.83 0.78
0.32 0.25 0.18 0.15 0.15 0.15 0.16 0.16 0.13 0.10 0.13 0.19 0.23 0.25 0.30 0.37 0.41 0.44 0.51 0.66 0.79 0.90 1.02 1.13 1.39 1.70 1.84 1.94 1.91 1.42 1.03 0.89 0.99 1.13 1.01 0.79 0.73 0.78
0.18 0.18 0.17 0.15 0.16 0.17 0.17 0.17 0.15 0.13 0.14 0.15 0.17 0.19 0.25 0.33 0.38 0.40 0.47 0.60 0.71 0.82 0.94 1.05 1.27 1.52 1.65 1.60 1.65 1.64 1.46 1.14 1.02 1.17 1.19 1.01 0.89 0.96
0.14 0.15 0.15 0.17 0.18 0.18 0.17 0.16 0.16 0.15 0.13 0.13 0.14 0.15 0.19 0.27 0.33 0.34 0.41 0.50 0.62 0.73 0.82 0.91 1.09 1.29 1.50 1.54 1.43 1.39 1.56 1.58 1.21 1.10 1.16 1.18 1.13 1.14
0.16 0.17 0.16 0.17 0.19 0.19 0.18 0.17 0.17 0.14 0.12 0.13 0.12 0.13 0.15 0.22 0.28 0.31 0.38 0.45 0.52 0.61 0.72 0.83 0.96 1.17 1.43 1.57 1.47 1.32 1.43 1.65 1.64 1.40 1.24 1.12 1.03 0.97
0.20 0.20 0.18 0.18 0.18 0.19 0.19 0.18 0.17 0.14 0.12 0.13 0.13 0.12 0.14 0.18 0.21 0.27 0.34 0.40 0.47 0.53 0.63 0.80 0.95 1.10 1.33 1.48 1.50 1.37 1.32 1.44 1.49 1.45 1.54 1.34 0.94 0.67

GEFSNE_prec_meanprecacc_138.txt.gz
Total_Precipitation_Accumulation
0.16 0.18 0.22 0.19 0.20 0.22 0.26 0.37 0.54 0.40 0.10 0.02 0.02 0.04 0.08 0.13 0.14 0.12 0.11 0.14 0.19 0.24 0.29 0.33 0.41 0.59 0.90 1.39 1.96 2.86 3.45 3.11 2.34 1.80 1.66 1.88 2.26 2.70
0.22 0.24 0.24 0.23 0.25 0.28 0.30 0.31 0.40 0.50 0.30 0.04 0.03 0.04 0.09 0.16 0.17 0.14 0.13 0.15 0.16 0.18 0.20 0.23 0.29 0.41 0.64 0.96 1.36 1.93 2.82 3.30 3.07 2.55 2.10 2.11 2.25 2.58
0.21 0.25 0.26 0.28 0.36 0.39 0.42 0.41 0.37 0.41 0.41 0.10 0.03 0.05 0.12 0.20 0.20 0.15 0.14 0.13 0.11 0.14 0.16 0.20 0.25 0.33 0.49 0.70 0.96 1.32 1.94 2.71 3.15 3.17 2.79 2.48 2.36 2.39
0.25 0.29 0.31 0.33 0.39 0.44 0.51 0.52 0.45 0.39 0.43 0.27 0.07 0.05 0.13 0.23 0.27 0.21 0.18 0.16 0.11 0.12 0.16 0.21 0.27 0.34 0.43 0.57 0.75 0.99 1.34 1.90 2.47 2.88 2.96 2.64 2.46 2.47
0.29 0.35 0.39 0.43 0.42 0.44 0.55 0.59 0.53 0.45 0.44 0.41 0.20 0.09 0.12 0.24 0.34 0.32 0.26 0.24 0.18 0.15 0.17 0.20 0.24 0.31 0.38 0.47 0.61 0.78 0.96 1.16 1.59 2.19 2.76 2.85 2.64 2.58
0.22 0.27 0.40 0.54 0.59 0.64 0.65 0.63 0.64 0.64 0.59 0.54 0.38 0.22 0.19 0.26 0.42 0.47 0.40 0.34 0.29 0.24 0.20 0.19 0.22 0.28 0.33 0.36 0.40 0.52 0.70 0.97 1.28 1.73 2.22 2.64 2.70 2.64
0.20 0.23 0.35 0.58 0.76 0.94 1.00 0.88 0.87 0.93 0.88 0.82 0.69 0.51 0.38 0.41 0.50 0.54 0.60 0.50 0.44 0.36 0.27 0.21 0.21 0.21 0.21 0.27 0.32 0.37 0.50 0.70 0.95 1.29 1.71 2.10 2.43 2.61
0.24 0.23 0.31 0.53 0.67 0.77 0.91 0.93 0.99 1.14 1.21 1.13 0.99 0.79 0.56 0.47 0.51 0.63 0.76 0.81 0.69 0.50 0.40 0.31 0.28 0.26 0.22 0.20 0.26 0.32 0.42 0.57 0.77 1.02 1.32 1.66 2.02 2.37
0.23 0.22 0.26 0.38 0.50 0.58 0.63 0.66 0.72 0.88 1.12 1.24 1.20 0.90 0.71 0.58 0.69 0.81 0.82 0.91 0.81 0.73 0.72 0.62 0.40 0.34 0.27 0.28 0.32 0.33 0.41 0.51 0.63 0.81 1.08 1.35 1.65 2.00
0.21 0.19 0.17 0.24 0.37 0.55 0.64 0.60 0.55 0.64 0.89 1.13 1.31 1.13 0.94 0.90 1.06 1.22 1.23 1.18 1.00 0.94 0.94 1.00 0.70 0.49 0.39 0.35 0.36 0.33 0.37 0.45 0.54 0.65 0.85 1.08 1.31 1.64
0.19 0.17 0.14 0.15 0.31 0.50 0.54 0.49 0.43 0.50 0.62 0.86 1.02 1.04 1.03 1.15 1.37 1.67 1.74 1.65 1.38 1.12 1.04 1.06 1.01 0.87 0.76 0.62 0.51 0.43 0.38 0.41 0.48 0.58 0.70 0.87 1.09 1.45
0.17 0.16 0.19 0.24 0.33 0.42 0.43 0.46 0.54 0.50 0.47 0.50 0.54 0.57 0.62 0.74 1.06 1.49 1.73 1.75 1.53 1.44 1.26 1.13 1.19 1.22 1.37 1.10 0.79 0.56 0.44 0.45 0.47 0.53 0.60 0.68 0.88 1.08
0.20 0.21 0.16 0.24 0.31 0.35 0.40 0.45 0.61 0.57 0.48 0.53 0.52 0.47 0.46 0.54 0.71 1.03 1.44 1.73 1.74 1.57 1.39 1.41 1.54 1.29 1.34 1.32 1.05 0.77 0.54 0.47 0.46 0.53 0.59 0.63 0.72 0.81
0.22 0.18 0.14 0.20 0.26 0.34 0.37 0.43 0.49 0.51 0.48 0.45 0.41 0.38 0.41 0.48 0.60 0.78 1.04 1.34 1.52 1.47 1.32 1.45 1.76 1.47 1.21 1.10 1.03 0.95 0.72 0.59 0.50 0.49 0.51 0.68 0.78 0.81
0.29 0.28 0.21 0.24 0.26 0.22 0.23 0.30 0.34 0.35 0.41 0.43 0.38 0.33 0.37 0.48 0.54 0.62 0.73 0.95 1.15 1.21 1.24 1.34 1.59 1.59 1.41 1.16 0.88 0.83 0.83 0.82 0.67 0.58 0.56 0.57 0.60 0.64
0.31 0.25 0.22 0.22 0.18 0.14 0.12 0.14 0.16 0.22 0.33 0.39 0.36 0.31 0.29 0.36 0.47 0.59 0.70 0.81 1.01 1.10 1.18 1.34 1.59 1.80 1.69 1.18 0.93 0.80 0.71 0.88 0.86 0.71 0.64 0.61 0.57 0.51
0.40 0.38 0.29 0.23 0.21 0.16 0.12 0.10 0.10 0.13 0.20 0.25 0.30 0.33 0.34 0.36 0.39 0.49 0.68 0.81 0.96 1.03 1.15 1.41 1.68 1.80 1.83 1.58 1.28 0.93 0.70 0.70 0.79 0.76 0.73 0.73 0.72 0.61
0.43 0.43 0.28 0.21 0.20 0.18 0.16 0.13 0.11 0.11 0.14 0.20 0.27 0.32 0.37 0.40 0.41 0.44 0.59 0.78 0.91 0.98 1.05 1.25 1.60 1.84 1.97 1.94 1.55 1.11 0.84 0.77 0.87 0.87 0.78 0.76 0.83 0.78
0.33 0.26 0.18 0.16 0.16 0.15 0.16 0.16 0.13 0.10 0.13 0.19 0.23 0.25 0.30 0.37 0.42 0.44 0.51 0.66 0.79 0.91 1.02 1.13 1.39 1.71 1.85 1.95 1.91 1.42 1.03 0.89 0.99 1.13 1.01 0.79 0.73 0.78
0.18 0.18 0.17 0.16 0.16 0.17 0.17 0.17 0.15 0.13 0.14 0.15 0.17 0.19 0.25 0.33 0.38 0.40 0.47 0.61 0.71 0.82 0.94 1.05 1.27 1.52 1.67 1.61 1.66 1.64 1.46 1.14 1.02 1.17 1.19 1.01 0.89 0.96
0.15 0.15 0.16 0.18 0.19 0.18 0.17 0.16 0.16 0.15 0.13 0.13 0.14 0.15 0.19 0.28 0.33 0.34 0.41 0.50 0.62 0.74 0.82 0.91 1.10 1.29 1.50 1.54 1.43 1.39 1.56 1.58 1.21 1.10 1.17 1.19 1.14 1.14
0.16 0.17 0.16 0.17 0.19 0.19 0.18 0.17 0.17 0.14 0.12 0.13 0.12 0.13 0.15 0.22 0.28 0.31 0.38 0.45 0.52 0.62 0.72 0.83 0.96 1.17 1.43 1.57 1.47 1.32 1.43 1.65 1.64 1.40 1.24 1.13 1.05 1.00
0.20 0.20 0.20 0.18 0.18 0.19 0.19 0.18 0.17 0.14 0.12 0.13 0.13 0.12 0.14 0.18 0.21 0.27 0.34 0.40 0.47 0.53 0.64 0.80 0.95 1.10 1.33 1.49 1.50 1.37 1.32 1.44 1.49 1.45 1.54 1.34 0.95 0.68

GEFSNE_prec_meanprecacc_144.txt.gz
Total_Precipitation_Accumulation
0.16 0.18 0.22 0.20 0.20 0.22 0.26 0.37 0.55 0.41 0.11 0.02 0.02 0.04 0.08 0.13 0.14 0.13 0.11 0.14 0.19 0.24 0.29 0.33 0.41 0.59 0.91 1.39 1.97 2.87 3.46 3.12 2.36 1.82 1.69 1.92 2.31 2.76
0.22 0.24 0.24 0.23 0.26 0.28 0.31 0.32 0.41 0.52 0.31 0.05 0.03 0.04 0.09 0.16 0.18 0.14 0.13 0.15 0.16 0.18 0.20 0.23 0.29 0.41 0.64 0.96 1.37 1.94 2.83 3.31 3.09 2.58 2.14 2.15 2.30 2.63
0.21 0.26 0.27 0.29 0.37 0.40 0.43 0.42 0.38 0.42 0.43 0.11 0.03 0.06 0.14 0.21 0.21 0.15 0.15 0.14 0.11 0.14 0.17 0.21 0.25 0.33 0.49 0.71 0.97 1.33 1.96 2.72 3.17 3.19 2.82 2.51 2.41 2.43
0.26 0.30 0.33 0.36 0.41 0.46 0.53 0.53 0.46 0.40 0.46 0.30 0.10 0.07 0.14 0.25 0.28 0.22 0.18 0.16 0.12 0.12 0.16 0.21 0.28 0.34 0.43 0.58 0.75 1.00 1.36 1.92 2.49 2.90 2.99 2.67 2.49 2.51
0.30 0.37 0.42 0.45 0.44 0.46 0.56 0.62 0.57 0.50 0.50 0.45 0.23 0.11 0.14 0.25 0.35 0.32 0.27 0.25 0.19 0.15 0.17 0.20 0.25 0.32 0.39 0.47 0.62 0.79 0.97 1.18 1.61 2.21 2.78 2.87 2.66 2.61
0.25 0.30 0.41 0.56 0.62 0.67 0.69 0.68 0.69 0.69 0.63 0.58 0.42 0.25 0.21 0.27 0.43 0.48 0.41 0.35 0.29 0.24 0.21 0.19 0.22 0.29 0.33 0.37 0.41 0.53 0.72 0.99 1.30 1.75 2.24 2.66 2.73 2.67
0.22 0.24 0.36 0.59 0.79 0.98 1.04 0.93 0.92 0.98 0.92 0.85 0.72 0.53 0.40 0.41 0.51 0.54 0.60 0.50 0.44 0.36 0.27 0.21 0.21 0.21 0.22 0.27 0.32 0.38 0.51 0.71 0.96 1.31 1.74 2.12 2.46 2.63
0.25 0.24 0.32 0.55 0.70 0.81 0.95 0.97 1.02 1.17 1.23 1.15 1.00 0.80 0.57 0.48 0.52 0.63 0.76 0.82 0.69 0.51 0.40 0.31 0.29 0.26 0.22 0.21 0.26 0.32 0.43 0.58 0.79 1.04 1.34 1.68 2.04 2.39
0.24 0.24 0.28 0.41 0.54 0.61 0.66 0.68 0.73 0.89 1.13 1.25 1.20 0.90 0.72 0.59 0.69 0.81 0.82 0.92 0.82 0.74 0.72 0.62 0.41 0.34 0.27 0.28 0.33 0.34 0.41 0.52 0.64 0.82 1.09 1.36 1.67 2.02
0.23 0.22 0.20 0.27 0.40 0.57 0.65 0.61 0.56 0.65 0.90 1.14 1.32 1.13 0.94 0.91 1.06 1.22 1.23 1.18 1.01 0.95 0.94 1.01 0.70 0.49 0.40 0.36 0.36 0.33 0.38 0.45 0.55 0.66 0.86 1.09 1.32 1.65
0.21 0.20 0.16 0.17 0.33 0.52 0.55 0.50 0.44 0.50 0.63 0.87 1.03 1.05 1.03 1.15 1.37 1.68 1.75 1.66 1.39 1.13 1.05 1.07 1.02 0.88 0.76 0.62 0.51 0.43 0.39 0.41 0.48 0.59 0.71 0.88 1.10 1.46
0.19 0.18 0.21 0.26 0.35 0.44 0.44 0.47 0.55 0.51 0.48 0.51 0.55 0.58 0.64 0.75 1.07 1.50 1.74 1.76 1.54 1.45 1.27 1.14 1.19 1.22 1.37 1.10 0.79 0.56 0.44 0.45 0.47 0.53 0.60 0.69 0.88 1.08
0.22 0.22 0.17 0.26 0.33 0.37 0.42 0.46 0.62 0.58 0.49 0.54 0.53 0.48 0.47 0.55 0.72 1.03 1.44 1.74 1.75 1.58 1.40 1.42 1.54 1.30 1.34 1.32 1.05 0.77 0.54 0.47 0.46 0.53 0.59 0.63 0.72 0.82
0.24 0.19 0.15 0.22 0.28 0.35 0.39 0.44 0.50 0.52 0.49 0.46 0.41 0.39 0.41 0.49 0.61 0.78 1.04 1.35 1.53 1.48 1.32 1.45 1.77 1.47 1.22 1.10 1.03 0.95 0.72 0.59 0.50 0.49 0.51 0.68 0.78 0.81
0.31 0.30 0.23 0.26 0.28 0.24 0.24 0.31 0.36 0.36 0.42 0.44 0.38 0.33 0.37 0.48 0.54 0.63 0.73 0.95 1.16 1.21 1.24 1.34 1.59 1.59 1.41 1.17 0.89 0.83 0.83 0.82 0.67 0.58 0.56 0.57 0.60 0.64
0.33 0.27 0.24 0.24 0.20 0.16 0.14 0.16 0.18 0.23 0.34 0.40 0.36 0.31 0.30 0.36 0.47 0.59 0.70 0.81 1.02 1.10 1.18 1.34 1.59 1.80 1.69 1.18 0.94 0.80 0.71 0.89 0.86 0.72 0.64 0.61 0.57 0.51
0.41 0.39 0.31 0.25 0.23 0.18 0.14 0.11 0.10 0.14 0.21 0.26 0.31 0.34 0.34 0.36 0.40 0.49 0.68 0.81 0.96 1.03 1.15 1.41 1.68 1.80 1.83 1.59 1.28 0.93 0.71 0.70 0.79 0.76 0.73 0.73 0.72 0.61
0.45 0.44 0.30 0.22 0.21 0.19 0.17 0.14 0.11 0.12 0.14 0.21 0.28 0.32 0.37 0.40 0.42 0.44 0.59 0.78 0.91 0.98 1.05 1.25 1.60 1.84 1.97 1.94 1.55 1.11 0.84 0.77 0.87 0.87 0.78 0.76 0.83 0.78
0.34 0.27 0.20 0.18 0.17 0.17 0.17 0.17 0.14 0.11 0.14 0.20 0.23 0.26 0.31 0.37 0.42 0.44 0.51 0.66 0.79 0.91 1.02 1.13 1.39 1.71 1.86 1.95 1.91 1.42 1.03 0.89 0.99 1.13 1.01 0.80 0.73 0.78
0.19 0.19 0.18 0.17 0.18 0.19 0.19 0.19 0.17 0.15 0.16 0.16 0.17 0.19 0.25 0.33 0.38 0.40 0.47 0.61 0.71 0.82 0.94 1.05 1.27 1.53 1.68 1.62 1.66 1.64 1.46 1.14 1.02 1.18 1.19 1.01 0.89 0.96
0.16 0.16 0.17 0.19 0.20 0.20 0.19 0.18 0.18 0.16 0.14 0.14 0.15 0.15 0.19 0.28 0.33 0.34 0.42 0.50 0.62 0.74 0.82 0.91 1.10 1.29 1.51 1.54 1.43 1.39 1.56 1.58 1.21 1.10 1.18 1.19 1.14 1.14
0.17 0.18 0.17 0.19 0.21 0.21 0.20 0.19 0.18 0.15 0.13 0.13 0.13 0.13 0.15 0.22 0.28 0.31 0.38 0.46 0.52 0.62 0.72 0.83 0.97 1.18 1.43 1.57 1.48 1.32 1.43 1.65 1.64 1.40 1.24 1.13 1.07 1.02
0.20 0.21 0.20 0.20 0.20 0.21 0.21 0.20 0.18 0.15 0.12 0.13 0.13 0.12 0.14 0.18 0.21 0.27 0.34 0.40 0.47 0.53 0.64 0.80 0.95 1.10 1.33 1.49 1.50 1.37 1.32 1.44 1.49 1.45 1.54 1.34 0.95 0.69

GEFSNE_prec_meanprecacc_150.txt.gz
Total_Precipitation_Accumulation
0.17 0.18 0.22 0.20 0.20 0.23 0.26 0.38 0.55 0.42 0.11 0.02 0.02 0.04 0.08 0.13 0.14 0.13 0.11 0.14 0.20 0.24 0.29 0.34 0.41 0.59 0.91 1.40 1.97 2.88 3.47 3.13 2.37 1.84 1.71 1.95 2.35 2.80
0.22 0.24 0.24 0.23 0.26 0.28 0.31 0.33 0.42 0.52 0.32 0.05 0.03 0.05 0.09 0.17 0.18 0.14 0.14 0.16 0.17 0.19 0.21 0.23 0.29 0.42 0.64 0.97 1.37 1.95 2.84 3.33 3.11 2.60 2.16 2.18 2.33 2.67
0.21 0.26 0.27 0.29 0.38 0.40 0.43 0.42 0.39 0.43 0.44 0.12 0.04 0.06 0.14 0.22 0.22 0.16 0.16 0.14 0.12 0.14 0.17 0.21 0.25 0.34 0.49 0.71 0.97 1.34 1.97 2.74 3.19 3.21 2.84 2.54 2.44 2.46
0.26 0.30 0.34 0.36 0.41 0.46 0.54 0.55 0.47 0.42 0.48 0.32 0.11 0.09 0.16 0.26 0.29 0.23 0.19 0.16 0.12 0.13 0.17 0.22 0.28 0.34 0.44 0.58 0.76 1.01 1.37 1.93 2.51 2.92 3.01 2.69 2.52 2.53
0.31 0.37 0.42 0.46 0.45 0.48 0.58 0.64 0.59 0.52 0.52 0.48 0.25 0.13 0.15 0.26 0.36 0.32 0.27 0.25 0.19 0.15 0.17 0.20 0.25 0.32 0.39 0.48 0.63 0.80 0.98 1.19 1.62 2.23 2.80 2.89 2.68 2.63
0.25 0.31 0.43 0.57 0.63 0.68 0.70 0.69 0.71 0.72 0.66 0.61 0.44 0.27 0.23 0.28 0.44 0.49 0.41 0.35 0.30 0.24 0.21 0.19 0.23 0.29 0.34 0.37 0.41 0.54 0.73 1.00 1.31 1.77 2.26 2.68 2.74 2.68
0.23 0.25 0.37 0.60 0.80 1.00 1.06 0.95 0.95 1.01 0.94 0.87 0.74 0.56 0.42 0.43 0.51 0.55 0.61 0.50 0.44 0.36 0.27 0.21 0.21 0.21 0.22 0.28 0.33 0.39 0.52 0.72 0.97 1.32 1.74 2.14 2.47 2.65
0.26 0.25 0.33 0.56 0.72 0.84 0.98 0.99 1.04 1.19 1.25 1.18 1.03 0.83 0.58 0.49 0.52 0.64 0.77 0.82 0.69 0.51 0.40 0.31 0.29 0.27 0.22 0.21 0.26 0.33 0.43 0.59 0.79 1.05 1.35 1.69 2.05 2.40
0.26 0.25 0.29 0.43 0.56 0.63 0.68 0.70 0.75 0.91 1.14 1.26 1.22 0.91 0.72 0.60 0.70 0.82 0.83 0.92 0.82 0.74 0.72 0.63 0.41 0.35 0.28 0.29 0.33 0.34 0.41 0.52 0.64 0.83 1.10 1.37 1.68 2.03
0.26 0.24 0.22 0.29 0.42 0.59 0.67 0.62 0.57 0.66 0.91 1.15 1.32 1.14 0.94 0.91 1.07 1.23 1.24 1.19 1.01 0.95 0.95 1.01 0.70 0.49 0.40 0.36 0.36 0.34 0.38 0.45 0.55 0.66 0.87 1.09 1.33 1.66
0.25 0.23 0.18 0.19 0.36 0.54 0.56 0.51 0.45 0.52 0.64 0.88 1.03 1.06 1.04 1.16 1.38 1.69 1.76 1.67 1.40 1.14 1.05 1.07 1.02 0.88 0.77 0.62 0.51 0.43 0.39 0.41 0.48 0.59 0.71 0.88 1.10 1.46
0.21 0.20 0.23 0.27 0.37 0.46 0.45 0.47 0.56 0.51 0.48 0.52 0.56 0.59 0.65 0.76 1.08 1.51 1.75 1.77 1.55 1.45 1.27 1.14 1.19 1.22 1.38 1.10 0.79 0.56 0.44 0.45 0.47 0.53 0.60 0.69 0.89 1.09
0.24 0.23 0.19 0.29 0.36 0.38 0.43 0.47 0.63 0.58 0.50 0.54 0.54 0.49 0.47 0.55 0.73 1.03 1.44 1.74 1.75 1.58 1.40 1.42 1.54 1.30 1.35 1.32 1.05 0.78 0.54 0.47 0.46 0.53 0.59 0.64 0.72 0.82
0.27 0.22 0.18 0.25 0.31 0.37 0.40 0.45 0.52 0.53 0.50 0.47 0.42 0.40 0.42 0.50 0.62 0.80 1.05 1.35 1.53 1.48 1.32 1.45 1.77 1.48 1.23 1.11 1.03 0.95 0.72 0.59 0.50 0.49 0.51 0.68 0.78 0.81
0.35 0.34 0.27 0.29 0.31 0.26 0.27 0.34 0.38 0.37 0.44 0.46 0.40 0.35 0.39 0.50 0.56 0.64 0.74 0.96 1.16 1.21 1.24 1.34 1.59 1.60 1.42 1.18 0.89 0.83 0.83 0.82 0.67 0.58 0.56 0.57 0.60 0.64
0.38 0.32 0.29 0.27 0.23 0.18 0.17 0.18 0.19 0.25 0.35 0.42 0.38 0.33 0.32 0.38 0.48 0.61 0.71 0.82 1.03 1.11 1.18 1.34 1.59 1.80 1.69 1.19 0.94 0.80 0.71 0.89 0.86 0.72 0.64 0.61 0.57 0.51
0.45 0.43 0.34 0.27 0.25 0.20 0.15 0.12 0.12 0.16 0.23 0.28 0.33 0.35 0.36 0.38 0.41 0.51 0.70 0.83 0.97 1.03 1.15 1.41 1.68 1.80 1.83 1.59 1.28 0.93 0.71 0.70 0.79 0.76 0.73 0.73 0.72 0.61
0.48 0.47 0.32 0.24 0.23 0.20 0.18 0.15 0.13 0.14 0.16 0.23 0.30 0.34 0.39 0.42 0.44 0.46 0.61 0.80 0.92 0.99 1.06 1.25 1.60 1.84 1.97 1.94 1.55 1.11 0.84 0.77 0.87 0.87 0.78 0.77 0.83 0.78
0.37 0.29 0.22 0.19 0.18 0.18 0.18 0.18 0.16 0.13 0.16 0.22 0.25 0.28 0.33 0.40 0.44 0.46 0.53 0.67 0.79 0.91 1.02 1.13 1.40 1.71 1.86 1.95 1.91 1.42 1.03 0.89 0.99 1.13 1.01 0.80 0.73 0.78
0.22 0.21 0.20 0.18 0.19 0.20 0.21 0.21 0.19 0.17 0.18 0.19 0.20 0.23 0.28 0.36 0.41 0.42 0.48 0.62 0.72 0.82 0.94 1.05 1.27 1.53 1.69 1.63 1.66 1.64 1.46 1.14 1.02 1.18 1.19 1.02 0.89 0.96
0.18 0.18 0.18 0.21 0.22 0.22 0.21 0.20 0.20 0.18 0.16 0.17 0.17 0.18 0.22 0.30 0.35 0.35 0.42 0.51 0.62 0.74 0.82 0.91 1.10 1.29 1.51 1.55 1.44 1.39 1.56 1.58 1.21 1.11 1.18 1.20 1.14 1.14
0.18 0.20 0.19 0.20 0.23 0.23 0.22 0.21 0.20 0.17 0.15 0.15 0.15 0.15 0.17 0.24 0.29 0.32 0.38 0.46 0.52 0.62 0.73 0.83 0.97 1.18 1.43 1.57 1.48 1.32 1.43 1.65 1.64 1.40 1.25 1.14 1.09 1.04
0.22 0.23 0.22 0.22 0.22 0.23 0.23 0.22 0.20 0.17 0.15 0.15 0.16 0.15 0.16 0.20 0.22 0.27 0.34 0.40 0.47 0.53 0.64 0.80 0.95 1.10 1.33 1.49 1.50 1.37 1.32 1.44 1.49 1.45 1.54 1.34 0.95 0.69

GEFSNE_prec_meanprecacc_156.txt.gz
Total_Precipitation_Accumulation
0.17 0.19 0.22 0.20 0.21 0.23 0.27 0.38 0.56 0.42 0.11 0.02 0.02 0.04 0.08 0.13 0.14 0.13 0.11 0.14 0.20 0.24 0.29 0.34 0.42 0.59 0.91 1.40 1.98 2.88 3.48 3.14 2.38 1.85 1.73 1.98 2.39 2.84
0.23 0.25 0.24 0.24 0.26 0.29 0.32 0.33 0.42 0.52 0.32 0.05 0.03 0.05 0.10 0.17 0.18 0.15 0.14 0.16 0.17 0.19 0.21 0.24 0.29 0.42 0.64 0.97 1.38 1.95 2.84 3.33 3.12 2.61 2.18 2.20 2.36 2.70
0.23 0.26 0.27 0.29 0.38 0.40 0.44 0.43 0.39 0.43 0.45 0.13 0.04 0.06 0.14 0.23 0.22 0.17 0.16 0.15 0.12 0.15 0.17 0.21 0.25 0.34 0.50 0.72 0.98 1.34 1.97 2.74 3.19 3.22 2.86 2.56 2.47 2.50
0.27 0.31 0.34 0.36 0.42 0.46 0.54 0.55 0.47 0.42 0.49 0.33 0.12 0.10 0.17 0.27 0.30 0.23 0.19 0.17 0.12 0.13 0.17 0.22 0.28 0.34 0.44 0.58 0.76 1.01 1.37 1.93 2.51 2.93 3.02 2.72 2.54 2.56
0.32 0.38 0.43 0.46 0.45 0.48 0.58 0.64 0.59 0.53 0.53 0.50 0.27 0.14 0.16 0.26 0.36 0.33 0.27 0.25 0.19 0.15 0.17 0.20 0.25 0.32 0.39 0.48 0.63 0.80 0.98 1.19 1.63 2.24 2.81 2.90 2.70 2.64
0.28 0.33 0.44 0.58 0.63 0.68 0.71 0.70 0.72 0.73 0.68 0.63 0.45 0.28 0.24 0.29 0.44 0.49 0.41 0.35 0.30 0.24 0.21 0.20 0.23 0.29 0.34 0.37 0.42 0.54 0.73 1.00 1.31 1.77 2.27 2.69 2.75 2.69
0.24 0.26 0.38 0.62 0.81 1.01 1.07 0.96 0.96 1.03 0.96 0.88 0.75 0.57 0.43 0.43 0.52 0.55 0.61 0.51 0.45 0.36 0.27 0.21 0.22 0.21 0.22 0.28 0.33 0.39 0.52 0.72 0.98 1.32 1.75 2.14 2.47 2.66
0.27 0.26 0.34 0.57 0.74 0.86 0.99 1.00 1.05 1.20 1.26 1.19 1.04 0.84 0.59 0.49 0.53 0.64 0.77 0.83 0.70 0.51 0.40 0.31 0.29 0.27 0.22 0.21 0.27 0.33 0.44 0.59 0.79 1.05 1.35 1.70 2.06 2.41
0.27 0.26 0.31 0.44 0.57 0.64 0.69 0.72 0.77 0.93 1.16 1.27 1.23 0.92 0.73 0.60 0.70 0.82 0.83 0.93 0.83 0.74 0.73 0.63 0.42 0.35 0.28 0.29 0.33 0.34 0.42 0.52 0.64 0.83 1.10 1.37 1.68 2.04
0.30 0.27 0.24 0.31 0.44 0.61 0.68 0.64 0.59 0.68 0.93 1.16 1.33 1.14 0.95 0.92 1.07 1.23 1.24 1.20 1.02 0.96 0.96 1.02 0.71 0.50 0.40 0.36 0.36 0.34 0.38 0.45 0.55 0.66 0.87 1.09 1.33 1.66
0.29 0.27 0.23 0.24 0.40 0.58 0.59 0.54 0.47 0.53 0.66 0.89 1.04 1.06 1.05 1.17 1.39 1.69 1.77 1.67 1.40 1.14 1.06 1.08 1.02 0.88 0.77 0.62 0.51 0.43 0.39 0.41 0.48 0.59 0.71 0.88 1.11 1.47
0.25 0.24 0.29 0.32 0.42 0.50 0.48 0.50 0.58 0.53 0.49 0.52 0.57 0.59 0.65 0.76 1.09 1.51 1.75 1.78 1.55 1.46 1.27 1.14 1.19 1.22 1.38 1.10 0.79 0.56 0.44 0.45 0.47 0.53 0.60 0.69 0.89 1.09
0.29 0.28 0.24 0.34 0.40 0.42 0.46 0.49 0.65 0.60 0.51 0.55 0.55 0.50 0.48 0.56 0.73 1.04 1.45 1.75 1.76 1.59 1.40 1.42 1.55 1.30 1.35 1.32 1.05 0.78 0.54 0.47 0.46 0.53 0.59 0.64 0.73 0.82
0.33 0.27 0.23 0.31 0.35 0.41 0.43 0.48 0.54 0.55 0.51 0.49 0.44 0.41 0.44 0.51 0.63 0.80 1.05 1.35 1.53 1.48 1.32 1.46 1.78 1.49 1.24 1.12 1.04 0.95 0.72 0.59 0.50 0.49 0.51 0.68 0.78 0.81
0.42 0.42 0.34 0.37 0.37 0.32 0.31 0.38 0.41 0.40 0.46 0.48 0.42 0.37 0.41 0.51 0.57 0.65 0.74 0.96 1.17 1.23 1.25 1.36 1.61 1.61 1.43 1.18 0.90 0.83 0.83 0.82 0.67 0.58 0.56 0.57 0.60 0.64
0.46 0.42 0.39 0.36 0.29 0.23 0.22 0.23 0.23 0.28 0.39 0.44 0.40 0.35 0.34 0.39 0.49 0.61 0.72 0.83 1.04 1.13 1.20 1.36 1.61 1.81 1.70 1.19 0.94 0.80 0.71 0.89 0.86 0.72 0.64 0.61 0.57 0.51
0.52 0.50 0.41 0.34 0.30 0.24 0.19 0.16 0.16 0.20 0.26 0.30 0.35 0.37 0.37 0.39 0.42 0.52 0.72 0.84 0.99 1.06 1.17 1.42 1.69 1.81 1.83 1.59 1.28 0.93 0.71 0.70 0.79 0.76 0.73 0.73 0.72 0.61
0.55 0.53 0.38 0.29 0.27 0.24 0.22 0.19 0.16 0.16 0.18 0.24 0.31 0.35 0.40 0.43 0.45 0.47 0.63 0.81 0.94 1.00 1.07 1.26 1.61 1.85 1.97 1.94 1.55 1.11 0.84 0.77 0.87 0.87 0.78 0.77 0.83 0.78
0.44 0.36 0.28 0.24 0.22 0.21 0.21 0.20 0.17 0.14 0.17 0.23 0.27 0.30 0.35 0.41 0.46 0.48 0.54 0.68 0.81 0.92 1.03 1.14 1.40 1.72 1.86 1.95 1.91 1.42 1.04 0.89 0.99 1.13 1.01 0.80 0.73 0.78
0.29 0.28 0.26 0.23 0.22 0.23 0.22 0.22 0.20 0.19 0.19 0.20 0.22 0.24 0.30 0.38 0.42 0.44 0.50 0.64 0.74 0.84 0.95 1.06 1.28 1.54 1.70 1.64 1.67 1.65 1.46 1.15 1.03 1.18 1.19 1.02 0.89 0.96
0.24 0.24 0.23 0.24 0.24 0.23 0.22 0.21 0.21 0.19 0.17 0.18 0.18 0.19 0.23 0.31 0.36 0.37 0.44 0.52 0.63 0.74 0.83 0.91 1.10 1.29 1.52 1.56 1.44 1.39 1.56 1.58 1.22 1.12 1.19 1.21 1.15 1.14
0.23 0.24 0.23 0.23 0.24 0.24 0.23 0.22 0.21 0.18 0.16 0.16 0.16 0.16 0.18 0.25 0.30 0.33 0.39 0.47 0.53 0.62 0.73 0.83 0.97 1.18 1.44 1.58 1.48 1.32 1.43 1.65 1.64 1.40 1.25 1.15 1.11 1.06
0.26 0.26 0.25 0.24 0.24 0.24 0.24 0.23 0.21 0.18 0.15 0.16 0.16 0.16 0.17 0.21 0.23 0.29 0.35 0.41 0.48 0.54 0.64 0.81 0.95 1.10 1.33 1.49 1.51 1.37 1.32 1.44 1.49 1.46 1.54 1.34 0.95 0.70

GEFSNE_prec_meanprecacc_162.txt.gz
Total_Precipitation_Accumulation
0.22 0.22 0.25 0.22 0.22 0.23 0.27 0.38 0.56 0.42 0.11 0.02 0.02 0.04 0.08 0.14 0.14 0.13 0.12 0.15 0.20 0.25 0.30 0.34 0.42 0.60 0.92 1.40 1.98 2.89 3.48 3.15 2.39 1.86 1.74 2.00 2.40 2.86
0.28 0.28 0.26 0.25 0.27 0.29 0.32 0.33 0.42 0.53 0.32 0.05 0.04 0.05 0.10 0.17 0.19 0.15 0.14 0.17 0.18 0.20 0.21 0.24 0.30 0.42 0.65 0.97 1.38 1.96 2.85 3.34 3.12 2.62 2.19 2.22 2.38 2.72
0.28 0.30 0.29 0.30 0.38 0.41 0.44 0.43 0.39 0.44 0.45 0.13 0.04 0.06 0.14 0.23 0.23 0.17 0.16 0.15 0.13 0.15 0.17 0.21 0.25 0.34 0.50 0.72 0.98 1.34 1.97 2.74 3.20 3.23 2.87 2.57 2.48 2.52
0.33 0.34 0.36 0.37 0.42 0.47 0.54 0.55 0.48 0.43 0.49 0.33 0.12 0.10 0.17 0.27 0.30 0.24 0.20 0.17 0.12 0.13 0.17 0.22 0.28 0.34 0.44 0.58 0.76 1.01 1.37 1.93 2.52 2.94 3.03 2.72 2.55 2.57
0.37 0.42 0.45 0.47 0.46 0.48 0.59 0.65 0.60 0.53 0.54 0.51 0.28 0.15 0.17 0.27 0.37 0.34 0.28 0.25 0.19 0.16 0.17 0.20 0.25 0.32 0.39 0.48 0.63 0.80 0.99 1.20 1.63 2.24 2.82 2.91 2.70 2.65
0.33 0.36 0.46 0.59 0.64 0.69 0.71 0.70 0.73 0.74 0.69 0.64 0.46 0.29 0.25 0.30 0.45 0.50 0.42 0.35 0.30 0.24 0.21 0.20 0.23 0.29 0.34 0.37 0.42 0.54 0.73 1.00 1.32 1.78 2.27 2.69 2.76 2.70
0.30 0.30 0.40 0.63 0.82 1.02 1.08 0.97 0.97 1.04 0.97 0.90 0.76 0.58 0.44 0.44 0.53 0.56 0.61 0.51 0.45 0.36 0.27 0.21 0.22 0.21 0.22 0.28 0.33 0.39 0.52 0.72 0.98 1.32 1.75 2.15 2.48 2.66
0.34 0.30 0.37 0.59 0.75 0.87 1.00 1.01 1.06 1.21 1.27 1.20 1.05 0.85 0.61 0.50 0.53 0.65 0.78 0.83 0.70 0.51 0.40 0.32 0.29 0.27 0.22 0.21 0.27 0.33 0.44 0.59 0.80 1.05 1.36 1.70 2.07 2.41
0.33 0.31 0.34 0.46 0.59 0.65 0.70 0.73 0.78 0.94 1.17 1.29 1.24 0.93 0.74 0.61 0.71 0.83 0.84 0.93 0.83 0.75 0.73 0.63 0.42 0.35 0.28 0.29 0.34 0.34 0.42 0.52 0.64 0.83 1.11 1.38 1.69 2.04
0.36 0.33 0.28 0.33 0.46 0.63 0.70 0.65 0.60 0.69 0.95 1.17 1.34 1.15 0.95 0.92 1.08 1.24 1.25 1.20 1.03 0.96 0.96 1.02 0.71 0.50 0.40 0.36 0.36 0.34 0.38 0.46 0.55 0.67 0.87 1.10 1.34 1.67
0.36 0.34 0.27 0.26 0.43 0.61 0.61 0.56 0.49 0.55 0.68 0.90 1.05 1.07 1.06 1.17 1.39 1.70 1.78 1.68 1.41 1.15 1.06 1.08 1.02 0.88 0.77 0.62 0.51 0.43 0.39 0.41 0.49 0.59 0.71 0.89 1.11 1.47
0.34 0.33 0.35 0.37 0.47 0.54 0.51 0.53 0.60 0.55 0.51 0.54 0.57 0.60 0.66 0.77 1.10 1.52 1.76 1.79 1.56 1.46 1.28 1.14 1.20 1.23 1.38 1.10 0.79 0.56 0.44 0.45 0.47 0.53 0.60 0.69 0.90 1.09
0.38 0.36 0.31 0.41 0.46 0.47 0.50 0.52 0.67 0.62 0.53 0.57 0.56 0.51 0.49 0.57 0.75 1.06 1.46 1.76 1.77 1.59 1.40 1.43 1.55 1.30 1.36 1.33 1.05 0.78 0.54 0.47 0.46 0.53 0.59 0.64 0.73 0.82
0.40 0.34 0.30 0.39 0.43 0.47 0.48 0.52 0.58 0.58 0.53 0.51 0.46 0.44 0.46 0.53 0.65 0.82 1.07 1.36 1.54 1.49 1.33 1.46 1.79 1.50 1.25 1.12 1.04 0.96 0.72 0.59 0.50 0.50 0.51 0.68 0.78 0.81
0.51 0.51 0.44 0.47 0.47 0.40 0.39 0.44 0.45 0.42 0.48 0.50 0.45 0.39 0.43 0.53 0.59 0.66 0.75 0.97 1.17 1.23 1.26 1.36 1.61 1.61 1.44 1.20 0.91 0.84 0.83 0.82 0.67 0.58 0.56 0.57 0.60 0.64
0.58 0.56 0.54 0.50 0.42 0.34 0.31 0.30 0.28 0.32 0.43 0.48 0.44 0.38 0.36 0.41 0.51 0.63 0.73 0.84 1.05 1.13 1.21 1.37 1.61 1.82 1.71 1.20 0.95 0.81 0.72 0.89 0.86 0.72 0.64 0.61 0.57 0.51
0.63 0.62 0.53 0.45 0.41 0.34 0.27 0.23 0.22 0.26 0.32 0.35 0.39 0.41 0.40 0.41 0.44 0.53 0.73 0.85 1.01 1.07 1.18 1.43 1.70 1.82 1.84 1.59 1.28 0.94 0.71 0.71 0.79 0.76 0.73 0.73 0.72 0.61
0.66 0.64 0.47 0.36 0.34 0.30 0.27 0.24 0.20 0.21 0.23 0.29 0.36 0.39 0.43 0.46 0.47 0.49 0.64 0.83 0.96 1.02 1.08 1.27 1.61 1.85 1.97 1.94 1.55 1.11 0.84 0.77 0.87 0.87 0.78 0.77 0.83 0.78
0.54 0.45 0.36 0.30 0.28 0.26 0.24 0.24 0.21 0.18 0.21 0.27 0.31 0.33 0.37 0.43 0.48 0.50 0.56 0.70 0.82 0.94 1.05 1.16 1.41 1.73 1.87 1.95 1.91 1.42 1.04 0.90 0.99 1.13 1.01 0.80 0.73 0.78
0.36 0.34 0.32 0.29 0.28 0.29 0.27 0.26 0.24 0.22 0.23 0.24 0.25 0.27 0.32 0.40 0.44 0.46 0.51 0.65 0.75 0.85 0.96 1.06 1.28 1.55 1.71 1.65 1.68 1.65 1.46 1.15 1.03 1.19 1.19 1.02 0.89 0.96
0.30 0.30 0.29 0.31 0.31 0.30 0.28 0.26 0.26 0.23 0.20 0.21 0.21 0.22 0.25 0.33 0.38 0.38 0.45 0.53 0.64 0.75 0.83 0.92 1.10 1.30 1.52 1.56 1.45 1.39 1.56 1.58 1.22 1.12 1.20 1.21 1.15 1.15
0.28 0.30 0.28 0.30 0.32 0.31 0.29 0.27 0.26 0.22 0.19 0.20 0.19 0.19 0.20 0.27 0.32 0.34 0.40 0.48 0.54 0.63 0.74 0.84 0.97 1.18 1.44 1.58 1.49 1.32 1.43 1.65 1.64 1.41 1.26 1.16 1.13 1.08
0.32 0.33 0.31 0.30 0.31 0.31 0.30 0.27 0.25 0.22 0.19 0.19 0.19 0.19 0.20 0.23 0.24 0.30 0.36 0.42 0.49 0.54 0.65 0.81 0.95 1.10 1.33 1.50 1.51 1.38 1.33 1.44 1.49 1.46 1.55 1.35 0.96 0.71

GEFSNE_prec_meanprecacc_168.txt.gz
Total_Precipitation_Accumulation
0.32 0.31 0.34 0.31 0.32 0.32 0.34 0.43 0.60 0.46 0.14 0.05 0.04 0.05 0.09 0.14 0.14 0.13 0.12 0.15 0.21 0.25 0.30 0.34 0.42 0.60 0.92 1.41 1.98 2.89 3.49 3.15 2.39 1.86 1.75 2.01 2.42 2.88
0.39 0.39 0.36 0.34 0.36 0.38 0.40 0.39 0.46 0.56 0.35 0.07 0.05 0.06 0.10 0.17 0.19 0.15 0.14 0.17 0.18 0.20 0.21 0.24 0.30 0.42 0.65 0.97 1.38 1.96 2.85 3.34 3.12 2.62 2.20 2.23 2.39 2.74
0.40 0.41 0.40 0.40 0.47 0.49 0.51 0.48 0.43 0.46 0.47 0.15 0.06 0.07 0.15 0.23 0.23 0.17 0.17 0.15 0.13 0.15 0.18 0.21 0.25 0.34 0.50 0.72 0.98 1.34 1.97 2.75 3.20 3.23 2.87 2.58 2.49 2.53
0.45 0.45 0.46 0.46 0.51 0.55 0.62 0.61 0.52 0.46 0.51 0.35 0.14 0.11 0.18 0.27 0.30 0.24 0.20 0.17 0.12 0.13 0.17 0.22 0.28 0.35 0.44 0.58 0.76 1.01 1.37 1.94 2.52 2.94 3.04 2.73 2.56 2.58
0.48 0.51 0.54 0.56 0.53 0.55 0.66 0.71 0.64 0.56 0.56 0.53 0.30 0.16 0.18 0.28 0.38 0.34 0.28 0.25 0.19 0.16 0.18 0.20 0.25 0.32 0.39 0.48 0.63 0.80 0.99 1.20 1.64 2.25 2.82 2.91 2.71 2.66
0.42 0.44 0.54 0.67 0.71 0.74 0.77 0.76 0.77 0.78 0.72 0.66 0.48 0.31 0.26 0.31 0.46 0.50 0.42 0.36 0.30 0.24 0.21 0.20 0.23 0.30 0.34 0.37 0.42 0.54 0.73 1.00 1.32 1.78 2.28 2.70 2.77 2.71
0.39 0.37 0.48 0.71 0.90 1.07 1.12 1.01 1.01 1.08 1.00 0.92 0.78 0.60 0.45 0.46 0.54 0.56 0.62 0.51 0.45 0.37 0.28 0.22 0.22 0.22 0.22 0.28 0.33 0.39 0.52 0.72 0.98 1.33 1.76 2.15 2.49 2.67
0.43 0.38 0.45 0.67 0.83 0.93 1.05 1.05 1.10 1.24 1.30 1.22 1.07 0.87 0.62 0.52 0.55 0.66 0.79 0.84 0.71 0.52 0.41 0.32 0.29 0.27 0.23 0.21 0.27 0.34 0.44 0.60 0.80 1.06 1.36 1.71 2.07 2.42
0.43 0.40 0.43 0.54 0.67 0.72 0.76 0.77 0.82 0.98 1.20 1.32 1.26 0.95 0.76 0.62 0.72 0.84 0.84 0.93 0.83 0.75 0.73 0.64 0.42 0.36 0.28 0.29 0.34 0.34 0.42 0.52 0.65 0.83 1.11 1.38 1.69 2.05
0.45 0.41 0.37 0.42 0.55 0.70 0.76 0.70 0.64 0.73 0.98 1.20 1.37 1.17 0.97 0.94 1.09 1.24 1.26 1.21 1.03 0.97 0.96 1.03 0.71 0.50 0.40 0.36 0.37 0.34 0.38 0.46 0.55 0.67 0.87 1.10 1.34 1.67
0.47 0.44 0.37 0.36 0.52 0.68 0.67 0.61 0.54 0.60 0.72 0.95 1.09 1.10 1.09 1.20 1.41 1.71 1.79 1.69 1.42 1.16 1.06 1.08 1.03 0.89 0.77 0.62 0.51 0.44 0.39 0.41 0.49 0.59 0.72 0.89 1.12 1.47
0.47 0.45 0.48 0.49 0.58 0.63 0.57 0.58 0.66 0.60 0.56 0.59 0.62 0.64 0.70 0.81 1.13 1.54 1.77 1.80 1.58 1.48 1.29 1.15 1.20 1.23 1.38 1.10 0.79 0.57 0.45 0.45 0.47 0.53 0.61 0.70 0.90 1.10
0.49 0.48 0.42 0.54 0.58 0.57 0.58 0.59 0.74 0.68 0.58 0.63 0.62 0.56 0.54 0.62 0.79 1.08 1.49 1.78 1.79 1.61 1.41 1.43 1.56 1.31 1.36 1.33 1.06 0.78 0.54 0.47 0.46 0.53 0.59 0.64 0.73 0.83
0.48 0.42 0.38 0.50 0.54 0.58 0.57 0.61 0.66 0.64 0.59 0.56 0.52 0.49 0.51 0.58 0.69 0.86 1.10 1.39 1.56 1.50 1.34 1.47 1.80 1.50 1.26 1.13 1.05 0.96 0.72 0.59 0.51 0.50 0.52 0.68 0.78 0.81
0.57 0.58 0.52 0.56 0.58 0.51 0.48 0.53 0.53 0.48 0.54 0.56 0.50 0.44 0.48 0.57 0.63 0.70 0.79 1.00 1.20 1.24 1.27 1.37 1.62 1.62 1.44 1.20 0.91 0.84 0.84 0.82 0.67 0.58 0.56 0.57 0.60 0.64
0.66 0.64 0.63 0.61 0.55 0.47 0.43 0.40 0.36 0.39 0.48 0.53 0.49 0.44 0.42 0.46 0.55 0.66 0.76 0.87 1.07 1.15 1.22 1.38 1.62 1.83 1.72 1.20 0.96 0.81 0.72 0.89 0.86 0.72 0.64 0.61 0.57 0.51
0.72 0.71 0.64 0.58 0.56 0.49 0.39 0.31 0.28 0.32 0.38 0.40 0.44 0.46 0.45 0.46 0.48 0.57 0.76 0.88 1.03 1.08 1.19 1.44 1.71 1.82 1.84 1.60 1.29 0.94 0.71 0.71 0.79 0.76 0.73 0.73 0.72 0.61
0.76 0.73 0.56 0.45 0.44 0.41 0.36 0.31 0.27 0.27 0.28 0.34 0.41 0.44 0.47 0.50 0.52 0.53 0.67 0.85 0.97 1.03 1.09 1.28 1.62 1.86 1.98 1.95 1.55 1.11 0.84 0.77 0.87 0.87 0.78 0.77 0.84 0.78
0.64 0.53 0.43 0.37 0.35 0.33 0.32 0.31 0.29 0.25 0.27 0.33 0.37 0.39 0.42 0.47 0.51 0.54 0.59 0.73 0.85 0.96 1.06 1.17 1.42 1.74 1.88 1.96 1.91 1.42 1.04 0.90 1.00 1.13 1.01 0.80 0.74 0.78
0.46 0.42 0.40 0.36 0.35 0.37 0.36 0.35 0.32 0.30 0.30 0.30 0.31 0.32 0.37 0.44 0.48 0.49 0.55 0.68 0.77 0.87 0.97 1.07 1.29 1.56 1.72 1.66 1.68 1.65 1.46 1.15 1.04 1.19 1.19 1.02 0.89 0.96
0.38 0.37 0.37 0.39 0.39 0.39 0.36 0.35 0.34 0.30 0.27 0.27 0.27 0.26 0.29 0.36 0.41 0.42 0.49 0.56 0.67 0.77 0.85 0.93 1.11 1.31 1.53 1.57 1.45 1.39 1.56 1.58 1.23 1.14 1.21 1.22 1.16 1.15
0.35 0.37 0.37 0.39 0.41 0.41 0.38 0.35 0.34 0.30 0.27 0.26 0.25 0.24 0.25 0.30 0.35 0.38 0.43 0.50 0.56 0.64 0.75 0.85 0.97 1.18 1.44 1.59 1.49 1.32 1.43 1.65 1.64 1.41 1.27 1.18 1.15 1.10
0.39 0.41 0.40 0.39 0.40 0.39 0.38 0.35 0.32 0.28 0.26 0.26 0.25 0.24 0.24 0.27 0.28 0.34 0.40 0.45 0.51 0.56 0.66 0.82 0.96 1.10 1.34 1.50 1.52 1.38 1.33 1.44 1.49 1.46 1.55 1.35 0.97 0.72

GEFSNE_prec_meanprecacc_174.txt.gz
Total_Precipitation_Accumulation
0.46 0.43 0.44 0.40 0.40 0.40 0.42 0.51 0.69 0.55 0.23 0.12 0.11 0.11 0.14 0.18 0.17 0.15 0.13 0.17 0.22 0.26 0.31 0.35 0.42 0.60 0.92 1.41 1.99 2.89 3.49 3.15 2.39 1.87 1.75 2.02 2.43 2.89
0.53 0.52 0.47 0.44 0.46 0.48 0.50 0.49 0.55 0.64 0.44 0.15 0.12 0.12 0.16 0.23 0.24 0.19 0.17 0.19 0.20 0.21 0.22 0.24 0.30 0.42 0.65 0.97 1.38 1.96 2.85 3.34 3.13 2.63 2.20 2.24 2.40 2.75
0.56 0.55 0.51 0.50 0.57 0.60 0.63 0.59 0.53 0.55 0.56 0.24 0.15 0.16 0.23 0.30 0.29 0.22 0.20 0.18 0.15 0.17 0.19 0.22 0.26 0.34 0.50 0.72 0.98 1.34 1.98 2.75 3.20 3.24 2.88 2.59 2.50 2.54
0.60 0.60 0.58 0.56 0.60 0.65 0.71 0.70 0.61 0.53 0.58 0.43 0.24 0.23 0.29 0.36 0.38 0.30 0.24 0.20 0.14 0.15 0.18 0.23 0.29 0.35 0.44 0.58 0.76 1.01 1.37 1.94 2.52 2.95 3.04 2.74 2.57 2.59
0.61 0.65 0.66 0.66 0.62 0.63 0.73 0.77 0.71 0.62 0.62 0.59 0.38 0.26 0.28 0.37 0.45 0.40 0.32 0.28 0.21 0.18 0.20 0.22 0.26 0.33 0.40 0.48 0.63 0.81 0.99 1.20 1.64 2.25 2.83 2.92 2.72 2.66
0.55 0.56 0.65 0.76 0.78 0.81 0.83 0.81 0.82 0.83 0.78 0.73 0.56 0.40 0.36 0.39 0.52 0.55 0.47 0.39 0.33 0.27 0.24 0.22 0.25 0.31 0.35 0.38 0.42 0.54 0.73 1.01 1.32 1.78 2.28 2.70 2.77 2.71
0.53 0.50 0.59 0.79 0.96 1.13 1.18 1.06 1.06 1.13 1.06 0.98 0.86 0.68 0.54 0.53 0.59 0.60 0.66 0.55 0.49 0.40 0.31 0.24 0.24 0.23 0.23 0.29 0.34 0.40 0.53 0.73 0.99 1.33 1.76 2.16 2.49 2.67
0.58 0.50 0.55 0.76 0.90 1.00 1.12 1.11 1.15 1.30 1.36 1.28 1.13 0.92 0.67 0.55 0.58 0.70 0.83 0.89 0.75 0.55 0.44 0.35 0.32 0.29 0.24 0.22 0.27 0.34 0.44 0.60 0.80 1.06 1.37 1.71 2.08 2.43
0.56 0.52 0.54 0.64 0.75 0.79 0.84 0.86 0.90 1.05 1.26 1.36 1.31 1.00 0.79 0.66 0.77 0.89 0.91 0.99 0.88 0.80 0.77 0.67 0.45 0.37 0.29 0.30 0.34 0.35 0.42 0.52 0.65 0.84 1.11 1.39 1.70 2.06
0.57 0.53 0.49 0.53 0.64 0.79 0.85 0.80 0.74 0.82 1.05 1.25 1.42 1.23 1.03 1.00 1.16 1.32 1.32 1.27 1.08 1.01 0.99 1.05 0.73 0.52 0.42 0.37 0.38 0.34 0.38 0.46 0.55 0.67 0.88 1.11 1.35 1.68
0.59 0.55 0.49 0.47 0.62 0.77 0.75 0.70 0.64 0.69 0.81 1.01 1.15 1.17 1.16 1.27 1.48 1.78 1.84 1.74 1.46 1.19 1.09 1.11 1.05 0.91 0.79 0.64 0.52 0.44 0.39 0.42 0.49 0.59 0.72 0.89 1.12 1.48
0.59 0.55 0.59 0.59 0.68 0.71 0.65 0.67 0.74 0.68 0.64 0.67 0.70 0.73 0.77 0.88 1.20 1.59 1.81 1.84 1.62 1.52 1.32 1.18 1.23 1.25 1.40 1.12 0.80 0.57 0.45 0.45 0.48 0.54 0.61 0.70 0.90 1.10
0.60 0.59 0.53 0.65 0.68 0.66 0.65 0.65 0.80 0.75 0.65 0.70 0.70 0.63 0.60 0.67 0.83 1.12 1.53 1.83 1.83 1.65 1.44 1.45 1.58 1.33 1.37 1.34 1.06 0.78 0.55 0.47 0.47 0.54 0.59 0.64 0.73 0.83
0.58 0.53 0.49 0.60 0.64 0.67 0.64 0.68 0.72 0.71 0.65 0.63 0.59 0.55 0.56 0.62 0.74 0.90 1.14 1.43 1.60 1.54 1.37 1.50 1.82 1.52 1.28 1.14 1.05 0.97 0.73 0.60 0.51 0.50 0.52 0.68 0.78 0.81
0.67 0.69 0.62 0.67 0.68 0.60 0.57 0.60 0.59 0.54 0.59 0.61 0.54 0.48 0.51 0.61 0.67 0.74 0.83 1.04 1.24 1.28 1.30 1.39 1.64 1.64 1.46 1.22 0.92 0.86 0.85 0.83 0.67 0.59 0.56 0.57 0.60 0.64
0.78 0.76 0.73 0.71 0.66 0.59 0.54 0.47 0.42 0.44 0.52 0.56 0.52 0.46 0.45 0.50 0.59 0.70 0.80 0.90 1.10 1.18 1.24 1.39 1.64 1.84 1.73 1.22 0.97 0.83 0.73 0.89 0.86 0.72 0.64 0.61 0.57 0.51
0.85 0.84 0.75 0.69 0.69 0.62 0.50 0.40 0.36 0.38 0.43 0.44 0.48 0.49 0.48 0.49 0.52 0.60 0.79 0.91 1.05 1.11 1.22 1.46 1.72 1.83 1.85 1.61 1.29 0.94 0.71 0.71 0.79 0.76 0.73 0.74 0.72 0.61
0.88 0.84 0.66 0.55 0.53 0.50 0.45 0.39 0.35 0.33 0.33 0.38 0.44 0.47 0.50 0.53 0.55 0.57 0.70 0.88 1.00 1.06 1.12 1.30 1.64 1.87 1.99 1.96 1.56 1.11 0.84 0.77 0.87 0.87 0.79 0.77 0.84 0.78
0.73 0.61 0.51 0.44 0.42 0.40 0.38 0.36 0.34 0.30 0.32 0.37 0.40 0.42 0.45 0.51 0.55 0.58 0.63 0.76 0.88 0.99 1.09 1.19 1.44 1.75 1.89 1.97 1.91 1.42 1.04 0.90 1.00 1.13 1.01 0.80 0.74 0.78
0.53 0.49 0.46 0.42 0.42 0.43 0.41 0.40 0.37 0.35 0.35 0.35 0.35 0.36 0.41 0.48 0.53 0.54 0.59 0.72 0.81 0.90 1.00 1.09 1.31 1.57 1.73 1.66 1.69 1.65 1.46 1.16 1.04 1.20 1.20 1.02 0.89 0.96
0.47 0.45 0.43 0.44 0.45 0.45 0.42 0.40 0.39 0.36 0.32 0.32 0.32 0.31 0.33 0.41 0.46 0.46 0.53 0.61 0.70 0.80 0.87 0.95 1.13 1.32 1.54 1.57 1.46 1.39 1.56 1.58 1.23 1.14 1.21 1.22 1.16 1.15
0.44 0.45 0.44 0.46 0.48 0.48 0.46 0.43 0.41 0.37 0.33 0.32 0.31 0.29 0.30 0.35 0.40 0.42 0.48 0.54 0.59 0.68 0.78 0.87 0.99 1.19 1.45 1.60 1.50 1.33 1.44 1.65 1.64 1.41 1.27 1.18 1.16 1.11
0.48 0.49 0.49 0.47 0.48 0.48 0.47 0.44 0.41 0.36 0.33 0.31 0.31 0.30 0.30 0.32 0.33 0.39 0.45 0.49 0.55 0.59 0.69 0.84 0.98 1.12 1.35 1.51 1.52 1.38 1.33 1.44 1.49 1.46 1.55 1.35 0.97 0.73

GEFSNE_prec_meanprecacc_180.txt.gz
Total_Precipitation_Accumulation
0.58 0.56 0.56 0.50 0.47 0.47 0.50 0.60 0.80 0.66 0.32 0.20 0.19 0.19 0.21 0.25 0.24 0.22 0.19 0.24 0.30 0.33 0.37 0.40 0.47 0.64 0.95 1.43 2.00 2.90 3.49 3.15 2.40 1.87 1.76 2.02 2.44 2.90
0.64 0.64 0.60 0.56 0.56 0.56 0.57 0.57 0.64 0.74 0.54 0.23 0.20 0.20 0.24 0.30 0.33 0.26 0.24 0.28 0.28 0.28 0.29 0.31 0.35 0.47 0.69 1.00 1.40 1.97 2.87 3.35 3.13 2.63 2.21 2.24 2.41 2.76
0.66 0.66 0.63 0.61 0.67 0.68 0.70 0.67 0.61 0.64 0.66 0.33 0.25 0.26 0.34 0.39 0.39 0.31 0.28 0.27 0.24 0.26 0.27 0.30 0.32 0.39 0.55 0.76 1.01 1.36 1.99 2.77 3.22 3.25 2.89 2.60 2.51 2.55
0.70 0.71 0.70 0.67 0.70 0.73 0.79 0.78 0.68 0.61 0.66 0.51 0.35 0.36 0.42 0.48 0.48 0.40 0.34 0.29 0.22 0.24 0.27 0.31 0.36 0.42 0.51 0.64 0.81 1.04 1.40 1.95 2.54 2.96 3.06 2.75 2.58 2.60
0.69 0.74 0.76 0.76 0.71 0.71 0.80 0.85 0.77 0.69 0.69 0.66 0.45 0.36 0.42 0.51 0.57 0.51 0.43 0.39 0.30 0.26 0.28 0.30 0.34 0.39 0.46 0.54 0.67 0.84 1.01 1.22 1.65 2.26 2.84 2.93 2.73 2.67
0.63 0.64 0.74 0.86 0.87 0.87 0.90 0.88 0.89 0.90 0.85 0.80 0.63 0.48 0.47 0.52 0.64 0.67 0.58 0.50 0.43 0.35 0.34 0.32 0.33 0.37 0.41 0.44 0.46 0.57 0.75 1.02 1.33 1.79 2.29 2.71 2.78 2.72
0.62 0.58 0.68 0.90 1.07 1.23 1.26 1.14 1.14 1.22 1.16 1.08 0.94 0.76 0.63 0.64 0.71 0.70 0.74 0.64 0.58 0.48 0.40 0.35 0.33 0.31 0.29 0.34 0.38 0.42 0.54 0.74 1.00 1.34 1.77 2.17 2.50 2.68
0.69 0.60 0.66 0.88 1.00 1.10 1.22 1.20 1.23 1.39 1.46 1.37 1.21 0.99 0.73 0.62 0.66 0.77 0.92 0.98 0.85 0.63 0.51 0.44 0.40 0.37 0.30 0.26 0.31 0.37 0.46 0.62 0.82 1.07 1.38 1.72 2.08 2.43
0.69 0.64 0.65 0.75 0.86 0.89 0.94 0.95 0.99 1.14 1.35 1.45 1.39 1.06 0.85 0.72 0.84 0.97 0.98 1.07 0.95 0.86 0.83 0.74 0.51 0.43 0.34 0.33 0.38 0.38 0.45 0.55 0.67 0.85 1.12 1.39 1.70 2.06
0.71 0.65 0.59 0.64 0.74 0.88 0.94 0.88 0.82 0.89 1.12 1.32 1.48 1.28 1.08 1.06 1.23 1.39 1.40 1.36 1.15 1.06 1.03 1.10 0.78 0.56 0.45 0.41 0.42 0.39 0.41 0.48 0.57 0.68 0.89 1.11 1.35 1.68
0.72 0.66 0.58 0.56 0.72 0.86 0.83 0.77 0.71 0.76 0.88 1.07 1.20 1.22 1.21 1.33 1.56 1.86 1.93 1.83 1.55 1.27 1.13 1.15 1.09 0.95 0.83 0.68 0.57 0.49 0.43 0.44 0.50 0.60 0.73 0.90 1.12 1.48
0.72 0.68 0.71 0.70 0.78 0.80 0.73 0.73 0.81 0.74 0.69 0.72 0.75 0.78 0.82 0.93 1.27 1.66 1.89 1.92 1.70 1.59 1.37 1.21 1.26 1.29 1.45 1.16 0.84 0.61 0.48 0.48 0.49 0.54 0.61 0.70 0.90 1.10
0.75 0.73 0.67 0.78 0.79 0.75 0.73 0.72 0.86 0.79 0.69 0.74 0.74 0.68 0.66 0.73 0.89 1.19 1.59 1.89 1.89 1.69 1.48 1.49 1.61 1.36 1.41 1.38 1.10 0.81 0.56 0.48 0.48 0.54 0.60 0.64 0.73 0.83
0.71 0.64 0.61 0.73 0.75 0.77 0.74 0.76 0.80 0.77 0.70 0.69 0.65 0.61 0.62 0.70 0.81 0.96 1.20 1.49 1.65 1.58 1.41 1.53 1.85 1.56 1.31 1.18 1.08 0.99 0.74 0.61 0.51 0.50 0.52 0.68 0.78 0.81
0.79 0.81 0.74 0.79 0.79 0.70 0.67 0.70 0.68 0.62 0.67 0.68 0.60 0.54 0.56 0.66 0.72 0.79 0.89 1.09 1.29 1.33 1.34 1.43 1.67 1.67 1.49 1.24 0.94 0.87 0.86 0.84 0.68 0.59 0.56 0.58 0.60 0.64
0.93 0.90 0.86 0.84 0.78 0.70 0.65 0.58 0.52 0.53 0.61 0.63 0.58 0.51 0.49 0.54 0.63 0.74 0.84 0.94 1.14 1.22 1.28 1.43 1.66 1.87 1.75 1.24 0.98 0.84 0.73 0.90 0.87 0.72 0.65 0.62 0.57 0.51
1.00 1.00 0.90 0.84 0.82 0.75 0.62 0.51 0.47 0.49 0.53 0.50 0.53 0.54 0.53 0.54 0.56 0.64 0.83 0.94 1.08 1.14 1.24 1.49 1.75 1.86 1.88 1.63 1.32 0.96 0.72 0.72 0.80 0.77 0.73 0.74 0.73 0.62
1.00 0.98 0.81 0.66 0.63 0.60 0.55 0.50 0.45 0.42 0.41 0.45 0.50 0.53 0.54 0.57 0.59 0.60 0.74 0.92 1.03 1.08 1.14 1.32 1.67 1.91 2.02 1.99 1.58 1.13 0.85 0.78 0.88 0.88 0.79 0.77 0.84 0.78
0.83 0.72 0.63 0.55 0.50 0.47 0.46 0.44 0.43 0.38 0.39 0.44 0.47 0.48 0.50 0.54 0.59 0.61 0.67 0.80 0.91 1.01 1.11 1.22 1.47 1.78 1.92 1.99 1.93 1.43 1.05 0.91 1.00 1.14 1.01 0.80 0.74 0.78
0.62 0.59 0.56 0.52 0.51 0.51 0.48 0.47 0.45 0.43 0.44 0.43 0.42 0.42 0.46 0.52 0.57 0.57 0.62 0.75 0.84 0.92 1.03 1.13 1.34 1.60 1.76 1.68 1.70 1.66 1.47 1.16 1.04 1.20 1.20 1.02 0.89 0.96
0.55 0.53 0.52 0.53 0.54 0.54 0.50 0.48 0.47 0.43 0.40 0.40 0.39 0.37 0.39 0.46 0.51 0.50 0.56 0.65 0.74 0.83 0.91 0.99 1.17 1.36 1.56 1.59 1.47 1.41 1.58 1.59 1.24 1.15 1.21 1.23 1.16 1.15
0.52 0.53 0.53 0.54 0.56 0.57 0.55 0.51 0.49 0.45 0.40 0.39 0.38 0.36 0.35 0.40 0.45 0.46 0.52 0.59 0.64 0.72 0.82 0.92 1.03 1.22 1.47 1.62 1.52 1.35 1.45 1.66 1.65 1.42 1.27 1.19 1.17 1.12
0.56 0.58 0.56 0.55 0.56 0.56 0.56 0.53 0.49 0.44 0.40 0.39 0.37 0.36 0.35 0.37 0.38 0.43 0.49 0.54 0.60 0.65 0.74 0.89 1.01 1.15 1.37 1.53 1.54 1.40 1.34 1.45 1.50 1.46 1.55 1.35 0.98 0.73

GEFSNE_prec_meanprecacc_186.txt.gz
Total_Precipitation_Accumulation
0.61 0.60 0.62 0.57 0.56 0.55 0.58 0.69 0.88 0.76 0.41 0.26 0.25 0.25 0.28 0.32 0.31 0.29 0.27 0.34 0.39 0.43 0.48 0.51 0.57 0.75 1.09 1.59 2.16 3.05 3.62 3.25 2.47 1.91 1.79 2.04 2.45 2.91
0.67 0.68 0.65 0.61 0.63 0.65 0.66 0.65 0.72 0.82 0.62 0.29 0.25 0.26 0.31 0.39 0.42 0.35 0.32 0.39 0.41 0.42 0.43 0.43 0.46 0.58 0.80 1.13 1.53 2.11 2.99 3.46 3.22 2.69 2.25 2.27 2.43 2.78
0.70 0.71 0.68 0.65 0.73 0.76 0.79 0.76 0.70 0.72 0.74 0.39 0.29 0.32 0.42 0.49 0.49 0.42 0.40 0.38 0.36 0.39 0.40 0.43 0.45 0.51 0.65 0.87 1.11 1.47 2.11 2.88 3.33 3.33 2.95 2.65 2.54 2.57
0.74 0.76 0.75 0.72 0.75 0.79 0.87 0.86 0.76 0.68 0.73 0.58 0.40 0.43 0.51 0.57 0.57 0.51 0.47 0.44 0.35 0.35 0.37 0.42 0.46 0.52 0.60 0.73 0.91 1.14 1.49 2.05 2.64 3.05 3.13 2.81 2.62 2.63
0.74 0.79 0.82 0.83 0.77 0.77 0.88 0.93 0.85 0.77 0.76 0.73 0.51 0.43 0.50 0.61 0.69 0.65 0.57 0.55 0.45 0.39 0.38 0.40 0.44 0.49 0.55 0.63 0.77 0.94 1.10 1.30 1.73 2.34 2.92 3.00 2.78 2.71
0.67 0.69 0.79 0.92 0.93 0.94 0.98 0.96 0.97 0.98 0.92 0.87 0.69 0.55 0.57 0.65 0.79 0.82 0.74 0.66 0.58 0.49 0.47 0.44 0.45 0.48 0.50 0.52 0.55 0.65 0.83 1.09 1.40 1.85 2.35 2.77 2.83 2.76
0.67 0.63 0.73 0.96 1.13 1.30 1.35 1.23 1.23 1.32 1.25 1.16 1.02 0.85 0.73 0.76 0.84 0.84 0.88 0.78 0.70 0.62 0.54 0.47 0.43 0.41 0.40 0.43 0.45 0.50 0.61 0.81 1.06 1.40 1.82 2.21 2.54 2.72
0.74 0.65 0.71 0.95 1.09 1.19 1.32 1.30 1.32 1.48 1.54 1.46 1.30 1.08 0.82 0.71 0.75 0.88 1.03 1.10 0.97 0.74 0.64 0.56 0.49 0.46 0.39 0.35 0.38 0.44 0.52 0.68 0.88 1.13 1.42 1.75 2.12 2.46
0.76 0.70 0.72 0.83 0.95 0.97 1.04 1.06 1.08 1.24 1.45 1.53 1.46 1.13 0.93 0.81 0.93 1.08 1.09 1.16 1.04 0.94 0.93 0.88 0.63 0.53 0.42 0.42 0.47 0.45 0.51 0.61 0.72 0.90 1.16 1.43 1.74 2.09
0.79 0.72 0.67 0.72 0.84 0.97 1.03 0.98 0.91 0.98 1.20 1.38 1.55 1.34 1.14 1.13 1.31 1.48 1.50 1.47 1.26 1.15 1.11 1.21 0.91 0.66 0.54 0.50 0.51 0.46 0.48 0.55 0.63 0.73 0.93 1.15 1.38 1.71
0.82 0.76 0.68 0.64 0.81 0.94 0.91 0.85 0.79 0.84 0.95 1.14 1.26 1.28 1.28 1.41 1.65 1.96 2.03 1.94 1.68 1.38 1.23 1.23 1.19 1.06 0.93 0.77 0.66 0.58 0.51 0.52 0.58 0.66 0.77 0.93 1.16 1.50
0.86 0.80 0.84 0.82 0.88 0.89 0.80 0.81 0.88 0.81 0.77 0.80 0.83 0.85 0.89 1.01 1.36 1.76 1.98 2.01 1.80 1.70 1.47 1.30 1.34 1.37 1.56 1.27 0.94 0.70 0.56 0.57 0.59 0.62 0.67 0.74 0.93 1.11
0.88 0.86 0.80 0.92 0.91 0.86 0.82 0.80 0.93 0.86 0.76 0.82 0.81 0.75 0.73 0.80 0.96 1.26 1.66 1.95 1.96 1.78 1.56 1.55 1.67 1.43 1.49 1.48 1.21 0.91 0.64 0.57 0.56 0.61 0.65 0.68 0.75 0.84
0.84 0.77 0.74 0.87 0.89 0.90 0.85 0.86 0.88 0.86 0.79 0.77 0.72 0.69 0.70 0.76 0.87 1.03 1.26 1.54 1.70 1.64 1.47 1.59 1.91 1.61 1.37 1.24 1.16 1.08 0.83 0.68 0.58 0.55 0.56 0.72 0.80 0.82
0.91 0.94 0.88 0.93 0.94 0.84 0.79 0.81 0.78 0.72 0.76 0.77 0.67 0.60 0.62 0.71 0.77 0.85 0.94 1.14 1.34 1.39 1.41 1.50 1.74 1.74 1.55 1.30 1.00 0.93 0.92 0.90 0.73 0.63 0.59 0.60 0.61 0.65
1.06 1.03 1.00 0.99 0.94 0.85 0.79 0.69 0.61 0.61 0.69 0.71 0.64 0.57 0.54 0.59 0.68 0.79 0.89 0.99 1.20 1.30 1.36 1.52 1.75 1.95 1.83 1.30 1.04 0.89 0.78 0.94 0.91 0.75 0.67 0.63 0.58 0.52
1.13 1.15 1.07 1.02 1.00 0.90 0.75 0.63 0.57 0.59 0.62 0.59 0.61 0.60 0.58 0.58 0.61 0.68 0.87 0.98 1.13 1.20 1.33 1.59 1.85 1.94 1.94 1.68 1.36 1.00 0.76 0.75 0.83 0.79 0.75 0.75 0.74 0.62
1.13 1.12 0.96 0.82 0.77 0.73 0.67 0.60 0.55 0.51 0.50 0.54 0.58 0.59 0.59 0.61 0.63 0.65 0.79 0.96 1.08 1.13 1.19 1.39 1.74 1.98 2.09 2.05 1.63 1.16 0.88 0.82 0.91 0.90 0.81 0.78 0.85 0.79
0.95 0.84 0.75 0.68 0.63 0.58 0.55 0.53 0.52 0.47 0.46 0.52 0.54 0.55 0.55 0.59 0.63 0.66 0.72 0.86 0.97 1.07 1.17 1.27 1.52 1.83 1.97 2.04 1.99 1.47 1.08 0.94 1.03 1.16 1.03 0.81 0.75 0.79
0.71 0.69 0.67 0.64 0.64 0.63 0.59 0.56 0.53 0.52 0.51 0.50 0.49 0.50 0.53 0.58 0.62 0.63 0.67 0.80 0.89 0.98 1.09 1.19 1.40 1.66 1.80 1.72 1.74 1.70 1.51 1.19 1.06 1.21 1.21 1.03 0.90 0.97
0.65 0.63 0.63 0.64 0.65 0.65 0.60 0.56 0.55 0.51 0.47 0.47 0.46 0.45 0.46 0.53 0.56 0.55 0.61 0.70 0.80 0.88 0.96 1.05 1.23 1.42 1.62 1.64 1.51 1.45 1.61 1.62 1.26 1.16 1.22 1.23 1.17 1.16
0.64 0.64 0.62 0.62 0.65 0.66 0.63 0.60 0.57 0.52 0.48 0.46 0.45 0.43 0.42 0.47 0.51 0.53 0.57 0.64 0.69 0.77 0.87 0.97 1.09 1.28 1.53 1.66 1.56 1.38 1.47 1.68 1.67 1.44 1.29 1.20 1.18 1.14
0.68 0.68 0.65 0.63 0.64 0.64 0.64 0.61 0.56 0.52 0.48 0.46 0.44 0.43 0.43 0.44 0.44 0.49 0.55 0.59 0.65 0.70 0.79 0.94 1.06 1.19 1.41 1.57 1.58 1.43 1.36 1.47 1.52 1.48 1.57 1.37 0.99 0.74

GEFSNE_prec_meanprecacc_192.txt.gz
Total_Precipitation_Accumulation
0.65 0.64 0.65 0.61 0.60 0.60 0.64 0.74 0.95 0.84 0.50 0.35 0.33 0.34 0.38 0.43 0.42 0.39 0.37 0.45 0.49 0.51 0.55 0.58 0.68 0.88 1.22 1.75 2.34 3.25 3.83 3.45 2.65 2.09 1.95 2.19 2.58 3.03
0.72 0.72 0.68 0.65 0.67 0.70 0.72 0.72 0.78 0.90 0.71 0.37 0.32 0.33 0.41 0.50 0.55 0.46 0.41 0.49 0.50 0.51 0.51 0.50 0.55 0.69 0.93 1.27 1.69 2.27 3.15 3.61 3.36 2.83 2.39 2.41 2.56 2.90
0.75 0.75 0.71 0.69 0.77 0.80 0.84 0.83 0.78 0.79 0.82 0.47 0.36 0.38 0.50 0.59 0.62 0.55 0.52 0.49 0.46 0.49 0.49 0.51 0.54 0.62 0.78 1.00 1.25 1.62 2.24 2.99 3.43 3.44 3.06 2.76 2.66 2.69
0.79 0.80 0.78 0.75 0.79 0.83 0.92 0.92 0.84 0.77 0.82 0.67 0.48 0.50 0.58 0.65 0.68 0.63 0.60 0.56 0.47 0.47 0.46 0.50 0.55 0.62 0.73 0.87 1.05 1.28 1.63 2.16 2.73 3.15 3.24 2.92 2.73 2.74
0.78 0.82 0.85 0.85 0.80 0.80 0.92 0.98 0.92 0.86 0.86 0.84 0.62 0.53 0.60 0.71 0.81 0.78 0.71 0.69 0.58 0.52 0.49 0.49 0.53 0.59 0.66 0.76 0.92 1.10 1.26 1.43 1.84 2.44 3.02 3.10 2.87 2.81
0.71 0.72 0.81 0.94 0.95 0.96 1.00 1.00 1.02 1.06 1.03 0.99 0.82 0.68 0.69 0.77 0.91 0.96 0.88 0.79 0.72 0.62 0.60 0.56 0.56 0.60 0.61 0.63 0.68 0.80 0.97 1.25 1.55 1.98 2.46 2.86 2.91 2.84
0.70 0.66 0.76 0.98 1.16 1.32 1.38 1.27 1.28 1.39 1.35 1.27 1.14 0.97 0.86 0.88 0.96 0.96 1.00 0.90 0.84 0.75 0.68 0.61 0.56 0.53 0.52 0.55 0.58 0.62 0.74 0.94 1.21 1.54 1.95 2.31 2.62 2.79
0.77 0.68 0.74 0.98 1.12 1.22 1.35 1.34 1.38 1.55 1.63 1.55 1.39 1.18 0.91 0.80 0.84 0.98 1.14 1.24 1.12 0.89 0.78 0.71 0.61 0.57 0.52 0.48 0.52 0.56 0.64 0.79 1.00 1.24 1.53 1.85 2.20 2.54
0.79 0.74 0.75 0.85 0.98 1.01 1.09 1.12 1.15 1.32 1.53 1.61 1.55 1.20 1.00 0.89 1.02 1.19 1.21 1.30 1.17 1.06 1.06 1.03 0.78 0.66 0.55 0.54 0.60 0.57 0.63 0.71 0.81 0.99 1.25 1.51 1.81 2.16
0.84 0.78 0.71 0.75 0.87 1.02 1.10 1.05 0.98 1.06 1.28 1.46 1.62 1.42 1.21 1.21 1.42 1.60 1.64 1.63 1.40 1.27 1.25 1.37 1.07 0.81 0.68 0.62 0.63 0.57 0.58 0.64 0.70 0.81 1.00 1.23 1.47 1.78
0.86 0.81 0.72 0.68 0.85 1.00 0.98 0.94 0.88 0.93 1.05 1.23 1.36 1.39 1.38 1.52 1.78 2.11 2.20 2.13 1.85 1.52 1.38 1.39 1.35 1.20 1.08 0.92 0.79 0.69 0.60 0.60 0.65 0.73 0.84 1.02 1.25 1.61
0.89 0.84 0.90 0.87 0.94 0.95 0.87 0.91 0.99 0.91 0.86 0.89 0.93 0.96 1.00 1.12 1.49 1.88 2.13 2.18 1.95 1.84 1.60 1.44 1.48 1.50 1.70 1.44 1.07 0.81 0.67 0.66 0.67 0.70 0.74 0.82 1.02 1.21
0.91 0.90 0.86 0.98 0.98 0.93 0.91 0.90 1.05 0.98 0.87 0.92 0.91 0.85 0.84 0.91 1.08 1.38 1.79 2.10 2.09 1.88 1.65 1.66 1.79 1.52 1.59 1.61 1.34 1.01 0.74 0.66 0.64 0.70 0.74 0.76 0.83 0.91
0.88 0.82 0.80 0.93 0.98 1.01 0.96 0.97 1.01 1.00 0.92 0.90 0.84 0.79 0.80 0.87 0.99 1.15 1.38 1.66 1.79 1.71 1.54 1.67 1.99 1.69 1.45 1.32 1.25 1.18 0.92 0.78 0.67 0.64 0.65 0.81 0.89 0.90
0.97 1.00 0.95 1.02 1.05 0.97 0.92 0.93 0.89 0.84 0.90 0.90 0.78 0.69 0.69 0.79 0.87 0.95 1.04 1.23 1.43 1.47 1.47 1.55 1.80 1.80 1.63 1.38 1.08 1.01 1.01 1.01 0.84 0.73 0.69 0.69 0.69 0.73
1.11 1.09 1.09 1.10 1.06 0.99 0.92 0.81 0.72 0.71 0.78 0.80 0.73 0.65 0.61 0.66 0.76 0.87 0.97 1.07 1.29 1.39 1.45 1.58 1.82 2.01 1.91 1.38 1.12 0.96 0.85 1.05 1.02 0.85 0.77 0.73 0.66 0.57
1.19 1.23 1.17 1.14 1.13 1.02 0.86 0.73 0.67 0.69 0.70 0.66 0.68 0.68 0.66 0.67 0.69 0.77 0.94 1.05 1.20 1.28 1.42 1.68 1.93 2.03 2.04 1.78 1.45 1.08 0.84 0.83 0.91 0.87 0.84 0.83 0.80 0.67
1.20 1.20 1.05 0.92 0.88 0.83 0.76 0.69 0.64 0.60 0.57 0.60 0.65 0.66 0.67 0.69 0.71 0.73 0.86 1.03 1.14 1.19 1.26 1.46 1.81 2.07 2.20 2.16 1.72 1.23 0.96 0.88 0.97 0.97 0.87 0.84 0.89 0.82
1.02 0.91 0.82 0.76 0.72 0.68 0.64 0.61 0.59 0.54 0.52 0.58 0.61 0.61 0.62 0.67 0.71 0.75 0.80 0.93 1.04 1.13 1.23 1.33 1.58 1.89 2.04 2.12 2.07 1.55 1.14 0.99 1.08 1.22 1.08 0.86 0.78 0.81
0.78 0.76 0.74 0.72 0.73 0.73 0.69 0.64 0.60 0.58 0.57 0.55 0.55 0.56 0.59 0.65 0.70 0.71 0.76 0.87 0.97 1.05 1.16 1.26 1.46 1.70 1.84 1.77 1.81 1.78 1.58 1.25 1.12 1.27 1.26 1.06 0.93 0.99
0.71 0.69 0.69 0.72 0.75 0.75 0.69 0.65 0.62 0.58 0.53 0.51 0.51 0.50 0.52 0.60 0.65 0.64 0.69 0.78 0.87 0.95 1.02 1.11 1.29 1.48 1.67 1.69 1.57 1.51 1.67 1.68 1.31 1.20 1.25 1.26 1.19 1.18
0.70 0.70 0.69 0.70 0.73 0.75 0.72 0.67 0.64 0.59 0.54 0.51 0.50 0.49 0.49 0.54 0.60 0.61 0.66 0.72 0.75 0.82 0.92 1.03 1.16 1.35 1.58 1.70 1.60 1.43 1.53 1.74 1.72 1.47 1.31 1.22 1.19 1.16
0.72 0.74 0.73 0.71 0.70 0.72 0.72 0.67 0.63 0.58 0.55 0.52 0.49 0.48 0.50 0.52 0.53 0.58 0.63 0.66 0.70 0.75 0.84 1.00 1.13 1.26 1.47 1.62 1.62 1.47 1.40 1.51 1.55 1.51 1.60 1.39 1.01 0.76

GEFSNE_prec_meanprecacc_198.txt.gz
Total_Precipitation_Accumulation
0.67 0.66 0.68 0.64 0.63 0.65 0.69 0.80 1.01 0.88 0.54 0.40 0.40 0.41 0.47 0.54 0.52 0.49 0.45 0.52 0.57 0.62 0.67 0.71 0.80 1.02 1.38 1.92 2.48 3.34 3.91 3.53 2.74 2.21 2.10 2.37 2.74 3.17
0.74 0.75 0.71 0.68 0.70 0.73 0.77 0.77 0.83 0.94 0.75 0.41 0.37 0.39 0.47 0.60 0.68 0.58 0.51 0.58 0.58 0.60 0.63 0.64 0.70 0.85 1.10 1.44 1.84 2.39 3.24 3.68 3.44 2.92 2.49 2.55 2.72 3.04
0.77 0.79 0.75 0.72 0.80 0.83 0.88 0.87 0.82 0.85 0.87 0.51 0.41 0.44 0.57 0.67 0.72 0.67 0.65 0.60 0.55 0.59 0.61 0.64 0.67 0.77 0.95 1.18 1.41 1.74 2.35 3.09 3.52 3.53 3.16 2.88 2.79 2.83
0.82 0.84 0.83 0.80 0.83 0.87 0.95 0.95 0.87 0.81 0.87 0.72 0.55 0.57 0.66 0.74 0.76 0.73 0.72 0.69 0.58 0.59 0.58 0.65 0.70 0.76 0.88 1.03 1.19 1.40 1.73 2.26 2.83 3.25 3.34 3.02 2.84 2.86
0.80 0.85 0.88 0.89 0.85 0.85 0.95 1.01 0.94 0.89 0.90 0.89 0.69 0.61 0.69 0.80 0.92 0.91 0.85 0.83 0.70 0.65 0.63 0.67 0.72 0.72 0.80 0.91 1.06 1.21 1.36 1.53 1.94 2.55 3.13 3.19 2.97 2.92
0.73 0.74 0.84 0.97 0.98 1.00 1.04 1.03 1.05 1.09 1.06 1.03 0.88 0.77 0.80 0.87 1.01 1.07 1.04 0.96 0.87 0.75 0.75 0.76 0.76 0.74 0.72 0.74 0.79 0.90 1.07 1.34 1.64 2.10 2.58 2.98 3.02 2.94
0.72 0.67 0.77 1.00 1.18 1.35 1.41 1.30 1.30 1.42 1.38 1.31 1.19 1.03 0.93 0.97 1.06 1.05 1.12 1.04 1.01 0.90 0.82 0.81 0.74 0.67 0.63 0.65 0.68 0.71 0.82 1.03 1.31 1.65 2.06 2.42 2.74 2.91
0.80 0.70 0.75 0.99 1.13 1.25 1.38 1.36 1.40 1.57 1.66 1.59 1.44 1.23 0.95 0.85 0.91 1.08 1.26 1.39 1.32 1.07 0.91 0.87 0.75 0.69 0.62 0.57 0.62 0.65 0.72 0.88 1.10 1.36 1.64 1.97 2.32 2.66
0.81 0.76 0.77 0.87 1.00 1.03 1.11 1.14 1.17 1.35 1.58 1.65 1.59 1.24 1.03 0.93 1.08 1.28 1.34 1.44 1.32 1.21 1.17 1.16 0.90 0.77 0.65 0.65 0.72 0.66 0.71 0.81 0.92 1.11 1.37 1.62 1.91 2.26
0.86 0.79 0.73 0.77 0.89 1.04 1.12 1.08 1.01 1.09 1.31 1.50 1.67 1.46 1.25 1.26 1.49 1.69 1.79 1.80 1.56 1.40 1.34 1.48 1.18 0.93 0.80 0.75 0.77 0.69 0.68 0.74 0.82 0.92 1.11 1.32 1.55 1.87
0.89 0.83 0.74 0.70 0.87 1.03 1.01 0.98 0.91 0.96 1.09 1.28 1.42 1.46 1.46 1.60 1.88 2.22 2.35 2.31 2.04 1.70 1.50 1.49 1.44 1.30 1.22 1.11 0.99 0.86 0.74 0.71 0.76 0.83 0.94 1.10 1.33 1.68
0.91 0.86 0.92 0.89 0.97 0.99 0.91 0.96 1.04 0.95 0.92 0.95 0.99 1.03 1.08 1.21 1.59 2.00 2.25 2.31 2.09 1.99 1.72 1.52 1.55 1.59 1.85 1.62 1.27 0.99 0.83 0.80 0.78 0.80 0.83 0.89 1.08 1.26
0.93 0.92 0.88 1.01 1.02 0.99 0.97 0.95 1.11 1.04 0.95 1.01 0.98 0.91 0.91 1.01 1.17 1.48 1.91 2.22 2.20 1.99 1.75 1.74 1.87 1.61 1.70 1.75 1.50 1.18 0.89 0.80 0.75 0.80 0.82 0.83 0.88 0.95
0.90 0.84 0.82 0.96 1.01 1.05 1.01 1.04 1.10 1.09 1.02 1.01 0.93 0.86 0.87 0.96 1.09 1.25 1.50 1.79 1.92 1.83 1.66 1.77 2.08 1.77 1.53 1.42 1.38 1.33 1.05 0.89 0.76 0.72 0.72 0.88 0.94 0.95
0.99 1.02 0.98 1.05 1.09 1.02 0.98 1.01 0.99 0.94 1.00 1.02 0.90 0.77 0.76 0.86 0.95 1.03 1.13 1.34 1.56 1.61 1.60 1.67 1.88 1.88 1.70 1.46 1.17 1.11 1.12 1.13 0.93 0.80 0.75 0.74 0.74 0.77
1.13 1.11 1.12 1.14 1.11 1.06 0.99 0.90 0.81 0.82 0.88 0.91 0.85 0.76 0.68 0.72 0.83 0.93 1.04 1.15 1.40 1.52 1.57 1.69 1.89 2.08 1.97 1.45 1.19 1.04 0.92 1.14 1.11 0.93 0.83 0.78 0.71 0.62
1.22 1.26 1.21 1.17 1.17 1.06 0.92 0.80 0.75 0.78 0.81 0.77 0.77 0.78 0.75 0.73 0.75 0.83 1.01 1.11 1.28 1.38 1.52 1.78 2.01 2.09 2.11 1.85 1.53 1.16 0.91 0.90 0.99 0.95 0.90 0.89 0.85 0.72
1.24 1.24 1.09 0.95 0.92 0.87 0.81 0.75 0.71 0.69 0.66 0.69 0.72 0.72 0.74 0.76 0.77 0.79 0.93 1.09 1.20 1.26 1.33 1.52 1.88 2.14 2.28 2.25 1.80 1.30 1.02 0.95 1.05 1.05 0.95 0.91 0.95 0.87
1.06 0.94 0.85 0.79 0.75 0.72 0.69 0.66 0.65 0.60 0.59 0.64 0.67 0.67 0.67 0.73 0.78 0.81 0.87 1.00 1.10 1.19 1.28 1.38 1.64 1.95 2.09 2.18 2.15 1.61 1.20 1.06 1.15 1.30 1.17 0.93 0.84 0.87
0.81 0.78 0.76 0.74 0.76 0.77 0.73 0.69 0.65 0.63 0.63 0.61 0.62 0.62 0.65 0.72 0.76 0.77 0.81 0.94 1.02 1.11 1.23 1.33 1.52 1.75 1.88 1.81 1.85 1.84 1.65 1.31 1.18 1.34 1.34 1.14 0.99 1.05
0.74 0.72 0.72 0.74 0.78 0.79 0.73 0.69 0.67 0.62 0.57 0.56 0.56 0.55 0.58 0.66 0.69 0.68 0.75 0.84 0.93 1.01 1.10 1.19 1.36 1.53 1.71 1.73 1.62 1.58 1.74 1.75 1.38 1.26 1.32 1.33 1.26 1.24
0.73 0.74 0.73 0.74 0.77 0.79 0.76 0.71 0.69 0.64 0.58 0.55 0.53 0.53 0.54 0.59 0.64 0.65 0.70 0.77 0.81 0.88 0.99 1.10 1.23 1.41 1.63 1.76 1.66 1.49 1.60 1.81 1.81 1.56 1.39 1.28 1.25 1.21
0.76 0.77 0.77 0.75 0.75 0.76 0.76 0.71 0.67 0.63 0.59 0.56 0.54 0.53 0.54 0.57 0.58 0.63 0.68 0.71 0.76 0.80 0.89 1.06 1.19 1.32 1.53 1.67 1.68 1.53 1.47 1.58 1.63 1.60 1.68 1.45 1.06 0.81

GEFSNE_prec_meanprecacc_204.txt.gz
Total_Precipitation_Accumulation
0.70 0.69 0.70 0.65 0.64 0.66 0.71 0.82 1.04 0.92 0.57 0.41 0.41 0.43 0.51 0.57 0.57 0.54 0.52 0.62 0.67 0.73 0.81 0.85 0.93 1.12 1.46 2.00 2.59 3.46 4.04 3.66 2.86 2.31 2.22 2.51 2.91 3.34
0.76 0.76 0.72 0.68 0.71 0.74 0.78 0.78 0.85 0.98 0.78 0.43 0.39 0.41 0.50 0.63 0.71 0.62 0.57 0.69 0.70 0.71 0.73 0.75 0.81 0.96 1.19 1.52 1.95 2.51 3.36 3.80 3.55 3.02 2.58 2.65 2.86 3.21
0.79 0.80 0.76 0.73 0.81 0.84 0.89 0.88 0.84 0.87 0.90 0.54 0.43 0.47 0.61 0.71 0.76 0.71 0.70 0.67 0.66 0.71 0.72 0.75 0.78 0.87 1.04 1.26 1.49 1.85 2.48 3.21 3.62 3.63 3.27 2.96 2.89 2.94
0.83 0.84 0.84 0.81 0.84 0.88 0.96 0.96 0.88 0.82 0.89 0.75 0.58 0.62 0.70 0.78 0.81 0.78 0.78 0.75 0.66 0.68 0.68 0.77 0.81 0.86 0.97 1.12 1.28 1.50 1.87 2.40 2.95 3.36 3.44 3.11 2.93 2.97
0.81 0.86 0.90 0.90 0.86 0.86 0.97 1.02 0.96 0.90 0.92 0.92 0.73 0.67 0.75 0.85 0.97 0.96 0.91 0.89 0.78 0.73 0.72 0.78 0.83 0.83 0.89 1.02 1.18 1.33 1.50 1.68 2.06 2.66 3.23 3.28 3.05 3.01
0.74 0.75 0.85 0.98 0.99 1.01 1.06 1.05 1.07 1.11 1.09 1.07 0.92 0.82 0.87 0.94 1.08 1.14 1.10 1.02 0.95 0.84 0.85 0.87 0.89 0.89 0.85 0.85 0.90 1.02 1.20 1.47 1.77 2.22 2.69 3.08 3.10 3.03
0.73 0.68 0.78 1.02 1.20 1.36 1.43 1.32 1.33 1.45 1.42 1.36 1.23 1.08 0.99 1.05 1.14 1.13 1.17 1.09 1.07 1.00 0.94 0.94 0.88 0.84 0.79 0.77 0.79 0.83 0.94 1.15 1.42 1.76 2.17 2.52 2.82 2.98
0.81 0.71 0.77 1.00 1.14 1.26 1.39 1.38 1.43 1.61 1.71 1.64 1.48 1.27 1.00 0.90 0.98 1.15 1.32 1.45 1.39 1.15 1.04 1.03 0.89 0.85 0.78 0.70 0.74 0.77 0.83 0.99 1.20 1.45 1.74 2.07 2.40 2.74
0.82 0.77 0.79 0.89 1.01 1.04 1.13 1.16 1.20 1.37 1.61 1.69 1.63 1.27 1.06 0.97 1.14 1.35 1.41 1.51 1.40 1.30 1.31 1.35 1.06 0.93 0.80 0.77 0.84 0.78 0.82 0.90 1.01 1.19 1.45 1.71 1.99 2.34
0.87 0.81 0.75 0.79 0.91 1.06 1.14 1.10 1.03 1.10 1.34 1.53 1.70 1.50 1.28 1.30 1.55 1.77 1.87 1.90 1.67 1.52 1.46 1.63 1.33 1.08 0.95 0.88 0.89 0.80 0.77 0.82 0.89 0.99 1.18 1.41 1.64 1.94
0.91 0.85 0.75 0.71 0.88 1.04 1.03 1.01 0.94 0.99 1.11 1.30 1.45 1.51 1.51 1.66 1.94 2.31 2.46 2.44 2.18 1.84 1.60 1.60 1.56 1.42 1.35 1.24 1.11 0.97 0.83 0.78 0.82 0.89 1.00 1.17 1.40 1.75
0.92 0.88 0.94 0.91 0.99 1.01 0.93 0.99 1.07 0.98 0.94 0.98 1.02 1.08 1.13 1.27 1.66 2.08 2.36 2.44 2.22 2.11 1.82 1.60 1.64 1.67 1.97 1.77 1.39 1.10 0.94 0.89 0.86 0.86 0.91 0.96 1.14 1.32
0.94 0.94 0.89 1.02 1.04 1.00 0.98 0.97 1.13 1.06 0.97 1.04 1.02 0.96 0.95 1.06 1.22 1.54 2.01 2.33 2.31 2.09 1.84 1.81 1.94 1.67 1.79 1.86 1.62 1.29 1.00 0.90 0.84 0.88 0.91 0.90 0.95 1.02
0.92 0.85 0.83 0.98 1.03 1.06 1.03 1.06 1.12 1.12 1.05 1.05 0.98 0.91 0.92 1.01 1.14 1.32 1.58 1.88 2.00 1.90 1.72 1.83 2.16 1.85 1.61 1.50 1.48 1.45 1.17 0.99 0.85 0.82 0.81 0.96 1.02 1.02
1.01 1.04 0.99 1.07 1.11 1.03 1.00 1.03 1.02 0.97 1.04 1.06 0.95 0.82 0.80 0.90 1.00 1.09 1.20 1.42 1.63 1.68 1.68 1.75 1.97 1.97 1.78 1.53 1.24 1.20 1.22 1.23 1.02 0.88 0.82 0.81 0.80 0.83
1.15 1.13 1.14 1.16 1.12 1.07 1.00 0.91 0.84 0.86 0.94 0.96 0.90 0.80 0.72 0.77 0.88 0.98 1.09 1.22 1.48 1.61 1.66 1.78 2.00 2.18 2.08 1.53 1.26 1.10 0.99 1.23 1.20 1.01 0.90 0.85 0.77 0.67
1.25 1.29 1.23 1.19 1.18 1.07 0.92 0.81 0.78 0.82 0.86 0.82 0.82 0.83 0.79 0.78 0.80 0.88 1.06 1.17 1.35 1.45 1.60 1.86 2.10 2.18 2.19 1.93 1.60 1.21 0.95 0.96 1.05 1.02 0.97 0.95 0.91 0.77
1.27 1.26 1.10 0.96 0.93 0.88 0.82 0.77 0.74 0.72 0.71 0.74 0.79 0.80 0.79 0.80 0.82 0.84 0.97 1.14 1.26 1.32 1.38 1.58 1.95 2.22 2.37 2.35 1.88 1.36 1.07 1.00 1.11 1.11 1.00 0.96 1.01 0.92
1.07 0.96 0.86 0.80 0.77 0.74 0.70 0.69 0.68 0.64 0.63 0.69 0.74 0.75 0.73 0.78 0.83 0.85 0.92 1.05 1.16 1.25 1.34 1.44 1.69 2.01 2.15 2.26 2.25 1.68 1.25 1.11 1.21 1.36 1.22 0.97 0.89 0.91
0.82 0.80 0.78 0.76 0.78 0.79 0.76 0.73 0.68 0.67 0.67 0.65 0.66 0.67 0.71 0.78 0.82 0.81 0.86 0.97 1.07 1.16 1.28 1.38 1.57 1.79 1.91 1.84 1.91 1.92 1.73 1.37 1.23 1.39 1.39 1.19 1.04 1.10
0.75 0.74 0.74 0.76 0.81 0.82 0.77 0.73 0.70 0.66 0.62 0.61 0.60 0.59 0.62 0.71 0.74 0.72 0.78 0.89 0.97 1.06 1.14 1.24 1.41 1.59 1.75 1.77 1.67 1.64 1.82 1.82 1.43 1.30 1.36 1.36 1.29 1.28
0.74 0.76 0.74 0.76 0.80 0.82 0.79 0.74 0.72 0.68 0.63 0.60 0.58 0.56 0.57 0.63 0.68 0.69 0.75 0.81 0.84 0.92 1.03 1.15 1.29 1.48 1.69 1.80 1.70 1.54 1.66 1.87 1.86 1.61 1.43 1.31 1.28 1.24
0.78 0.80 0.79 0.78 0.77 0.78 0.78 0.74 0.70 0.67 0.64 0.61 0.57 0.56 0.58 0.61 0.62 0.67 0.72 0.75 0.80 0.85 0.95 1.12 1.26 1.40 1.60 1.73 1.73 1.58 1.52 1.63 1.67 1.64 1.72 1.49 1.09 0.84

GEFSNE_prec_meanprecacc_210.txt.gz
Total_Precipitation_Accumulation
0.71 0.70 0.71 0.67 0.67 0.68 0.73 0.85 1.06 0.94 0.58 0.42 0.42 0.44 0.51 0.59 0.59 0.56 0.55 0.65 0.70 0.76 0.85 0.90 0.98 1.17 1.52 2.08 2.68 3.58 4.16 3.81 3.04 2.51 2.40 2.68 3.11 3.53
0.78 0.79 0.75 0.71 0.73 0.77 0.80 0.80 0.87 0.99 0.79 0.44 0.40 0.42 0.51 0.65 0.73 0.64 0.60 0.72 0.74 0.74 0.77 0.80 0.86 1.01 1.26 1.58 2.02 2.61 3.48 3.92 3.68 3.16 2.77 2.82 3.03 3.40
0.80 0.82 0.78 0.75 0.83 0.87 0.92 0.91 0.86 0.89 0.92 0.54 0.43 0.47 0.61 0.72 0.78 0.74 0.72 0.70 0.69 0.74 0.76 0.80 0.83 0.93 1.11 1.34 1.57 1.94 2.59 3.32 3.74 3.74 3.39 3.11 3.03 3.07
0.84 0.86 0.85 0.82 0.86 0.89 0.97 0.97 0.89 0.83 0.90 0.75 0.58 0.62 0.71 0.80 0.83 0.81 0.80 0.77 0.68 0.71 0.73 0.82 0.87 0.92 1.04 1.20 1.36 1.58 1.98 2.51 3.06 3.47 3.55 3.25 3.05 3.06
0.82 0.87 0.90 0.91 0.86 0.87 0.97 1.02 0.96 0.91 0.93 0.93 0.74 0.67 0.77 0.88 0.99 0.98 0.92 0.91 0.80 0.77 0.77 0.84 0.91 0.91 0.96 1.09 1.27 1.42 1.59 1.77 2.16 2.76 3.34 3.42 3.17 3.11
0.74 0.76 0.85 0.98 1.00 1.02 1.06 1.05 1.07 1.12 1.10 1.08 0.94 0.83 0.88 0.97 1.10 1.16 1.12 1.06 0.99 0.89 0.91 0.95 0.98 0.98 0.93 0.92 0.99 1.10 1.27 1.55 1.88 2.32 2.79 3.19 3.18 3.10
0.73 0.68 0.78 1.02 1.20 1.37 1.43 1.33 1.34 1.46 1.43 1.38 1.25 1.10 1.01 1.07 1.17 1.16 1.22 1.15 1.13 1.06 1.01 1.01 0.96 0.92 0.87 0.84 0.86 0.92 1.02 1.24 1.53 1.86 2.27 2.61 2.89 3.04
0.82 0.72 0.77 1.01 1.15 1.27 1.40 1.40 1.45 1.63 1.73 1.67 1.52 1.31 1.02 0.93 1.00 1.19 1.39 1.52 1.46 1.23 1.13 1.13 0.97 0.93 0.86 0.77 0.82 0.87 0.92 1.07 1.30 1.54 1.83 2.15 2.47 2.79
0.83 0.78 0.79 0.89 1.02 1.05 1.14 1.17 1.20 1.39 1.63 1.73 1.67 1.31 1.09 0.99 1.17 1.40 1.48 1.58 1.47 1.38 1.39 1.45 1.16 1.02 0.90 0.87 0.94 0.89 0.93 1.00 1.10 1.28 1.53 1.77 2.04 2.39
0.88 0.81 0.75 0.80 0.92 1.08 1.15 1.11 1.03 1.11 1.35 1.54 1.73 1.52 1.31 1.33 1.58 1.83 1.94 1.97 1.74 1.61 1.55 1.74 1.42 1.18 1.04 0.98 1.01 0.93 0.90 0.92 0.98 1.07 1.25 1.47 1.69 2.00
0.92 0.86 0.77 0.73 0.90 1.06 1.05 1.02 0.95 0.99 1.12 1.32 1.47 1.53 1.55 1.69 1.98 2.36 2.53 2.51 2.26 1.95 1.72 1.73 1.65 1.49 1.43 1.35 1.24 1.11 0.95 0.87 0.90 0.96 1.06 1.22 1.45 1.81
0.94 0.90 0.96 0.93 1.01 1.03 0.95 1.00 1.09 0.99 0.95 0.99 1.04 1.09 1.15 1.30 1.69 2.12 2.43 2.52 2.31 2.23 1.94 1.72 1.73 1.75 2.06 1.87 1.51 1.21 1.03 0.97 0.92 0.92 0.95 1.00 1.19 1.37
0.96 0.96 0.92 1.05 1.06 1.02 1.00 0.98 1.15 1.08 0.99 1.06 1.04 0.98 0.97 1.07 1.24 1.58 2.06 2.41 2.41 2.19 1.94 1.91 2.03 1.74 1.87 1.96 1.72 1.37 1.06 0.95 0.89 0.92 0.94 0.95 1.00 1.07
0.94 0.87 0.86 1.01 1.05 1.08 1.05 1.08 1.13 1.13 1.07 1.07 1.01 0.93 0.94 1.02 1.16 1.35 1.62 1.94 2.08 1.99 1.82 1.93 2.25 1.93 1.68 1.57 1.56 1.54 1.23 1.04 0.89 0.86 0.86 1.02 1.08 1.09
1.04 1.07 1.02 1.10 1.13 1.05 1.01 1.05 1.03 0.98 1.06 1.08 0.97 0.84 0.82 0.92 1.02 1.12 1.24 1.46 1.67 1.73 1.75 1.82 2.04 2.05 1.86 1.60 1.31 1.27 1.29 1.29 1.07 0.93 0.88 0.87 0.87 0.90
1.18 1.16 1.16 1.17 1.14 1.08 1.01 0.92 0.85 0.87 0.96 0.98 0.91 0.81 0.74 0.78 0.90 1.01 1.12 1.24 1.51 1.65 1.71 1.84 2.06 2.26 2.16 1.60 1.33 1.17 1.05 1.30 1.27 1.06 0.95 0.90 0.83 0.73
1.27 1.31 1.25 1.20 1.19 1.08 0.94 0.83 0.79 0.84 0.88 0.84 0.85 0.85 0.81 0.80 0.82 0.90 1.08 1.19 1.37 1.49 1.65 1.92 2.16 2.25 2.27 2.00 1.66 1.27 1.01 1.01 1.10 1.06 1.01 1.01 0.98 0.84
1.30 1.29 1.13 0.98 0.94 0.90 0.84 0.78 0.75 0.74 0.73 0.76 0.82 0.82 0.81 0.83 0.83 0.85 0.99 1.16 1.29 1.35 1.43 1.65 2.01 2.28 2.44 2.43 1.95 1.41 1.11 1.05 1.16 1.16 1.04 1.01 1.08 1.01
1.09 0.97 0.87 0.82 0.78 0.75 0.72 0.70 0.69 0.65 0.65 0.71 0.76 0.78 0.76 0.80 0.84 0.87 0.93 1.07 1.19 1.29 1.39 1.50 1.75 2.06 2.21 2.33 2.32 1.74 1.30 1.16 1.26 1.41 1.26 1.02 0.95 0.99
0.83 0.81 0.79 0.77 0.79 0.81 0.77 0.74 0.70 0.69 0.69 0.67 0.68 0.70 0.73 0.80 0.83 0.83 0.88 1.00 1.09 1.19 1.32 1.43 1.62 1.84 1.96 1.89 1.97 2.00 1.79 1.43 1.28 1.44 1.44 1.23 1.09 1.15
0.76 0.75 0.75 0.77 0.82 0.83 0.78 0.74 0.72 0.68 0.65 0.64 0.63 0.62 0.65 0.73 0.76 0.74 0.81 0.91 1.00 1.08 1.18 1.28 1.46 1.63 1.79 1.81 1.72 1.71 1.90 1.90 1.48 1.35 1.40 1.40 1.33 1.31
0.75 0.77 0.76 0.77 0.82 0.84 0.80 0.76 0.74 0.70 0.65 0.62 0.60 0.58 0.59 0.66 0.71 0.72 0.77 0.84 0.87 0.95 1.06 1.19 1.34 1.52 1.72 1.84 1.74 1.59 1.72 1.94 1.92 1.65 1.46 1.34 1.30 1.27
0.79 0.81 0.81 0.79 0.79 0.80 0.80 0.76 0.72 0.69 0.66 0.63 0.59 0.58 0.60 0.63 0.65 0.70 0.75 0.77 0.82 0.87 0.97 1.15 1.30 1.44 1.65 1.77 1.77 1.62 1.57 1.69 1.72 1.69 1.76 1.52 1.12 0.86

GEFSNE_prec_meanprecacc_216.txt.gz
Total_Precipitation_Accumulation
0.72 0.71 0.72 0.68 0.67 0.68 0.74 0.86 1.07 0.96 0.60 0.44 0.43 0.46 0.54 0.60 0.60 0.57 0.55 0.66 0.72 0.79 0.90 0.94 1.02 1.21 1.57 2.12 2.72 3.62 4.21 3.86 3.09 2.57 2.48 2.77 3.20 3.65
0.80 0.81 0.76 0.72 0.74 0.77 0.81 0.81 0.88 1.01 0.81 0.44 0.40 0.42 0.52 0.66 0.75 0.65 0.60 0.74 0.76 0.78 0.80 0.82 0.89 1.04 1.29 1.62 2.06 2.65 3.53 3.97 3.73 3.22 2.85 2.93 3.15 3.53
0.83 0.84 0.81 0.77 0.85 0.88 0.92 0.92 0.87 0.90 0.93 0.55 0.44 0.48 0.63 0.74 0.81 0.76 0.74 0.73 0.72 0.76 0.78 0.82 0.85 0.96 1.15 1.38 1.62 1.99 2.63 3.37 3.80 3.80 3.48 3.21 3.15 3.22
0.88 0.89 0.88 0.85 0.88 0.91 0.98 0.98 0.90 0.84 0.91 0.76 0.58 0.63 0.72 0.81 0.85 0.82 0.81 0.79 0.70 0.73 0.75 0.84 0.90 0.96 1.09 1.25 1.42 1.63 2.03 2.56 3.12 3.53 3.64 3.32 3.13 3.16
0.85 0.90 0.93 0.94 0.89 0.88 0.98 1.03 0.97 0.91 0.93 0.93 0.74 0.68 0.77 0.89 1.00 0.99 0.94 0.92 0.81 0.78 0.79 0.86 0.95 0.96 1.02 1.16 1.34 1.48 1.65 1.83 2.22 2.83 3.42 3.49 3.25 3.19
0.77 0.79 0.88 1.01 1.02 1.03 1.07 1.06 1.08 1.12 1.11 1.09 0.94 0.83 0.88 0.97 1.11 1.17 1.13 1.07 1.00 0.91 0.93 0.98 1.03 1.05 1.01 1.01 1.07 1.18 1.34 1.62 1.95 2.39 2.87 3.27 3.28 3.18
0.75 0.71 0.80 1.05 1.23 1.39 1.45 1.34 1.35 1.47 1.45 1.39 1.27 1.12 1.02 1.08 1.18 1.17 1.23 1.16 1.15 1.08 1.03 1.04 0.99 0.96 0.94 0.94 0.97 1.01 1.10 1.31 1.60 1.92 2.35 2.73 2.98 3.11
0.84 0.74 0.79 1.03 1.17 1.30 1.43 1.41 1.46 1.65 1.76 1.70 1.54 1.33 1.04 0.94 1.02 1.21 1.41 1.55 1.49 1.25 1.15 1.16 1.00 0.97 0.92 0.84 0.93 0.99 1.03 1.18 1.40 1.63 1.94 2.26 2.56 2.87
0.86 0.80 0.82 0.92 1.05 1.07 1.17 1.20 1.22 1.40 1.65 1.75 1.70 1.33 1.11 1.01 1.20 1.43 1.50 1.60 1.49 1.41 1.42 1.49 1.20 1.07 0.95 0.95 1.04 1.01 1.05 1.11 1.21 1.37 1.62 1.86 2.13 2.47
0.90 0.84 0.78 0.81 0.93 1.09 1.17 1.12 1.04 1.12 1.36 1.56 1.74 1.54 1.33 1.35 1.61 1.86 1.97 1.99 1.76 1.63 1.59 1.78 1.47 1.22 1.09 1.04 1.10 1.03 1.00 1.02 1.07 1.16 1.32 1.54 1.76 2.06
0.94 0.88 0.78 0.74 0.92 1.08 1.06 1.04 0.96 1.01 1.14 1.34 1.48 1.55 1.57 1.72 2.01 2.39 2.55 2.53 2.28 1.97 1.76 1.78 1.70 1.54 1.48 1.41 1.32 1.22 1.06 0.97 0.99 1.04 1.14 1.28 1.50 1.85
0.95 0.91 0.97 0.95 1.03 1.05 0.97 1.02 1.11 1.00 0.96 1.01 1.06 1.11 1.17 1.31 1.71 2.14 2.46 2.56 2.34 2.26 1.98 1.78 1.79 1.81 2.14 1.95 1.59 1.31 1.14 1.07 1.01 1.00 1.02 1.07 1.23 1.40
0.98 0.97 0.92 1.06 1.08 1.04 1.02 1.00 1.16 1.10 1.00 1.08 1.06 0.99 0.99 1.09 1.25 1.58 2.08 2.45 2.45 2.24 1.99 1.97 2.10 1.81 1.95 2.05 1.81 1.45 1.13 1.02 0.95 0.98 1.00 0.99 1.03 1.10
0.95 0.88 0.87 1.03 1.08 1.10 1.07 1.10 1.16 1.15 1.08 1.09 1.02 0.95 0.95 1.03 1.17 1.36 1.64 1.96 2.11 2.03 1.86 1.99 2.32 2.00 1.75 1.65 1.65 1.63 1.31 1.10 0.94 0.90 0.89 1.05 1.11 1.12
1.05 1.08 1.04 1.13 1.16 1.08 1.04 1.08 1.05 1.00 1.07 1.10 0.98 0.85 0.83 0.93 1.03 1.13 1.25 1.48 1.69 1.76 1.78 1.86 2.09 2.11 1.93 1.66 1.37 1.34 1.35 1.35 1.11 0.96 0.91 0.90 0.90 0.92
1.19 1.18 1.19 1.21 1.17 1.10 1.04 0.94 0.86 0.88 0.97 1.00 0.93 0.83 0.75 0.80 0.92 1.03 1.14 1.25 1.52 1.67 1.74 1.86 2.09 2.30 2.21 1.64 1.37 1.21 1.09 1.34 1.30 1.09 0.98 0.94 0.86 0.76
1.28 1.33 1.27 1.23 1.21 1.10 0.95 0.84 0.80 0.85 0.90 0.86 0.86 0.86 0.83 0.81 0.84 0.91 1.09 1.21 1.39 1.51 1.68 1.94 2.19 2.29 2.33 2.06 1.71 1.32 1.04 1.04 1.14 1.10 1.04 1.05 1.03 0.88
1.31 1.31 1.15 1.00 0.96 0.91 0.85 0.79 0.76 0.75 0.74 0.77 0.83 0.84 0.83 0.84 0.85 0.87 1.01 1.17 1.30 1.37 1.46 1.68 2.04 2.33 2.49 2.49 2.01 1.45 1.15 1.09 1.21 1.20 1.08 1.05 1.13 1.06
1.11 0.99 0.89 0.83 0.80 0.76 0.73 0.71 0.71 0.66 0.66 0.72 0.77 0.79 0.78 0.82 0.86 0.88 0.95 1.08 1.20 1.31 1.42 1.53 1.78 2.10 2.25 2.39 2.39 1.79 1.34 1.21 1.31 1.45 1.30 1.06 1.01 1.05
0.84 0.82 0.81 0.79 0.81 0.82 0.79 0.75 0.71 0.70 0.71 0.69 0.69 0.72 0.75 0.82 0.85 0.85 0.89 1.02 1.11 1.21 1.35 1.46 1.66 1.88 2.00 1.94 2.03 2.06 1.85 1.47 1.32 1.48 1.47 1.26 1.14 1.20
0.77 0.76 0.76 0.79 0.83 0.85 0.79 0.75 0.74 0.70 0.66 0.65 0.64 0.63 0.67 0.75 0.78 0.76 0.83 0.94 1.02 1.11 1.20 1.32 1.50 1.67 1.83 1.85 1.77 1.76 1.96 1.96 1.53 1.39 1.43 1.43 1.36 1.34
0.76 0.77 0.76 0.78 0.83 0.85 0.82 0.77 0.76 0.72 0.66 0.64 0.61 0.60 0.61 0.68 0.72 0.74 0.80 0.87 0.90 0.97 1.08 1.22 1.37 1.56 1.76 1.88 1.79 1.65 1.78 2.00 1.97 1.69 1.49 1.37 1.33 1.30
0.80 0.82 0.81 0.80 0.80 0.81 0.81 0.77 0.74 0.71 0.67 0.64 0.61 0.60 0.62 0.65 0.66 0.72 0.78 0.80 0.84 0.89 0.99 1.18 1.34 1.48 1.69 1.81 1.81 1.67 1.62 1.73 1.77 1.73 1.80 1.56 1.15 0.90

GEFSNE_prec_meanprecacc_222.txt.gz
Total_Precipitation_Accumulation
0.72 0.71 0.72 0.68 0.67 0.69 0.74 0.87 1.08 0.97 0.61 0.45 0.45 0.47 0.55 0.61 0.60 0.57 0.56 0.67 0.73 0.81 0.92 0.96 1.04 1.24 1.60 2.16 2.79 3.70 4.30 3.93 3.14 2.62 2.54 2.83 3.26 3.70
0.80 0.81 0.76 0.72 0.74 0.78 0.82 0.82 0.89 1.02 0.82 0.45 0.41 0.43 0.52 0.66 0.75 0.65 0.61 0.74 0.77 0.79 0.81 0.84 0.92 1.09 1.33 1.66 2.10 2.70 3.60 4.05 3.80 3.28 2.90 2.99 3.21 3.59
0.83 0.85 0.81 0.77 0.85 0.89 0.93 0.93 0.88 0.91 0.94 0.55 0.44 0.49 0.63 0.74 0.81 0.76 0.74 0.73 0.73 0.77 0.79 0.83 0.87 0.99 1.20 1.42 1.66 2.04 2.69 3.43 3.85 3.86 3.54 3.27 3.21 3.28
0.88 0.89 0.88 0.85 0.88 0.92 1.00 0.99 0.91 0.86 0.92 0.77 0.59 0.63 0.72 0.81 0.85 0.83 0.81 0.79 0.70 0.74 0.75 0.86 0.91 0.98 1.13 1.30 1.46 1.68 2.07 2.61 3.17 3.59 3.71 3.38 3.18 3.21
0.85 0.90 0.93 0.94 0.89 0.89 0.99 1.04 0.98 0.93 0.95 0.95 0.76 0.69 0.78 0.89 1.00 0.99 0.94 0.92 0.81 0.79 0.80 0.88 0.97 0.98 1.05 1.19 1.38 1.53 1.70 1.89 2.28 2.91 3.51 3.55 3.29 3.23
0.77 0.79 0.89 1.02 1.03 1.04 1.09 1.07 1.09 1.14 1.12 1.11 0.96 0.84 0.89 0.98 1.12 1.17 1.14 1.07 1.01 0.91 0.94 0.99 1.05 1.07 1.04 1.04 1.11 1.24 1.41 1.70 2.04 2.48 2.96 3.34 3.35 3.25
0.76 0.71 0.81 1.05 1.24 1.41 1.47 1.35 1.36 1.49 1.46 1.41 1.29 1.13 1.04 1.09 1.19 1.18 1.24 1.17 1.15 1.09 1.05 1.05 1.00 0.97 0.96 0.97 1.01 1.08 1.17 1.39 1.68 2.01 2.43 2.80 3.06 3.19
0.85 0.75 0.79 1.03 1.18 1.31 1.45 1.44 1.48 1.67 1.78 1.72 1.57 1.35 1.06 0.96 1.03 1.22 1.42 1.57 1.50 1.26 1.17 1.17 1.01 0.98 0.94 0.87 0.97 1.05 1.12 1.26 1.48 1.72 2.02 2.34 2.64 2.95
0.86 0.81 0.83 0.93 1.05 1.08 1.18 1.23 1.26 1.44 1.68 1.78 1.73 1.36 1.14 1.03 1.22 1.44 1.52 1.63 1.51 1.43 1.44 1.51 1.22 1.09 0.98 0.99 1.09 1.06 1.12 1.18 1.29 1.45 1.69 1.93 2.20 2.53
0.91 0.85 0.78 0.82 0.95 1.10 1.18 1.15 1.08 1.15 1.39 1.59 1.77 1.57 1.36 1.38 1.64 1.88 1.99 2.02 1.78 1.65 1.61 1.81 1.50 1.25 1.13 1.09 1.15 1.08 1.05 1.08 1.14 1.23 1.40 1.61 1.82 2.12
0.94 0.89 0.79 0.75 0.93 1.10 1.08 1.06 0.99 1.03 1.16 1.36 1.52 1.58 1.59 1.74 2.03 2.42 2.58 2.57 2.31 1.99 1.78 1.80 1.74 1.58 1.53 1.48 1.38 1.26 1.09 1.02 1.04 1.09 1.19 1.34 1.56 1.90
0.96 0.92 0.98 0.96 1.05 1.07 0.98 1.04 1.13 1.02 0.97 1.02 1.07 1.13 1.18 1.33 1.73 2.17 2.49 2.60 2.38 2.29 2.00 1.79 1.81 1.84 2.18 2.01 1.65 1.35 1.17 1.10 1.04 1.04 1.07 1.11 1.28 1.44
0.98 0.98 0.93 1.07 1.09 1.06 1.03 1.01 1.17 1.11 1.01 1.09 1.07 1.00 1.00 1.10 1.27 1.61 2.12 2.49 2.49 2.27 2.01 1.99 2.12 1.84 1.98 2.09 1.86 1.49 1.16 1.05 0.98 1.02 1.03 1.03 1.07 1.14
0.96 0.89 0.87 1.03 1.08 1.11 1.07 1.11 1.16 1.16 1.09 1.10 1.03 0.96 0.96 1.05 1.18 1.38 1.66 2.00 2.15 2.06 1.89 2.01 2.35 2.03 1.78 1.68 1.68 1.66 1.34 1.12 0.97 0.93 0.92 1.08 1.15 1.15
1.05 1.09 1.05 1.13 1.17 1.09 1.05 1.09 1.06 1.01 1.08 1.12 1.00 0.86 0.84 0.94 1.04 1.15 1.28 1.50 1.71 1.78 1.80 1.88 2.12 2.14 1.96 1.69 1.40 1.36 1.38 1.38 1.14 0.99 0.94 0.93 0.93 0.96
1.19 1.18 1.20 1.21 1.18 1.12 1.05 0.95 0.88 0.90 1.00 1.02 0.95 0.85 0.77 0.81 0.93 1.04 1.15 1.27 1.53 1.69 1.75 1.88 2.12 2.33 2.25 1.67 1.40 1.24 1.12 1.37 1.33 1.11 1.01 0.97 0.89 0.79
1.29 1.33 1.28 1.23 1.22 1.11 0.96 0.85 0.81 0.86 0.91 0.88 0.88 0.88 0.84 0.83 0.85 0.93 1.10 1.22 1.40 1.52 1.69 1.96 2.22 2.33 2.36 2.09 1.75 1.35 1.07 1.07 1.17 1.12 1.07 1.08 1.07 0.92
1.32 1.31 1.15 1.00 0.96 0.92 0.86 0.80 0.77 0.77 0.75 0.79 0.85 0.85 0.84 0.85 0.86 0.88 1.01 1.18 1.32 1.39 1.48 1.70 2.07 2.35 2.52 2.52 2.05 1.49 1.18 1.12 1.23 1.22 1.10 1.08 1.18 1.10
1.11 0.99 0.90 0.84 0.80 0.77 0.74 0.72 0.72 0.68 0.68 0.74 0.79 0.80 0.79 0.83 0.87 0.89 0.96 1.09 1.22 1.33 1.45 1.56 1.80 2.12 2.28 2.43 2.44 1.83 1.37 1.23 1.32 1.47 1.32 1.08 1.05 1.10
0.84 0.82 0.81 0.79 0.82 0.83 0.80 0.76 0.72 0.71 0.72 0.70 0.70 0.72 0.76 0.83 0.86 0.86 0.90 1.03 1.13 1.24 1.37 1.49 1.69 1.91 2.03 1.98 2.08 2.10 1.88 1.49 1.34 1.50 1.50 1.30 1.18 1.26
0.77 0.76 0.76 0.79 0.84 0.86 0.80 0.77 0.75 0.71 0.67 0.66 0.65 0.64 0.68 0.76 0.79 0.77 0.84 0.95 1.04 1.13 1.23 1.34 1.53 1.71 1.86 1.88 1.80 1.80 2.00 1.99 1.55 1.41 1.46 1.46 1.40 1.39
0.76 0.78 0.77 0.79 0.83 0.86 0.83 0.79 0.77 0.73 0.67 0.64 0.62 0.61 0.62 0.69 0.74 0.75 0.81 0.88 0.92 0.99 1.10 1.24 1.40 1.59 1.78 1.90 1.82 1.68 1.81 2.03 2.01 1.74 1.53 1.40 1.37 1.34
0.81 0.83 0.82 0.80 0.80 0.82 0.82 0.78 0.75 0.72 0.68 0.65 0.62 0.61 0.63 0.67 0.68 0.74 0.79 0.82 0.86 0.91 1.01 1.20 1.37 1.51 1.70 1.83 1.84 1.70 1.65 1.77 1.81 1.78 1.85 1.59 1.18 0.93

GEFSNE_prec_meanprecacc_228.txt.gz
Total_Precipitation_Accumulation
0.72 0.71 0.72 0.68 0.67 0.69 0.75 0.87 1.09 0.97 0.61 0.45 0.45 0.47 0.55 0.61 0.60 0.57 0.56 0.67 0.73 0.82 0.93 0.97 1.05 1.25 1.61 2.18 2.81 3.73 4.34 4.00 3.22 2.71 2.63 2.91 3.35 3.79
0.80 0.81 0.77 0.72 0.75 0.78 0.82 0.82 0.89 1.02 0.82 0.45 0.41 0.43 0.52 0.67 0.75 0.65 0.61 0.75 0.78 0.80 0.82 0.85 0.93 1.10 1.35 1.68 2.12 2.73 3.63 4.10 3.88 3.37 3.00 3.08 3.31 3.69
0.83 0.85 0.81 0.77 0.86 0.89 0.94 0.93 0.88 0.91 0.94 0.56 0.45 0.49 0.63 0.74 0.81 0.76 0.75 0.74 0.74 0.78 0.80 0.84 0.89 1.01 1.22 1.44 1.68 2.06 2.72 3.46 3.90 3.92 3.61 3.35 3.30 3.37
0.88 0.89 0.88 0.85 0.89 0.92 1.00 1.00 0.91 0.86 0.93 0.77 0.60 0.63 0.72 0.82 0.85 0.83 0.82 0.80 0.72 0.75 0.77 0.87 0.93 1.00 1.15 1.32 1.48 1.70 2.09 2.63 3.19 3.63 3.76 3.45 3.25 3.28
0.85 0.90 0.93 0.94 0.90 0.90 1.00 1.05 0.99 0.93 0.96 0.96 0.76 0.69 0.78 0.90 1.01 1.00 0.95 0.93 0.82 0.80 0.81 0.90 0.98 1.00 1.07 1.21 1.40 1.55 1.72 1.91 2.30 2.92 3.53 3.59 3.34 3.29
0.77 0.79 0.89 1.02 1.03 1.05 1.09 1.08 1.10 1.14 1.13 1.12 0.97 0.85 0.90 0.99 1.13 1.18 1.15 1.08 1.02 0.92 0.96 1.00 1.06 1.08 1.05 1.06 1.13 1.26 1.43 1.72 2.05 2.50 2.98 3.37 3.39 3.32
0.76 0.71 0.81 1.05 1.24 1.41 1.47 1.36 1.37 1.49 1.47 1.42 1.29 1.14 1.04 1.10 1.20 1.19 1.25 1.18 1.16 1.10 1.06 1.06 1.01 0.98 0.97 0.98 1.03 1.10 1.20 1.41 1.70 2.04 2.46 2.84 3.11 3.24
0.85 0.75 0.80 1.04 1.18 1.31 1.46 1.44 1.48 1.67 1.78 1.73 1.58 1.36 1.06 0.96 1.04 1.23 1.44 1.58 1.52 1.28 1.18 1.19 1.02 1.00 0.95 0.88 0.99 1.08 1.14 1.29 1.50 1.75 2.06 2.37 2.68 3.00
0.86 0.81 0.83 0.93 1.06 1.08 1.19 1.23 1.26 1.44 1.69 1.79 1.74 1.36 1.14 1.04 1.23 1.46 1.54 1.65 1.53 1.44 1.47 1.53 1.23 1.11 1.01 1.02 1.12 1.10 1.15 1.21 1.32 1.48 1.72 1.97 2.24 2.58
0.91 0.85 0.79 0.83 0.95 1.11 1.19 1.15 1.08 1.16 1.40 1.60 1.78 1.58 1.37 1.39 1.66 1.90 2.01 2.04 1.80 1.67 1.63 1.83 1.52 1.27 1.16 1.12 1.19 1.11 1.08 1.11 1.17 1.26 1.43 1.64 1.88 2.18
0.94 0.89 0.79 0.75 0.94 1.11 1.09 1.06 0.99 1.04 1.17 1.37 1.52 1.59 1.61 1.76 2.05 2.44 2.60 2.59 2.33 2.01 1.80 1.83 1.76 1.60 1.55 1.51 1.42 1.30 1.12 1.04 1.06 1.11 1.21 1.37 1.60 1.96
0.96 0.92 0.98 0.96 1.05 1.08 0.99 1.05 1.14 1.03 0.98 1.03 1.08 1.14 1.19 1.34 1.75 2.20 2.53 2.64 2.42 2.33 2.03 1.83 1.84 1.86 2.21 2.04 1.68 1.38 1.19 1.12 1.06 1.05 1.09 1.14 1.31 1.48
0.99 0.98 0.93 1.07 1.10 1.06 1.04 1.02 1.18 1.11 1.02 1.10 1.08 1.01 1.01 1.11 1.28 1.63 2.14 2.53 2.53 2.31 2.04 2.03 2.15 1.86 2.01 2.12 1.89 1.52 1.19 1.07 1.00 1.03 1.05 1.05 1.10 1.17
0.96 0.89 0.88 1.03 1.09 1.12 1.08 1.12 1.17 1.17 1.09 1.10 1.04 0.97 0.97 1.06 1.20 1.40 1.69 2.02 2.18 2.10 1.92 2.05 2.39 2.06 1.82 1.71 1.72 1.69 1.36 1.15 0.99 0.94 0.94 1.11 1.17 1.19
1.06 1.09 1.05 1.14 1.17 1.09 1.06 1.10 1.07 1.01 1.09 1.12 1.01 0.87 0.85 0.96 1.06 1.17 1.29 1.52 1.73 1.80 1.83 1.91 2.15 2.17 2.00 1.74 1.44 1.39 1.40 1.40 1.16 1.00 0.96 0.96 0.97 0.99
1.20 1.19 1.20 1.22 1.18 1.12 1.06 0.96 0.88 0.90 1.00 1.02 0.96 0.85 0.77 0.82 0.95 1.06 1.17 1.28 1.55 1.71 1.78 1.91 2.14 2.36 2.28 1.70 1.42 1.27 1.14 1.41 1.36 1.13 1.03 0.99 0.92 0.81
1.30 1.34 1.29 1.24 1.22 1.11 0.97 0.85 0.82 0.86 0.92 0.88 0.89 0.89 0.85 0.84 0.86 0.94 1.12 1.23 1.41 1.54 1.72 1.99 2.24 2.35 2.39 2.11 1.77 1.37 1.10 1.10 1.19 1.14 1.08 1.10 1.10 0.95
1.33 1.32 1.16 1.01 0.97 0.92 0.86 0.81 0.78 0.77 0.76 0.80 0.85 0.86 0.85 0.86 0.87 0.89 1.03 1.20 1.33 1.40 1.50 1.73 2.09 2.38 2.55 2.55 2.08 1.51 1.20 1.14 1.24 1.23 1.11 1.10 1.20 1.13
1.12 1.00 0.90 0.85 0.81 0.78 0.75 0.73 0.73 0.68 0.68 0.74 0.79 0.81 0.79 0.84 0.88 0.91 0.97 1.10 1.23 1.34 1.47 1.58 1.83 2.15 2.31 2.46 2.47 1.86 1.40 1.24 1.33 1.48 1.33 1.10 1.07 1.14
0.85 0.83 0.82 0.80 0.82 0.84 0.81 0.77 0.73 0.72 0.73 0.71 0.71 0.73 0.77 0.84 0.87 0.87 0.91 1.04 1.15 1.25 1.39 1.51 1.71 1.94 2.07 2.02 2.11 2.13 1.91 1.51 1.35 1.51 1.51 1.32 1.20 1.29
0.78 0.78 0.78 0.80 0.85 0.87 0.81 0.78 0.76 0.72 0.68 0.67 0.66 0.65 0.69 0.77 0.80 0.78 0.85 0.96 1.06 1.15 1.25 1.36 1.55 1.73 1.89 1.90 1.82 1.83 2.02 2.01 1.57 1.43 1.48 1.49 1.43 1.41
0.77 0.79 0.78 0.80 0.85 0.87 0.84 0.80 0.78 0.74 0.68 0.65 0.63 0.62 0.63 0.70 0.75 0.76 0.83 0.90 0.93 1.01 1.12 1.26 1.42 1.61 1.80 1.92 1.84 1.70 1.83 2.04 2.02 1.76 1.56 1.43 1.40 1.39
0.83 0.84 0.83 0.82 0.82 0.83 0.84 0.79 0.76 0.73 0.69 0.66 0.63 0.62 0.64 0.68 0.69 0.75 0.80 0.83 0.88 0.93 1.03 1.21 1.39 1.53 1.72 1.84 1.85 1.71 1.66 1.78 1.82 1.80 1.88 1.62 1.21 0.97

GEFSNE_prec_meanprecacc_234.txt.gz
Total_Precipitation_Accumulation
0.73 0.71 0.73 0.68 0.68 0.69 0.75 0.87 1.09 0.98 0.61 0.45 0.45 0.47 0.55 0.61 0.61 0.57 0.56 0.67 0.74 0.82 0.93 0.98 1.07 1.27 1.63 2.21 2.84 3.76 4.37 4.03 3.26 2.75 2.68 2.97 3.41 3.85
0.80 0.81 0.77 0.73 0.75 0.78 0.82 0.83 0.90 1.03 0.82 0.45 0.41 0.43 0.52 0.67 0.75 0.65 0.61 0.75 0.78 0.80 0.82 0.86 0.94 1.12 1.37 1.71 2.16 2.76 3.66 4.14 3.91 3.41 3.04 3.12 3.36 3.74
0.83 0.85 0.81 0.78 0.86 0.89 0.94 0.93 0.88 0.91 0.94 0.56 0.45 0.49 0.63 0.74 0.81 0.76 0.75 0.74 0.74 0.78 0.80 0.85 0.90 1.03 1.24 1.47 1.71 2.10 2.76 3.50 3.93 3.95 3.65 3.39 3.35 3.41
0.88 0.89 0.88 0.85 0.89 0.92 1.00 1.00 0.92 0.86 0.93 0.78 0.60 0.63 0.73 0.82 0.85 0.83 0.82 0.80 0.72 0.75 0.77 0.88 0.94 1.02 1.17 1.34 1.49 1.72 2.12 2.66 3.22 3.66 3.80 3.49 3.30 3.33
0.85 0.90 0.93 0.94 0.90 0.90 1.00 1.05 0.99 0.93 0.96 0.96 0.76 0.69 0.78 0.90 1.01 1.00 0.95 0.93 0.82 0.80 0.82 0.90 0.99 1.02 1.08 1.23 1.41 1.57 1.75 1.93 2.33 2.96 3.57 3.63 3.38 3.34
0.77 0.79 0.89 1.02 1.04 1.05 1.09 1.08 1.10 1.15 1.14 1.12 0.97 0.85 0.90 0.99 1.13 1.18 1.15 1.09 1.02 0.92 0.96 1.01 1.07 1.10 1.07 1.08 1.15 1.29 1.46 1.75 2.08 2.54 3.02 3.40 3.42 3.35
0.76 0.71 0.81 1.05 1.24 1.42 1.47 1.36 1.37 1.50 1.47 1.42 1.30 1.14 1.05 1.10 1.20 1.19 1.26 1.18 1.16 1.11 1.06 1.07 1.02 1.00 0.98 1.00 1.05 1.12 1.22 1.44 1.73 2.07 2.49 2.86 3.13 3.27
0.85 0.75 0.80 1.04 1.18 1.31 1.46 1.45 1.49 1.68 1.79 1.74 1.58 1.37 1.07 0.97 1.05 1.24 1.44 1.59 1.52 1.28 1.18 1.19 1.03 1.01 0.97 0.91 1.02 1.11 1.16 1.31 1.52 1.77 2.08 2.40 2.71 3.03
0.86 0.81 0.83 0.93 1.06 1.08 1.19 1.23 1.26 1.45 1.70 1.80 1.75 1.37 1.15 1.05 1.24 1.47 1.54 1.66 1.54 1.45 1.47 1.53 1.23 1.12 1.02 1.03 1.14 1.12 1.17 1.23 1.34 1.50 1.75 1.99 2.27 2.61
0.91 0.85 0.79 0.83 0.95 1.11 1.19 1.16 1.08 1.16 1.40 1.60 1.79 1.59 1.38 1.40 1.67 1.92 2.02 2.05 1.80 1.67 1.63 1.84 1.52 1.28 1.17 1.13 1.20 1.12 1.10 1.13 1.19 1.28 1.45 1.67 1.90 2.21
0.95 0.89 0.79 0.75 0.94 1.11 1.09 1.07 1.00 1.04 1.17 1.38 1.53 1.60 1.62 1.77 2.06 2.45 2.62 2.60 2.34 2.02 1.81 1.84 1.77 1.61 1.56 1.51 1.43 1.31 1.13 1.06 1.08 1.14 1.23 1.39 1.63 1.99
0.96 0.92 0.98 0.96 1.06 1.08 1.00 1.06 1.15 1.04 0.99 1.04 1.09 1.14 1.20 1.35 1.76 2.20 2.55 2.66 2.44 2.35 2.04 1.84 1.85 1.87 2.23 2.04 1.68 1.39 1.21 1.14 1.09 1.08 1.12 1.16 1.34 1.50
0.99 0.98 0.93 1.07 1.10 1.07 1.04 1.03 1.20 1.12 1.03 1.10 1.08 1.01 1.01 1.12 1.29 1.64 2.16 2.55 2.56 2.33 2.05 2.06 2.17 1.88 2.03 2.13 1.91 1.54 1.21 1.09 1.03 1.07 1.08 1.08 1.13 1.19
0.97 0.90 0.88 1.04 1.09 1.13 1.09 1.13 1.18 1.17 1.09 1.10 1.04 0.97 0.97 1.06 1.21 1.41 1.70 2.03 2.20 2.12 1.94 2.07 2.42 2.09 1.84 1.73 1.74 1.72 1.39 1.17 1.02 0.97 0.97 1.14 1.21 1.22
1.07 1.10 1.06 1.14 1.18 1.10 1.07 1.11 1.07 1.02 1.09 1.12 1.01 0.87 0.86 0.96 1.07 1.18 1.30 1.52 1.74 1.81 1.84 1.92 2.17 2.19 2.02 1.76 1.46 1.41 1.43 1.43 1.19 1.03 0.98 0.99 1.00 1.02
1.21 1.20 1.21 1.22 1.19 1.13 1.07 0.97 0.89 0.91 1.00 1.03 0.96 0.85 0.78 0.83 0.96 1.07 1.18 1.29 1.55 1.72 1.79 1.92 2.16 2.38 2.30 1.73 1.45 1.29 1.16 1.43 1.39 1.16 1.05 1.01 0.94 0.84
1.30 1.34 1.29 1.24 1.23 1.12 0.97 0.86 0.82 0.87 0.92 0.89 0.89 0.90 0.86 0.85 0.87 0.95 1.13 1.24 1.42 1.55 1.73 2.01 2.26 2.37 2.41 2.14 1.80 1.40 1.12 1.12 1.22 1.16 1.09 1.11 1.11 0.97
1.34 1.32 1.16 1.02 0.97 0.93 0.87 0.81 0.78 0.77 0.76 0.80 0.86 0.87 0.86 0.87 0.88 0.90 1.04 1.20 1.34 1.42 1.52 1.75 2.11 2.40 2.56 2.57 2.11 1.54 1.22 1.16 1.27 1.25 1.12 1.11 1.22 1.15
1.14 1.01 0.91 0.85 0.82 0.79 0.76 0.74 0.74 0.69 0.69 0.75 0.81 0.82 0.81 0.85 0.89 0.91 0.98 1.11 1.24 1.36 1.48 1.60 1.85 2.17 2.34 2.49 2.51 1.90 1.43 1.27 1.36 1.50 1.35 1.12 1.10 1.16
0.86 0.85 0.83 0.81 0.83 0.84 0.81 0.78 0.74 0.73 0.74 0.72 0.73 0.75 0.78 0.85 0.88 0.88 0.92 1.05 1.16 1.27 1.41 1.52 1.73 1.96 2.11 2.05 2.16 2.18 1.95 1.54 1.37 1.53 1.54 1.34 1.23 1.32
0.79 0.79 0.79 0.81 0.85 0.87 0.82 0.79 0.77 0.73 0.69 0.68 0.67 0.66 0.70 0.79 0.82 0.79 0.86 0.98 1.07 1.17 1.26 1.37 1.57 1.76 1.91 1.93 1.86 1.86 2.05 2.04 1.59 1.46 1.51 1.52 1.46 1.44
0.78 0.80 0.79 0.81 0.86 0.88 0.85 0.81 0.79 0.75 0.69 0.66 0.64 0.62 0.64 0.71 0.77 0.78 0.84 0.92 0.95 1.03 1.14 1.27 1.44 1.63 1.83 1.96 1.87 1.73 1.86 2.07 2.04 1.77 1.58 1.46 1.44 1.44
0.84 0.85 0.84 0.83 0.83 0.85 0.85 0.81 0.77 0.74 0.69 0.67 0.64 0.63 0.65 0.69 0.70 0.76 0.82 0.85 0.89 0.94 1.04 1.23 1.40 1.55 1.75 1.87 1.88 1.74 1.69 1.80 1.85 1.82 1.90 1.65 1.23 1.01

GEFSNE_prec_meanprecacc_240.txt.gz
Total_Precipitation_Accumulation
0.73 0.72 0.73 0.69 0.68 0.69 0.75 0.88 1.10 0.98 0.62 0.45 0.45 0.48 0.55 0.61 0.61 0.58 0.56 0.68 0.74 0.82 0.94 0.99 1.07 1.27 1.64 2.22 2.85 3.78 4.39 4.06 3.29 2.78 2.72 3.02 3.47 3.92
0.81 0.82 0.77 0.73 0.75 0.78 0.83 0.83 0.90 1.03 0.83 0.45 0.42 0.43 0.52 0.67 0.75 0.65 0.61 0.75 0.78 0.80 0.83 0.86 0.95 1.12 1.38 1.72 2.17 2.78 3.68 4.16 3.94 3.44 3.07 3.17 3.42 3.81
0.85 0.86 0.82 0.78 0.86 0.89 0.94 0.93 0.88 0.92 0.95 0.56 0.45 0.49 0.63 0.74 0.81 0.76 0.75 0.74 0.74 0.78 0.80 0.86 0.91 1.03 1.24 1.48 1.72 2.11 2.77 3.52 3.96 3.98 3.68 3.45 3.42 3.48
0.91 0.91 0.89 0.86 0.89 0.92 1.00 1.00 0.92 0.86 0.93 0.78 0.60 0.63 0.73 0.82 0.85 0.83 0.82 0.80 0.72 0.75 0.77 0.88 0.95 1.02 1.18 1.35 1.50 1.73 2.13 2.67 3.24 3.69 3.83 3.53 3.35 3.39
0.90 0.93 0.95 0.95 0.90 0.90 1.00 1.05 0.99 0.94 0.97 0.97 0.77 0.69 0.78 0.90 1.01 1.00 0.95 0.93 0.82 0.80 0.82 0.90 0.99 1.02 1.09 1.23 1.43 1.58 1.76 1.95 2.35 2.99 3.59 3.65 3.41 3.38
0.82 0.82 0.91 1.04 1.04 1.05 1.10 1.08 1.11 1.15 1.14 1.13 0.97 0.86 0.90 0.99 1.13 1.18 1.15 1.09 1.02 0.92 0.96 1.01 1.07 1.10 1.07 1.08 1.16 1.29 1.47 1.76 2.10 2.56 3.04 3.42 3.44 3.38
0.83 0.75 0.84 1.08 1.26 1.43 1.48 1.37 1.37 1.50 1.48 1.43 1.30 1.15 1.05 1.10 1.21 1.20 1.26 1.18 1.16 1.11 1.06 1.07 1.02 1.00 0.98 1.00 1.05 1.13 1.23 1.45 1.75 2.09 2.51 2.88 3.15 3.30
0.91 0.80 0.84 1.07 1.22 1.34 1.48 1.46 1.50 1.68 1.79 1.74 1.59 1.37 1.07 0.97 1.05 1.25 1.45 1.59 1.52 1.28 1.18 1.19 1.03 1.01 0.97 0.91 1.03 1.12 1.18 1.32 1.54 1.79 2.10 2.42 2.73 3.05
0.89 0.85 0.87 0.97 1.09 1.11 1.21 1.24 1.27 1.45 1.70 1.81 1.76 1.38 1.16 1.06 1.26 1.48 1.55 1.66 1.54 1.45 1.47 1.53 1.23 1.12 1.02 1.03 1.15 1.13 1.18 1.24 1.35 1.52 1.76 2.01 2.29 2.64
0.93 0.87 0.81 0.86 0.98 1.13 1.21 1.16 1.09 1.16 1.40 1.60 1.79 1.60 1.39 1.41 1.68 1.93 2.04 2.06 1.80 1.67 1.63 1.84 1.52 1.28 1.17 1.13 1.20 1.13 1.11 1.14 1.20 1.30 1.46 1.69 1.93 2.23
0.96 0.90 0.81 0.77 0.96 1.13 1.10 1.07 1.00 1.04 1.17 1.38 1.54 1.61 1.62 1.77 2.07 2.46 2.63 2.62 2.35 2.02 1.81 1.84 1.77 1.61 1.56 1.52 1.43 1.32 1.14 1.07 1.10 1.15 1.25 1.41 1.65 2.02
0.97 0.93 1.00 0.98 1.07 1.09 1.00 1.06 1.16 1.04 0.99 1.04 1.09 1.14 1.20 1.35 1.76 2.21 2.56 2.69 2.46 2.36 2.05 1.85 1.85 1.88 2.24 2.05 1.69 1.40 1.22 1.15 1.10 1.10 1.13 1.18 1.36 1.52
1.00 0.99 0.94 1.09 1.11 1.08 1.05 1.03 1.21 1.13 1.03 1.10 1.08 1.01 1.01 1.12 1.30 1.65 2.17 2.57 2.59 2.35 2.06 2.08 2.20 1.90 2.05 2.15 1.91 1.55 1.22 1.11 1.04 1.08 1.10 1.10 1.15 1.21
0.97 0.90 0.89 1.05 1.10 1.13 1.09 1.14 1.19 1.18 1.09 1.10 1.04 0.97 0.98 1.07 1.21 1.41 1.70 2.04 2.21 2.13 1.95 2.10 2.46 2.12 1.87 1.75 1.76 1.73 1.40 1.19 1.03 0.99 0.98 1.16 1.23 1.24
1.07 1.11 1.07 1.15 1.19 1.10 1.07 1.11 1.08 1.02 1.09 1.13 1.01 0.88 0.86 0.97 1.08 1.19 1.31 1.53 1.74 1.81 1.85 1.94 2.19 2.21 2.05 1.79 1.49 1.43 1.44 1.45 1.21 1.05 1.00 1.01 1.02 1.04
1.21 1.20 1.22 1.23 1.20 1.14 1.07 0.97 0.89 0.91 1.01 1.04 0.97 0.86 0.79 0.84 0.97 1.07 1.19 1.30 1.56 1.72 1.79 1.93 2.17 2.40 2.32 1.75 1.47 1.31 1.17 1.46 1.42 1.18 1.07 1.03 0.97 0.87
1.31 1.35 1.30 1.25 1.24 1.13 0.98 0.86 0.82 0.87 0.93 0.89 0.90 0.91 0.87 0.86 0.88 0.95 1.14 1.25 1.43 1.56 1.74 2.02 2.27 2.38 2.43 2.16 1.83 1.41 1.13 1.14 1.24 1.18 1.12 1.14 1.15 1.00
1.34 1.33 1.17 1.02 0.98 0.93 0.87 0.81 0.78 0.78 0.77 0.81 0.88 0.88 0.88 0.89 0.89 0.90 1.05 1.22 1.35 1.43 1.53 1.76 2.12 2.41 2.58 2.59 2.14 1.56 1.24 1.17 1.28 1.27 1.14 1.15 1.26 1.18
1.14 1.02 0.92 0.86 0.82 0.79 0.76 0.74 0.74 0.70 0.70 0.77 0.82 0.84 0.82 0.87 0.91 0.93 0.99 1.13 1.25 1.37 1.49 1.61 1.87 2.20 2.37 2.52 2.54 1.93 1.45 1.29 1.38 1.53 1.37 1.14 1.12 1.18
0.87 0.85 0.83 0.81 0.83 0.85 0.82 0.79 0.75 0.74 0.75 0.73 0.74 0.76 0.80 0.87 0.90 0.89 0.94 1.07 1.17 1.28 1.42 1.54 1.75 1.99 2.14 2.08 2.19 2.21 1.97 1.56 1.40 1.56 1.56 1.35 1.24 1.33
0.80 0.79 0.79 0.82 0.86 0.88 0.83 0.79 0.78 0.75 0.71 0.70 0.68 0.67 0.71 0.80 0.83 0.81 0.88 0.99 1.09 1.19 1.29 1.40 1.60 1.79 1.94 1.95 1.89 1.90 2.09 2.06 1.62 1.49 1.53 1.54 1.48 1.45
0.79 0.81 0.80 0.82 0.86 0.88 0.85 0.81 0.80 0.76 0.71 0.67 0.65 0.64 0.65 0.73 0.78 0.79 0.86 0.94 0.97 1.04 1.16 1.29 1.45 1.65 1.85 1.98 1.91 1.77 1.90 2.10 2.07 1.80 1.60 1.49 1.48 1.48
0.84 0.86 0.85 0.83 0.84 0.85 0.86 0.82 0.78 0.75 0.71 0.68 0.65 0.64 0.66 0.70 0.72 0.78 0.84 0.87 0.91 0.95 1.05 1.24 1.42 1.57 1.78 1.91 1.92 1.78 1.72 1.84 1.88 1.85 1.92 1.67 1.26 1.05

GEFSNE_prec_meanprecacc_246.txt.gz
Total_Precipitation_Accumulation
0.79 0.73 0.74 0.70 0.69 0.70 0.76 0.88 1.11 0.99 0.62 0.45 0.45 0.48 0.55 0.62 0.61 0.58 0.57 0.68 0.74 0.83 0.94 0.99 1.08 1.28 1.65 2.23 2.86 3.79 4.40 4.07 3.29 2.79 2.74 3.05 3.50 3.95
0.88 0.86 0.79 0.74 0.75 0.79 0.83 0.83 0.91 1.04 0.83 0.46 0.42 0.44 0.52 0.67 0.76 0.65 0.61 0.76 0.79 0.81 0.83 0.87 0.95 1.13 1.39 1.72 2.18 2.78 3.69 4.17 3.94 3.45 3.09 3.20 3.44 3.84
0.88 0.91 0.85 0.79 0.87 0.90 0.94 0.94 0.89 0.92 0.95 0.56 0.45 0.49 0.63 0.74 0.81 0.76 0.75 0.74 0.75 0.79 0.81 0.86 0.91 1.04 1.25 1.48 1.73 2.12 2.78 3.52 3.96 3.99 3.70 3.47 3.45 3.51
0.94 0.93 0.92 0.88 0.91 0.93 1.01 1.01 0.92 0.87 0.94 0.78 0.60 0.64 0.73 0.82 0.85 0.83 0.82 0.80 0.72 0.76 0.78 0.88 0.95 1.03 1.18 1.35 1.51 1.73 2.13 2.68 3.25 3.70 3.85 3.55 3.39 3.42
0.92 0.95 0.96 0.96 0.92 0.91 1.00 1.06 1.00 0.94 0.98 0.97 0.77 0.69 0.78 0.90 1.01 1.00 0.95 0.93 0.83 0.80 0.82 0.90 0.99 1.02 1.09 1.24 1.43 1.58 1.76 1.95 2.36 3.00 3.61 3.67 3.43 3.40
0.83 0.84 0.93 1.05 1.05 1.06 1.10 1.09 1.11 1.16 1.15 1.13 0.98 0.86 0.90 0.99 1.13 1.18 1.15 1.09 1.02 0.92 0.96 1.01 1.07 1.10 1.07 1.08 1.16 1.30 1.47 1.77 2.11 2.57 3.06 3.44 3.45 3.39
0.84 0.76 0.85 1.09 1.28 1.44 1.49 1.37 1.38 1.51 1.49 1.44 1.31 1.15 1.05 1.10 1.21 1.20 1.26 1.18 1.16 1.11 1.06 1.07 1.02 1.00 0.98 1.00 1.06 1.13 1.23 1.46 1.76 2.11 2.53 2.90 3.17 3.31
0.92 0.81 0.84 1.08 1.23 1.36 1.49 1.47 1.51 1.69 1.81 1.76 1.60 1.38 1.07 0.97 1.06 1.25 1.46 1.60 1.52 1.28 1.18 1.19 1.03 1.01 0.97 0.91 1.03 1.12 1.18 1.33 1.55 1.80 2.11 2.43 2.74 3.07
0.90 0.86 0.88 0.98 1.10 1.13 1.23 1.26 1.29 1.46 1.71 1.82 1.77 1.39 1.17 1.07 1.27 1.50 1.56 1.67 1.55 1.45 1.47 1.53 1.24 1.12 1.02 1.03 1.15 1.13 1.18 1.25 1.36 1.53 1.78 2.03 2.30 2.65
0.93 0.88 0.82 0.86 0.99 1.15 1.23 1.18 1.11 1.18 1.41 1.61 1.80 1.60 1.39 1.41 1.69 1.94 2.05 2.06 1.81 1.67 1.63 1.84 1.52 1.28 1.17 1.13 1.20 1.13 1.11 1.15 1.21 1.31 1.47 1.70 1.93 2.24
0.97 0.91 0.81 0.77 0.97 1.14 1.12 1.09 1.02 1.06 1.19 1.39 1.55 1.62 1.63 1.78 2.07 2.47 2.64 2.63 2.36 2.02 1.81 1.84 1.77 1.61 1.56 1.52 1.43 1.32 1.15 1.08 1.10 1.16 1.26 1.42 1.66 2.03
0.99 0.94 1.01 0.99 1.08 1.10 1.01 1.08 1.18 1.06 1.01 1.05 1.10 1.15 1.20 1.35 1.76 2.22 2.57 2.71 2.48 2.37 2.05 1.86 1.86 1.89 2.25 2.05 1.69 1.41 1.22 1.16 1.11 1.11 1.14 1.19 1.36 1.53
1.01 1.00 0.95 1.10 1.12 1.09 1.06 1.04 1.22 1.14 1.04 1.11 1.09 1.02 1.01 1.12 1.30 1.65 2.18 2.59 2.61 2.37 2.07 2.10 2.22 1.92 2.07 2.16 1.92 1.55 1.23 1.11 1.05 1.09 1.10 1.11 1.16 1.22
0.98 0.91 0.89 1.06 1.11 1.14 1.10 1.15 1.20 1.18 1.10 1.11 1.04 0.97 0.98 1.07 1.22 1.42 1.71 2.05 2.22 2.14 1.96 2.11 2.49 2.14 1.90 1.77 1.77 1.73 1.41 1.20 1.04 0.99 0.99 1.16 1.23 1.25
1.08 1.12 1.08 1.17 1.20 1.12 1.08 1.12 1.08 1.03 1.10 1.13 1.02 0.88 0.87 0.98 1.09 1.19 1.31 1.53 1.74 1.82 1.85 1.94 2.21 2.23 2.07 1.82 1.51 1.44 1.45 1.46 1.22 1.06 1.01 1.02 1.03 1.06
1.23 1.22 1.23 1.25 1.21 1.16 1.09 0.98 0.89 0.92 1.02 1.05 0.98 0.87 0.80 0.85 0.98 1.08 1.19 1.30 1.56 1.72 1.80 1.93 2.18 2.41 2.35 1.77 1.49 1.32 1.19 1.47 1.43 1.19 1.07 1.04 0.98 0.88
1.33 1.37 1.32 1.28 1.25 1.14 0.99 0.86 0.82 0.87 0.93 0.90 0.91 0.92 0.88 0.87 0.89 0.96 1.15 1.26 1.44 1.57 1.74 2.02 2.27 2.39 2.44 2.18 1.84 1.43 1.14 1.15 1.25 1.19 1.12 1.15 1.16 1.02
1.37 1.36 1.19 1.04 0.99 0.94 0.88 0.82 0.79 0.79 0.78 0.83 0.89 0.90 0.89 0.90 0.90 0.91 1.05 1.22 1.36 1.43 1.53 1.77 2.13 2.43 2.59 2.60 2.15 1.58 1.25 1.19 1.29 1.28 1.15 1.16 1.28 1.22
1.17 1.04 0.93 0.87 0.83 0.80 0.77 0.75 0.75 0.71 0.71 0.78 0.83 0.85 0.84 0.88 0.92 0.94 1.00 1.13 1.26 1.38 1.50 1.62 1.88 2.22 2.39 2.53 2.55 1.94 1.47 1.31 1.39 1.54 1.39 1.16 1.15 1.22
0.90 0.87 0.85 0.82 0.84 0.85 0.82 0.80 0.76 0.75 0.76 0.74 0.75 0.78 0.81 0.88 0.91 0.91 0.95 1.08 1.18 1.29 1.43 1.55 1.77 2.02 2.17 2.11 2.22 2.23 1.98 1.58 1.41 1.58 1.58 1.37 1.27 1.36
0.82 0.81 0.80 0.82 0.86 0.88 0.83 0.80 0.79 0.76 0.72 0.71 0.70 0.69 0.73 0.81 0.84 0.82 0.89 1.01 1.10 1.20 1.30 1.42 1.61 1.80 1.95 1.97 1.91 1.91 2.10 2.08 1.64 1.51 1.55 1.56 1.50 1.49
0.80 0.82 0.81 0.82 0.87 0.89 0.86 0.82 0.82 0.78 0.72 0.69 0.66 0.65 0.67 0.74 0.80 0.81 0.87 0.95 0.99 1.06 1.17 1.31 1.46 1.66 1.86 2.00 1.93 1.79 1.92 2.13 2.10 1.82 1.62 1.51 1.51 1.52
0.86 0.87 0.85 0.84 0.84 0.86 0.87 0.83 0.80 0.76 0.73 0.70 0.67 0.66 0.67 0.72 0.73 0.80 0.85 0.88 0.92 0.97 1.06 1.25 1.43 1.58 1.79 1.92 1.94 1.80 1.74 1.86 1.91 1.88 1.95 1.70 1.30 1.09